[[{"header":{"parameterUnit":"m.s-1","parameterCategory":1,"la1":31.0,"la2":29.5877,"lo1":-88.7671,"lo2":-86.6584,"dy":0.0162,"dx":0.0185,"nx":115,"ny":88,"refTime":"2023-04-15T12:00:00:Z","depth":0,"parameterNumber":2,"parameterNumberName":"U-component_of_WINDS"},"data":[0.0,0.0,0.0,0.0,0.0,0.0,0.0,0.0,0.0,0.0,0.0,0.0,0.0,0.0,0.0,0.0,0.0,0.0,0.0,0.0,0.0,0.0,0.0,0.0,0.0,0.0,0.0,0.0,0.0,0.0,0.0,0.0,0.0,0.0,0.0,0.0,0.0,0.0,0.0,0.0,0.0,0.0,0.0,0.0,0.0,0.0,0.0,0.0,0.0,0.0,0.0,0.0,0.0,0.0,0.0,0.0,0.0,0.0,0.0,0.0,0.0,0.0,0.0,0.0,0.0,0.0,0.0,0.0,0.0,0.0,0.0,0.0,0.0,0.0,0.0,0.0,0.0,0.0,0.0,0.0,0.0,0.0,0.0,0.0,0.0,0.0,0.0,0.0,0.0,0.0,0.0,0.0,0.0,0.0,0.0,0.0,0.0,0.0,0.0,0.0,0.0,0.0,0.0,0.0,0.0,0.0,0.0,0.0,0.0,0.0,0.0,0.0,0.0,0.0,0.0,0.0,0.0,0.0,0.0,0.0,0.0,0.0,0.0,0.0,0.0,0.0,0.0,0.0,0.0,0.0,0.0,0.0,0.0,0.0,0.0,0.0,0.0,0.0,0.0,0.0,0.0,0.0,0.0,0.0,0.0,0.0,0.0,0.0,0.0,0.0,0.0,0.0,0.0,0.0,0.0,0.0,0.0,0.0,0.0,0.0,0.0,0.0,0.0,0.0,0.0,0.0,0.0,0.0,0.0,0.0,0.0,0.0,0.0,0.0,0.0,0.0,0.0,0.0,0.0,0.0,0.0,0.0,0.0,0.0,0.0,0.0,0.0,0.0,0.0,0.0,0.0,0.0,0.0,0.0,0.0,0.0,0.0,0.0,0.0,0.0,0.0,0.0,0.0,0.0,0.0,0.0,0.0,0.0,0.0,0.0,0.0,0.0,0.0,0.0,0.0,0.0,0.0,0.0,0.0,0.0,0.0,0.0,0.0,0.0,0.0,0.0,0.0,0.0,0.0,0.0,0.0,0.0,0.0,0.0,0.0,0.0,0.0,0.0,0.0,0.0,0.0,0.0,0.0,0.0,0.0,0.0,0.0,0.0,0.0,0.0,0.0,0.0,0.0,0.0,0.0,0.0,0.0,0.0,0.0,0.0,0.0,0.0,0.0,0.0,0.0,0.0,0.0,0.0,0.0,0.0,0.0,0.0,0.0,0.0,0.0,0.0,0.0,0.0,0.0,0.0,0.0,0.0,0.0,0.0,0.0,0.0,0.0,0.0,0.0,0.0,0.0,0.0,0.0,0.0,0.0,0.0,0.0,0.0,0.0,0.0,0.0,0.0,0.0,0.0,0.0,0.0,0.0,0.0,0.0,0.0,0.0,0.0,0.0,0.0,0.0,0.0,0.0,0.0,0.0,0.0,0.0,0.0,0.0,0.0,0.0,0.0,0.0,0.0,0.0,0.0,0.0,0.0,0.0,0.0,0.0,0.0,0.0,0.0,0.0,0.0,0.0,0.0,0.0,0.0,0.0,0.0,0.0,0.0,0.0,0.0,0.0,0.0,0.0,0.0,0.0,0.0,0.0,0.0,0.0,0.0,0.0,0.0,0.0,0.0,0.0,0.0,0.0,0.0,0.0,0.0,0.0,0.0,0.0,0.0,0.0,0.0,0.0,0.0,0.0,0.0,0.0,0.0,0.0,0.0,0.0,0.0,0.0,0.0,0.0,0.0,0.0,0.0,0.0,0.0,0.0,0.0,0.0,0.0,0.0,0.0,0.0,0.0,0.0,0.0,0.0,0.0,0.0,0.0,0.0,0.0,0.0,0.0,0.0,0.0,0.0,0.0,0.0,0.0,0.0,0.0,0.0,0.0,0.0,0.0,0.0,0.0,0.0,0.0,0.0,0.0,0.0,0.0,0.0,0.0,0.0,0.0,0.0,0.0,0.0,0.0,0.0,0.0,0.0,0.0,0.0,0.0,0.0,0.0,0.0,0.0,0.0,0.0,0.0,0.0,0.0,0.0,0.0,0.0,0.0,0.0,0.0,0.0,0.0,0.0,0.0,0.0,0.0,0.0,0.0,0.0,0.0,0.0,0.0,0.0,0.0,0.0,0.0,0.0,0.0,0.0,0.0,0.0,0.0,0.0,0.0,0.0,0.0,0.0,0.0,0.0,0.0,0.0,0.0,0.0,0.0,0.0,0.0,0.0,0.0,0.0,0.0,0.0,0.0,0.0,0.0,0.0,0.0,0.0,0.0,0.0,0.0,0.0,0.0,0.0,0.0,0.0,0.0,0.0,0.0,0.0,0.0,0.0,0.0,0.0,0.0,0.0,0.0,0.0,0.0,0.0,0.0,0.0,0.0,0.0,0.0,0.0,0.0,0.0,0.0,0.0,0.0,0.0,0.0,0.0,0.0,0.0,0.0,0.0,0.0,0.0,0.0,0.0,0.0,0.0,0.0,0.0,0.0,0.0,0.0,0.0,0.0,0.0,0.0,0.0,0.0,0.0,0.0,0.0,0.0,0.0,0.0,0.0,0.0,0.0,0.0,0.0,0.0,0.0,0.0,0.0,0.0,0.0,0.0,0.0,0.0,0.0,0.0,0.0,0.0,0.0,0.0,0.0,0.0,0.0,0.0,0.0,0.0,0.0,0.0,0.0,0.0,0.0,0.0,0.0,0.0,0.0,0.0,0.0,0.0,0.0,0.0,0.0,0.0,0.0,0.0,0.0,0.0,0.0,0.0,0.0,0.0,0.0,0.0,0.0,0.0,0.0,0.0,0.0,0.0,0.0,0.0,0.0,0.0,0.0,0.0,0.0,0.0,0.0,0.0,0.0,0.0,0.0,0.0,0.0,0.0,0.0,0.0,0.0,0.0,0.0,0.0,0.0,0.0,0.0,0.0,0.0,0.0,0.0,0.0,0.0,0.0,0.0,0.0,0.0,0.0,0.0,0.0,0.0,0.0,0.0,0.0,0.0,0.0,0.0,0.0,0.0,0.0,0.0,0.0,0.0,0.0,0.0,0.0,0.0,0.0,0.0,0.0,0.0,0.0,0.0,0.0,0.0,0.0,0.0,0.0,0.0,0.0,0.0,0.0,0.0,0.0,0.0,0.0,0.0,0.0,0.0,0.0,0.0,0.0,0.0,0.0,0.0,0.0,0.0,0.0,0.0,0.0,0.0,0.0,0.0,0.0,0.0,0.0,0.0,0.0,0.0,0.0,0.0,0.0,0.0,0.0,0.0,0.0,0.0,0.0,0.0,0.0,0.0,0.0,0.0,0.0,0.0,0.0,0.0,0.0,0.0,0.0,0.0,0.0,0.0,0.0,0.0,0.0,0.0,0.0,0.0,0.0,0.0,0.0,0.0,0.0,0.0,0.0,0.0,0.0,0.0,0.0,0.0,0.0,0.0,0.0,0.0,0.0,0.0,0.0,0.0,0.0,0.0,0.0,0.0,0.0,0.0,0.0,0.0,0.0,0.0,0.0,0.0,0.0,0.0,0.0,0.0,0.0,0.0,0.0,0.0,0.0,0.0,0.0,0.0,0.0,0.0,0.0,0.0,0.0,0.0,0.0,0.0,0.0,0.0,0.0,0.0,0.0,0.0,0.0,0.0,0.0,0.0,0.0,0.0,0.0,0.0,0.0,0.0,0.0,0.0,0.0,0.0,0.0,0.0,0.0,0.0,0.0,0.0,0.0,0.0,0.0,0.0,0.0,0.0,0.0,0.0,0.0,0.0,0.0,0.0,0.0,0.0,0.0,0.0,0.0,0.0,0.0,0.0,0.0,0.0,0.0,0.0,0.0,0.0,0.0,0.0,0.0,0.0,0.0,0.0,0.0,0.0,0.0,0.0,0.0,0.0,0.0,0.0,0.0,0.0,0.0,0.0,0.0,0.0,0.0,0.0,0.0,0.0,0.0,0.0,0.0,0.0,0.0,0.0,0.0,0.0,0.0,0.0,0.0,0.0,0.0,0.0,0.0,0.0,0.0,0.0,0.0,0.0,0.0,0.0,0.0,0.0,0.0,0.0,0.0,0.0,0.0,0.0,0.0,0.0,0.0,0.0,0.0,0.0,0.0,0.0,0.0,0.0,0.0,0.0,0.0,0.0,0.0,0.0,0.0,0.0,0.0,0.0,0.0,0.0,0.0,0.0,0.0,0.0,0.0,0.0,0.0,0.0,0.0,0.0,0.0,0.0,0.0,0.0,0.0,0.0,0.0,0.0,0.0,0.0,0.0,0.0,0.0,0.0,0.0,0.0,0.0,0.0,0.0,0.0,-1.1526,0.0,0.0,0.0,0.0,0.0,0.0,0.0,0.0,0.0,0.0,0.0,0.0,0.0,0.0,0.0,0.0,0.0,0.0,0.0,0.0,0.0,0.0,0.0,0.0,0.0,0.0,0.0,0.0,0.0,0.0,0.0,0.0,0.0,0.0,0.0,0.0,0.0,0.0,0.0,0.0,0.0,0.0,0.0,0.0,0.0,0.0,0.0,0.0,0.0,0.0,0.0,0.0,0.0,0.0,0.0,0.0,0.0,0.0,0.0,0.0,0.0,0.0,0.0,0.0,0.0,0.0,0.0,0.0,0.0,0.0,0.0,0.0,0.0,0.0,0.0,0.0,0.0,0.0,0.0,0.0,0.0,0.0,0.0,0.0,0.0,0.0,0.0,0.0,0.0,0.0,0.0,0.0,0.0,0.0,0.0,0.0,0.0,0.0,0.0,0.0,0.0,0.0,0.0,0.0,0.0,0.0,0.0,0.0,0.0,0.0,-1.2915,-1.2915,-1.2915,-1.2484,-1.1645,0.0,0.0,0.0,0.0,0.0,0.0,0.0,0.0,0.0,0.0,0.0,0.0,0.0,0.0,0.0,0.0,0.0,0.0,0.0,0.0,0.0,0.0,0.0,0.0,0.0,0.0,0.0,0.0,0.0,0.0,0.0,0.0,0.0,0.0,0.0,0.0,0.0,0.0,0.0,0.0,0.0,0.0,0.0,0.0,0.0,0.0,0.0,0.0,0.0,0.0,0.0,0.0,0.0,0.0,0.0,0.0,0.0,0.0,0.0,0.0,0.0,0.0,0.0,0.0,0.0,0.0,0.0,0.0,0.0,0.0,0.0,0.0,0.0,0.0,0.0,0.0,0.0,0.0,0.0,0.0,0.0,0.0,0.0,0.0,0.0,0.0,0.0,0.0,0.0,0.0,0.0,0.0,0.0,0.0,0.0,0.0,0.0,0.0,0.0,0.0,0.0,0.0,0.0,0.0,0.0,0.0,0.0,0.0,0.0,0.0,0.0,0.0,-1.2915,-1.2494,-1.1636,0.0,0.0,0.0,0.0,0.0,0.0,0.0,0.0,0.0,0.0,0.0,0.0,0.0,0.0,0.0,0.0,0.0,0.0,0.0,0.0,0.0,0.0,0.0,0.0,0.0,0.0,0.0,0.0,0.0,0.0,0.0,0.0,0.0,0.0,0.0,0.0,0.0,0.0,0.0,0.0,0.0,0.0,0.0,0.0,0.0,0.0,0.0,0.0,0.0,0.0,0.0,0.0,0.0,0.0,0.0,0.0,0.0,0.0,0.0,0.0,0.0,0.0,0.0,0.0,0.0,0.0,0.0,0.0,0.0,0.0,0.0,0.0,0.0,0.0,0.0,0.0,0.0,0.0,0.0,0.0,0.0,0.0,0.0,0.0,0.0,0.0,0.0,0.0,0.0,0.0,0.0,0.0,0.0,0.0,0.0,0.0,0.0,0.0,0.0,0.0,0.0,0.0,0.0,0.0,0.0,0.0,0.0,0.0,0.0,0.0,-1.2915,-1.2915,-1.2905,0.0,-1.1655,0.0,0.0,0.0,0.0,0.0,0.0,0.0,0.0,0.0,0.0,0.0,0.0,0.0,0.0,0.0,0.0,0.0,0.0,0.0,0.0,0.0,0.0,0.0,0.0,0.0,0.0,0.0,0.0,0.0,0.0,0.0,0.0,0.0,0.0,0.0,0.0,0.0,0.0,0.0,0.0,0.0,0.0,0.0,0.0,0.0,0.0,0.0,0.0,0.0,0.0,0.0,0.0,0.0,0.0,0.0,0.0,0.0,0.0,0.0,0.0,0.0,0.0,0.0,0.0,0.0,0.0,0.0,0.0,0.0,0.0,0.0,0.0,0.0,0.0,0.0,0.0,0.0,0.0,0.0,0.0,0.0,0.0,0.0,0.0,0.0,0.0,0.0,0.0,0.0,0.0,0.0,0.0,0.0,0.0,0.0,0.0,0.0,0.0,0.0,0.0,0.0,0.0,0.0,0.0,0.0,0.0,0.0,0.0,0.0,0.0,-1.3252,-1.3252,-1.2764,-1.2311,0.0,0.0,0.0,0.0,0.0,0.0,0.0,0.0,0.0,0.0,0.0,0.0,0.0,0.0,0.0,0.0,0.0,0.0,0.0,0.0,0.0,0.0,0.0,0.0,0.0,0.0,0.0,0.0,0.0,0.0,0.0,0.0,0.0,0.0,0.0,0.0,0.0,0.0,0.0,0.0,0.0,0.0,0.0,0.0,0.0,0.0,0.0,0.0,0.0,0.0,0.0,0.0,0.0,0.0,0.0,0.0,0.0,0.0,0.0,0.0,0.0,0.0,0.0,0.0,0.0,0.0,0.0,0.0,0.0,0.0,0.0,0.0,0.0,0.0,0.0,0.0,0.0,0.0,0.0,0.0,0.0,0.0,0.0,0.0,0.0,0.0,0.0,0.0,0.0,0.0,0.0,0.0,0.0,0.0,0.0,0.0,0.0,0.0,0.0,0.0,0.0,0.0,0.0,0.0,0.0,0.0,0.0,0.0,0.0,0.0,-1.3486,-1.334,-1.3311,-1.2686,-1.2283,-1.2157,0.0,0.0,0.0,0.0,0.0,0.0,0.0,0.0,0.0,0.0,0.0,0.0,0.0,0.0,0.0,0.0,0.0,0.0,0.0,0.0,0.0,0.0,0.0,0.0,0.0,0.0,0.0,0.0,0.0,0.0,0.0,0.0,0.0,0.0,0.0,0.0,0.0,0.0,0.0,0.0,0.0,0.0,0.0,0.0,0.0,0.0,0.0,0.0,0.0,0.0,0.0,0.0,0.0,0.0,0.0,0.0,0.0,0.0,0.0,0.0,0.0,0.0,0.0,0.0,0.0,0.0,0.0,0.0,0.0,0.0,0.0,0.0,0.0,0.0,0.0,0.0,0.0,0.0,0.0,0.0,0.0,0.0,0.0,0.0,0.0,0.0,0.0,0.0,0.0,0.0,0.0,0.0,0.0,0.0,0.0,0.0,0.0,0.0,0.0,0.0,0.0,0.0,0.0,0.0,0.0,0.0,0.0,0.0,-1.2983,-1.2974,-1.2944,-1.2954,-1.2774,-1.2464,0.0,0.0,0.0,0.0,0.0,0.0,0.0,0.0,0.0,0.0,0.0,0.0,0.0,0.0,0.0,0.0,0.0,0.0,0.0,0.0,0.0,0.0,0.0,0.0,0.0,0.0,0.0,0.0,0.0,0.0,0.0,0.0,0.0,0.0,0.0,0.0,0.0,0.0,0.0,0.0,0.0,0.0,0.0,0.0,0.0,0.0,0.0,0.0,0.0,0.0,0.0,0.0,0.0,0.0,0.0,0.0,0.0,0.0,0.0,0.0,0.0,0.0,0.0,0.0,0.0,0.0,0.0,0.0,0.0,0.0,0.0,0.0,0.0,0.0,0.0,0.0,0.0,0.0,0.0,0.0,0.0,0.0,0.0,0.0,0.0,0.0,0.0,0.0,0.0,0.0,0.0,0.0,0.0,0.0,0.0,0.0,0.0,0.0,0.0,0.0,0.0,0.0,0.0,0.0,0.0,0.0,0.0,0.0,0.0,-1.3646,-1.3682,-1.3555,-1.3291,-1.3156,-1.2878,0.0,0.0,0.0,0.0,0.0,0.0,0.0,0.0,0.0,0.0,0.0,0.0,0.0,0.0,0.0,0.0,0.0,0.0,0.0,0.0,0.0,0.0,0.0,0.0,0.0,0.0,0.0,0.0,0.0,0.0,0.0,0.0,0.0,0.0,0.0,0.0,0.0,0.0,0.0,0.0,0.0,0.0,0.0,0.0,0.0,0.0,0.0,0.0,0.0,0.0,0.0,0.0,0.0,0.0,0.0,0.0,0.0,0.0,0.0,0.0,0.0,0.0,0.0,0.0,0.0,0.0,0.0,0.0,0.0,0.0,0.0,0.0,0.0,0.0,0.0,0.0,0.0,0.0,0.0,0.0,0.0,0.0,0.0,0.0,0.0,0.0,0.0,0.0,0.0,0.0,0.0,0.0,0.0,0.0,0.0,0.0,0.0,0.0,0.0,0.0,0.0,0.0,0.0,0.0,0.0,0.0,0.0,0.0,0.0,-1.389,0.0,-1.3968,-1.3695,-1.3385,-1.309,0.0,0.0,0.0,0.0,0.0,0.0,0.0,0.0,0.0,0.0,0.0,0.0,0.0,0.0,0.0,0.0,0.0,0.0,0.0,0.0,0.0,0.0,0.0,0.0,0.0,0.0,0.0,0.0,0.0,0.0,0.0,0.0,0.0,0.0,0.0,0.0,0.0,0.0,0.0,0.0,0.0,0.0,0.0,0.0,0.0,0.0,0.0,0.0,0.0,0.0,0.0,0.0,0.0,0.0,0.0,0.0,0.0,0.0,0.0,0.0,0.0,0.0,0.0,0.0,0.0,0.0,0.0,0.0,0.0,0.0,0.0,0.0,0.0,0.0,0.0,0.0,0.0,0.0,0.0,0.0,0.0,0.0,0.0,0.0,0.0,0.0,0.0,0.0,0.0,0.0,0.0,0.0,0.0,0.0,0.0,0.0,0.0,0.0,0.0,0.0,0.0,0.0,0.0,0.0,0.0,0.0,0.0,0.0,-1.316,-1.3535,-1.3919,-1.4133,-1.4077,-1.3499,-1.3053,0.0,0.0,0.0,0.0,0.0,0.0,0.0,0.0,0.0,0.0,0.0,0.0,0.0,0.0,0.0,0.0,0.0,0.0,0.0,0.0,0.0,0.0,0.0,0.0,0.0,0.0,0.0,0.0,0.0,0.0,0.0,0.0,0.0,0.0,0.0,0.0,0.0,0.0,0.0,0.0,0.0,0.0,0.0,0.0,0.0,0.0,0.0,0.0,0.0,0.0,0.0,0.0,0.0,0.0,0.0,0.0,0.0,0.0,0.0,0.0,0.0,0.0,0.0,0.0,0.0,0.0,0.0,0.0,0.0,0.0,0.0,0.0,0.0,0.0,0.0,0.0,0.0,0.0,0.0,0.0,0.0,0.0,0.0,0.0,0.0,0.0,0.0,0.0,0.0,0.0,0.0,0.0,0.0,0.0,0.0,0.0,0.0,0.0,0.0,0.0,0.0,0.0,0.0,0.0,0.0,0.0,0.0,0.0,0.0,-1.4385,-1.4512,-1.458,-1.458,-1.4198,-1.3719,0.0,0.0,0.0,0.0,0.0,0.0,0.0,0.0,0.0,0.0,0.0,0.0,0.0,0.0,0.0,0.0,0.0,0.0,0.0,0.0,0.0,0.0,0.0,0.0,0.0,0.0,0.0,0.0,0.0,0.0,0.0,0.0,0.0,0.0,0.0,0.0,0.0,0.0,0.0,0.0,0.0,0.0,0.0,0.0,0.0,0.0,0.0,0.0,0.0,0.0,0.0,0.0,0.0,0.0,0.0,0.0,0.0,0.0,0.0,0.0,0.0,0.0,0.0,0.0,0.0,0.0,0.0,0.0,0.0,0.0,0.0,0.0,0.0,0.0,0.0,0.0,0.0,0.0,0.0,0.0,0.0,0.0,0.0,0.0,0.0,0.0,0.0,0.0,0.0,0.0,0.0,0.0,0.0,0.0,0.0,0.0,0.0,0.0,0.0,0.0,0.0,0.0,0.0,0.0,0.0,0.0,0.0,0.0,0.0,-1.5283,-1.5292,-1.5283,-1.5292,-1.4869,-1.427,-1.3517,0.0,0.0,0.0,0.0,0.0,0.0,0.0,0.0,0.0,0.0,0.0,0.0,0.0,0.0,0.0,0.0,0.0,0.0,0.0,0.0,0.0,0.0,0.0,0.0,0.0,0.0,0.0,0.0,0.0,0.0,0.0,0.0,0.0,0.0,0.0,0.0,0.0,0.0,0.0,0.0,0.0,0.0,0.0,0.0,0.0,0.0,0.0,0.0,0.0,0.0,0.0,0.0,0.0,0.0,0.0,0.0,0.0,0.0,0.0,0.0,0.0,0.0,0.0,0.0,0.0,0.0,0.0,0.0,0.0,0.0,0.0,0.0,0.0,0.0,0.0,0.0,0.0,0.0,0.0,0.0,0.0,0.0,0.0,0.0,0.0,0.0,0.0,0.0,0.0,0.0,0.0,0.0,0.0,0.0,0.0,0.0,0.0,0.0,0.0,0.0,0.0,0.0,0.0,0.0,0.0,0.0,0.0,0.0,-1.6173,-1.6173,-1.6153,-1.6124,-1.5426,-1.478,0.0,0.0,0.0,0.0,0.0,0.0,0.0,0.0,0.0,0.0,0.0,0.0,0.0,0.0,0.0,0.0,0.0,0.0,0.0,0.0,0.0,0.0,0.0,0.0,0.0,0.0,0.0,0.0,0.0,0.0,0.0,0.0,0.0,0.0,0.0,0.0,0.0,0.0,0.0,0.0,0.0,0.0,0.0,0.0,0.0,0.0,0.0,0.0,0.0,0.0,0.0,0.0,0.0,0.0,0.0,0.0,0.0,0.0,0.0,0.0,0.0,0.0,0.0,0.0,0.0,0.0,0.0,0.0,0.0,0.0,0.0,0.0,0.0,0.0,0.0,0.0,0.0,0.0,0.0,0.0,0.0,0.0,0.0,0.0,0.0,0.0,0.0,0.0,0.0,0.0,0.0,0.0,0.0,0.0,0.0,0.0,0.0,0.0,0.0,0.0,0.0,0.0,0.0,0.0,0.0,0.0,0.0,0.0,0.0,-1.7034,-1.7041,-1.6907,-1.6531,-1.5929,-1.5325,0.0,0.0,0.0,0.0,0.0,0.0,0.0,0.0,0.0,0.0,0.0,0.0,0.0,0.0,0.0,0.0,0.0,0.0,0.0,0.0,0.0,0.0,0.0,0.0,0.0,0.0,0.0,0.0,0.0,0.0,0.0,0.0,0.0,0.0,0.0,0.0,0.0,0.0,0.0,0.0,0.0,0.0,0.0,0.0,0.0,0.0,0.0,0.0,0.0,0.0,0.0,0.0,0.0,0.0,0.0,0.0,0.0,0.0,0.0,0.0,0.0,0.0,0.0,0.0,0.0,0.0,0.0,0.0,0.0,0.0,0.0,0.0,0.0,0.0,0.0,0.0,0.0,0.0,0.0,0.0,0.0,0.0,0.0,0.0,0.0,0.0,0.0,0.0,0.0,0.0,0.0,0.0,0.0,0.0,0.0,0.0,0.0,0.0,0.0,0.0,0.0,0.0,0.0,0.0,0.0,0.0,0.0,0.0,-1.668,-1.7396,-1.7549,-1.7529,-1.7233,-1.6512,-1.5846,0.0,0.0,0.0,0.0,0.0,0.0,0.0,0.0,0.0,0.0,0.0,0.0,0.0,0.0,0.0,0.0,0.0,0.0,0.0,0.0,0.0,0.0,0.0,0.0,0.0,0.0,0.0,0.0,0.0,0.0,0.0,0.0,0.0,0.0,0.0,0.0,0.0,0.0,0.0,0.0,0.0,0.0,0.0,0.0,0.0,0.0,0.0,0.0,0.0,0.0,0.0,0.0,0.0,0.0,0.0,0.0,0.0,0.0,0.0,0.0,0.0,0.0,0.0,0.0,0.0,0.0,0.0,0.0,0.0,0.0,0.0,0.0,0.0,0.0,0.0,0.0,0.0,0.0,0.0,0.0,0.0,0.0,0.0,0.0,0.0,0.0,0.0,0.0,0.0,0.0,0.0,0.0,0.0,0.0,0.0,0.0,0.0,0.0,0.0,0.0,0.0,0.0,0.0,0.0,0.0,0.0,0.0,0.0,-1.695,-1.751,-1.7832,-1.8037,-1.8013,-1.7067,-1.6261,0.0,0.0,0.0,0.0,0.0,0.0,0.0,0.0,0.0,0.0,0.0,0.0,0.0,0.0,0.0,0.0,0.0,0.0,0.0,0.0,0.0,0.0,0.0,0.0,0.0,0.0,0.0,0.0,0.0,0.0,0.0,0.0,0.0,0.0,0.0,0.0,0.0,0.0,0.0,0.0,0.0,0.0,0.0,0.0,0.0,0.0,0.0,0.0,0.0,0.0,0.0,0.0,0.0,0.0,0.0,0.0,0.0,0.0,0.0,0.0,0.0,0.0,0.0,0.0,0.0,0.0,0.0,0.0,0.0,0.0,0.0,0.0,0.0,0.0,0.0,0.0,0.0,0.0,0.0,0.0,0.0,0.0,0.0,0.0,0.0,0.0,0.0,0.0,0.0,0.0,0.0,0.0,0.0,0.0,0.0,0.0,0.0,0.0,0.0,0.0,0.0,0.0,0.0,0.0,0.0,0.0,0.0,0.0,-1.7243,-1.8295,-1.81,-1.8174,-1.8451,-1.7288,-1.6449,0.0,0.0,0.0,0.0,0.0,0.0,0.0,0.0,0.0,0.0,0.0,0.0,0.0,0.0,0.0,0.0,0.0,0.0,0.0,0.0,0.0,0.0,0.0,0.0,0.0,0.0,0.0,0.0,0.0,0.0,0.0,0.0,0.0,0.0,0.0,0.0,0.0,0.0,0.0,0.0,0.0,0.0,0.0,0.0,0.0,0.0,0.0,0.0,-0.045,0.0,0.0,0.0,0.0,0.0,0.0,0.0,0.0,0.0,0.0,0.0,0.0,0.0,0.0,0.0,0.0,0.0,0.0,0.0,0.0,0.0,0.0,0.0,0.0,0.0,0.0,0.0,0.0,0.0,0.0,0.0,0.0,0.0,0.0,0.0,0.0,0.0,0.0,0.0,0.0,0.0,0.0,0.0,0.0,0.0,0.0,0.0,0.0,0.0,0.0,0.0,0.0,0.0,0.0,0.0,0.0,0.0,0.0,0.0,-1.773,-1.8559,-1.8623,-1.8623,-1.8568,-1.775,-1.7009,0.0,0.0,0.0,0.0,0.0,0.0,0.0,0.0,0.0,0.0,0.0,0.0,0.0,0.0,0.0,0.0,0.0,0.0,0.0,0.0,0.0,0.0,0.0,0.0,0.0,0.0,0.0,0.0,0.0,0.0,0.0,0.0,0.0,0.0,0.0,0.0,0.0,0.0,0.0,0.0,0.0,0.0,0.0,0.0,0.0,0.0,0.0,0.0,0.0,0.0,0.0,0.0,0.0,0.0,0.0,0.0,0.0,0.0,0.0,0.0,0.0,0.0,0.0,0.0,0.0,0.0,0.0,0.0,0.0,0.0,0.0,0.0,0.0,0.0,0.0,0.0,0.0,0.0,0.0,0.0,0.0,0.0,0.0,0.0,0.0,0.0,0.0,0.0,0.0,0.0,0.0,0.0,0.0,0.0,0.0,0.0,0.0,0.0,0.0,0.0,0.0,0.0,0.0,0.0,0.0,0.0,0.0,-1.7607,-1.8252,-1.8695,-1.9102,-1.9141,-1.8802,-1.8325,-1.7667,-1.6741,0.0,0.0,0.0,0.0,0.0,0.0,0.0,0.0,0.0,0.0,0.0,0.0,0.0,0.0,0.0,0.0,0.0,0.0,0.0,0.0,0.0,0.0,0.0,0.0,0.0,0.0,0.0,0.0,0.0,0.0,0.0,0.0,0.0,0.0,0.0,0.0,0.0,0.0,-0.3668,-0.3545,0.0,0.0,0.0,0.0,0.0,0.0,0.0,0.0,-0.1117,0.0,0.0,0.0,0.0,0.0,0.0,0.0,0.0,0.0,0.0,0.0,0.0,0.0,0.0,0.0,0.0,0.0,0.0,0.0,0.0,0.0,0.0,0.0,0.0,0.0,0.0,0.0,0.0,0.0,0.0,0.0,0.0,0.0,0.0,0.0,0.0,0.0,0.0,0.0,0.0,0.0,0.0,0.0,0.0,0.0,0.0,0.0,0.0,0.0,0.0,0.0,0.0,0.0,0.0,0.0,0.0,-1.7275,-1.7764,-1.8389,-1.915,-1.9248,-1.9414,-1.9668,-1.8945,-1.8266,-1.7706,0.0,0.0,0.0,0.0,0.0,0.0,0.0,0.0,0.0,0.0,0.0,0.0,0.0,0.0,0.0,0.0,0.0,0.0,0.0,0.0,0.0,0.0,0.0,0.0,0.0,0.0,0.0,0.0,0.0,0.0,0.0,0.0,0.0,0.0,0.0,0.0,0.0,0.0,0.0,-0.3817,-0.3707,0.0,0.0,0.0,0.0,0.0,0.0,0.0,0.0,-0.1334,0.0,0.0,0.0,0.0,0.0,0.0,0.0,0.0,0.0,0.0,0.0,0.0,0.0,0.0,0.0,0.0,0.0,0.0,0.0,0.0,0.0,0.0,0.0,0.0,0.0,0.0,0.0,0.0,0.0,0.0,0.0,0.0,0.0,0.0,0.0,0.0,0.0,0.0,0.0,0.0,0.0,0.0,0.0,0.0,0.0,0.0,0.0,0.0,0.0,0.0,0.0,0.0,0.0,0.0,0.0,-1.7715,-1.834,-1.8984,-1.959,-1.9834,-1.9941,-1.9893,-1.9307,-1.8672,0.0,0.0,0.0,0.0,0.0,0.0,0.0,0.0,0.0,0.0,0.0,0.0,0.0,0.0,0.0,0.0,0.0,0.0,0.0,0.0,0.0,0.0,0.0,0.0,0.0,0.0,0.0,0.0,0.0,0.0,0.0,0.0,0.0,0.0,0.0,0.0,0.0,0.0,0.0,0.0,-0.4035,-0.4006,-0.4006,0.0,0.0,0.0,0.0,0.0,0.0,-0.2365,-0.1913,0.0,0.0,0.0,0.0,0.0,0.0,0.0,0.0,0.0,0.0,0.0,0.0,0.0,0.0,0.0,0.0,0.0,0.0,0.0,0.0,0.0,0.0,0.0,0.0,0.0,0.0,0.0,0.0,0.0,0.0,0.0,0.0,0.0,0.0,0.0,0.0,0.0,0.0,0.0,0.0,0.0,0.0,0.0,0.0,0.0,0.0,0.0,0.0,0.0,0.0,0.0,0.0,0.0,0.0,0.0,-1.8179,-1.902,-1.957,-1.9912,-2.0342,-2.0439,-2.0049,-1.9629,-1.9053,0.0,0.0,0.0,0.0,0.0,0.0,0.0,0.0,0.0,0.0,0.0,0.0,0.0,0.0,0.0,0.0,0.0,0.0,0.0,0.0,0.0,0.0,0.0,0.0,0.0,0.0,0.0,0.0,0.0,0.0,0.0,0.0,0.0,0.0,0.0,0.0,0.0,0.0,0.0,0.0,0.0,-0.4418,-0.4365,-0.4335,0.0,0.0,0.0,0.0,-0.3362,-0.3023,0.0,0.0,0.0,0.0,0.0,0.0,0.0,0.0,0.0,0.0,0.0,0.0,0.0,0.0,0.0,0.0,0.0,0.0,0.0,0.0,0.0,0.0,0.0,0.0,0.0,0.0,0.0,0.0,0.0,0.0,0.0,0.0,0.0,0.0,0.0,0.0,0.0,0.0,0.0,0.0,0.0,0.0,0.0,0.0,0.0,0.0,0.0,0.0,0.0,0.0,0.0,0.0,0.0,0.0,0.0,0.0,-1.8829,-1.9478,-1.9853,-1.9932,-2.0342,-2.0586,-2.0527,-2.0068,-1.9619,0.0,0.0,0.0,0.0,0.0,0.0,0.0,0.0,0.0,0.0,0.0,0.0,0.0,0.0,0.0,0.0,0.0,0.0,0.0,0.0,0.0,0.0,0.0,0.0,0.0,0.0,0.0,0.0,0.0,0.0,0.0,0.0,0.0,0.0,0.0,0.0,0.0,0.0,0.0,0.0,0.0,-0.5159,-0.4873,-0.4987,-0.5009,0.0,0.0,-0.4574,-0.4126,-0.3914,0.0,0.0,0.0,0.0,0.0,0.0,0.0,0.0,0.0,0.0,0.0,0.0,0.0,0.0,0.0,0.0,0.0,0.0,0.0,0.0,0.0,0.0,0.0,0.0,0.0,0.0,0.0,0.0,0.0,0.0,0.0,0.0,0.0,0.0,0.0,0.0,0.0,0.0,0.0,0.0,0.0,0.0,0.0,0.0,0.0,0.0,0.0,0.0,0.0,0.0,0.0,0.0,0.0,0.0,0.0,-1.9374,-1.9407,-2.0125,-2.0497,-2.0664,-2.1094,-2.1201,-2.0947,-2.0518,-1.9971,0.0,0.0,0.0,0.0,0.0,0.0,0.0,0.0,0.0,0.0,0.0,0.0,0.0,0.0,0.0,0.0,0.0,0.0,0.0,0.0,0.0,0.0,0.0,0.0,0.0,0.0,0.0,0.0,0.0,0.0,0.0,0.0,0.0,0.0,0.0,0.0,0.0,0.0,0.0,0.0,0.0,0.0,-0.5543,-0.5502,0.0,0.0,0.0,-0.4945,-0.4549,0.0,0.0,0.0,0.0,0.0,0.0,0.0,0.0,0.0,0.0,0.0,0.0,0.0,0.0,0.0,0.0,0.0,0.0,0.0,0.0,0.0,0.0,0.0,0.0,0.0,0.0,0.0,0.0,0.0,0.0,0.0,0.0,0.0,0.0,0.0,0.0,0.0,0.0,0.0,0.0,0.0,0.0,0.0,0.0,0.0,0.0,0.0,0.0,0.0,0.0,0.0,0.0,0.0,0.0,0.0,0.0,0.0,-2.0236,-2.0783,-2.1155,-2.1387,-2.1719,-2.1738,-2.1366,-2.0967,0.0,0.0,0.0,0.0,0.0,0.0,0.0,0.0,0.0,0.0,0.0,0.0,0.0,0.0,0.0,0.0,0.0,0.0,0.0,0.0,0.0,0.0,0.0,0.0,0.0,0.0,0.0,-0.8532,0.0,0.0,0.0,0.0,0.0,0.0,0.0,0.0,0.0,0.0,0.0,0.0,0.0,0.0,-0.6367,-0.6319,-0.6175,-0.597,0.0,0.0,-0.5449,-0.5039,-0.4848,-0.4621,0.0,0.0,0.0,0.0,0.0,0.0,0.0,0.0,0.0,0.0,0.0,0.0,0.0,0.0,0.0,0.0,0.0,0.0,0.0,0.0,0.0,0.0,0.0,0.0,0.0,0.0,0.0,0.0,0.0,0.0,0.0,0.0,0.0,0.0,0.0,0.0,0.0,0.0,0.0,0.0,0.0,0.0,0.0,0.0,0.0,0.0,0.0,0.0,0.0,0.0,0.0,0.0,0.0,0.0,0.0,-2.1362,-2.142,-2.1598,-2.1816,-2.1916,-2.1865,-2.1836,-2.1416,-2.0967,0.0,0.0,0.0,0.0,0.0,0.0,0.0,0.0,0.0,0.0,0.0,0.0,0.0,0.0,0.0,0.0,0.0,0.0,0.0,0.0,0.0,0.0,0.0,0.0,0.0,0.0,0.0,0.0,0.0,0.0,0.0,0.0,0.0,0.0,0.0,0.0,0.0,0.0,0.0,0.0,0.0,-0.7595,-0.7163,-0.7085,-0.6988,0.0,0.0,-0.6412,-0.581,-0.5616,-0.528,-0.4652,0.0,0.0,0.0,0.0,0.0,0.0,0.0,0.0,0.0,0.0,0.0,0.0,0.0,0.0,0.0,0.0,0.0,0.0,0.0,0.0,0.0,0.0,0.0,0.0,0.0,0.0,0.0,0.0,0.0,0.0,0.0,0.0,0.0,0.0,0.0,0.0,0.0,0.0,0.0,0.0,0.0,0.0,0.0,0.0,0.0,0.0,0.0,0.0,0.0,0.0,0.0,0.0,0.0,-2.1553,-2.1825,-2.2018,-2.2165,-2.2256,-2.2529,-2.2539,-2.2275,-2.2068,-2.1562,0.0,0.0,0.0,0.0,0.0,0.0,0.0,0.0,0.0,0.0,0.0,0.0,0.0,0.0,0.0,0.0,0.0,0.0,0.0,0.0,0.0,0.0,0.0,0.0,0.0,0.0,0.0,0.0,-0.9533,-0.9599,-0.9563,0.0,0.0,0.0,0.0,0.0,0.0,0.0,0.0,0.0,0.0,-0.8641,-0.868,-0.8364,0.0,0.0,-0.7517,-0.7226,-0.6615,-0.6441,-0.6101,-0.5342,-0.4826,0.0,0.0,0.0,0.0,0.0,0.0,0.0,0.0,0.0,0.0,0.0,0.0,0.0,0.0,0.0,0.0,0.0,0.0,0.0,0.0,0.0,0.0,0.0,0.0,0.0,0.0,0.0,0.0,0.0,0.0,0.0,0.0,0.0,0.0,0.0,0.0,0.0,0.0,0.0,0.0,0.0,0.0,0.0,0.0,0.0,0.0,0.0,0.0,0.0,0.0,0.0,0.0,-2.2088,-2.2517,-2.2632,-2.2712,-2.2771,-2.3075,-2.3041,-2.2705,-2.2588,-2.208,0.0,0.0,0.0,0.0,0.0,0.0,0.0,0.0,0.0,0.0,0.0,0.0,0.0,0.0,0.0,0.0,0.0,0.0,0.0,0.0,0.0,0.0,0.0,0.0,0.0,0.0,0.0,0.0,-0.993,-0.9976,-0.9976,0.0,0.0,0.0,0.0,0.0,0.0,0.0,0.0,0.0,0.0,-0.9701,-0.9921,-0.9496,-0.9061,-0.8733,-0.8527,-0.8162,-0.7491,-0.7246,-0.6834,-0.6045,0.0,0.0,0.0,0.0,0.0,0.0,0.0,0.0,0.0,0.0,0.0,0.0,0.0,0.0,0.0,0.0,0.0,0.0,0.0,0.0,0.0,0.0,0.0,0.0,0.0,0.0,0.0,0.0,0.0,0.0,-1.9811,0.0,0.0,0.0,0.0,0.0,0.0,0.0,0.0,0.0,0.0,0.0,0.0,0.0,0.0,0.0,0.0,0.0,0.0,0.0,0.0,0.0,0.0,-2.2767,-2.3642,-2.3304,-2.3226,-2.3487,-2.3493,-2.3353,-2.3115,-2.2682,-2.249,-2.2441,0.0,0.0,0.0,0.0,0.0,0.0,0.0,0.0,0.0,0.0,0.0,0.0,0.0,0.0,0.0,0.0,0.0,0.0,0.0,0.0,0.0,0.0,0.0,0.0,0.0,0.0,-1.0107,-1.0399,-1.0584,0.0,0.0,0.0,0.0,0.0,0.0,0.0,0.0,0.0,0.0,-1.0797,-1.083,-1.0719,-1.04,-1.0087,-0.9895,-0.9669,-0.9258,-0.8438,-0.8068,-0.7588,0.0,0.0,0.0,0.0,0.0,0.0,0.0,0.0,0.0,0.0,0.0,0.0,0.0,0.0,0.0,0.0,0.0,0.0,0.0,0.0,0.0,0.0,0.0,0.0,0.0,0.0,0.0,-2.0388,-2.0401,0.0,0.0,0.0,0.0,0.0,0.0,0.0,0.0,0.0,0.0,0.0,-2.5071,-2.5493,0.0,0.0,0.0,0.0,0.0,0.0,0.0,0.0,0.0,0.0,0.0,0.0,-2.3174,-2.4469,-2.3887,-2.3773,-2.4135,-2.3831,-2.358,-2.3363,-2.3041,-2.275,-2.251,0.0,0.0,0.0,0.0,0.0,0.0,0.0,0.0,0.0,0.0,0.0,0.0,0.0,0.0,0.0,0.0,0.0,0.0,0.0,0.0,0.0,0.0,0.0,0.0,0.0,-1.0936,0.0,0.0,0.0,0.0,0.0,0.0,0.0,0.0,0.0,0.0,0.0,-1.1282,-1.1691,-1.1693,-1.1681,-1.1865,-1.1558,-1.122,0.0,0.0,0.0,0.0,0.0,0.0,0.0,0.0,0.0,0.0,0.0,0.0,0.0,0.0,-0.3899,-0.2946,-0.2409,-0.2082,-0.1949,0.0,0.0,0.0,0.0,0.0,0.0,0.0,0.0,0.0,0.0,0.0,0.0,0.0,0.0,-2.2058,0.0,-2.2272,0.0,0.0,0.0,0.0,0.0,0.0,0.0,0.0,-2.5937,-2.6289,-2.6477,-2.6854,-2.7077,0.0,-2.7077,-2.6565,0.0,0.0,0.0,0.0,0.0,0.0,0.0,0.0,-2.4137,-2.5242,-2.4834,-2.4699,-2.484,-2.4423,-2.4057,-2.3764,-2.3406,-2.2993,-2.2519,-2.1689,-2.1035,0.0,0.0,0.0,0.0,0.0,0.0,0.0,0.0,0.0,0.0,0.0,0.0,0.0,0.0,0.0,0.0,0.0,0.0,0.0,0.0,0.0,0.0,0.0,-1.1921,0.0,0.0,0.0,0.0,0.0,0.0,0.0,0.0,0.0,-1.1329,-1.155,-1.1911,-1.2398,-1.2439,-1.2502,-1.2706,0.0,0.0,0.0,0.0,0.0,0.0,0.0,-0.9679,-0.8959,-0.8236,-0.7487,-0.6826,-0.6374,-0.6029,-0.5905,0.0,0.0,-0.4213,-0.3628,-0.3276,-0.306,-0.2785,-0.2457,-0.214,-0.1801,-0.1527,0.0,0.0,0.0,0.0,0.0,0.0,0.0,0.0,-2.3233,-2.3246,0.0,-2.3803,0.0,0.0,0.0,0.0,0.0,-2.536,0.0,0.0,-2.7115,-2.7607,-2.8097,-2.8134,-2.8147,-2.8122,-2.8122,-2.7833,-2.7243,-2.6214,0.0,0.0,0.0,0.0,0.0,0.0,-2.5503,-2.5954,-2.6034,-2.5943,-2.5547,-2.5158,-2.469,-2.4206,-2.3721,-2.3175,-2.2559,-2.25,-2.1924,-2.0742,-2.0615,0.0,0.0,0.0,0.0,0.0,0.0,0.0,0.0,0.0,0.0,0.0,0.0,0.0,0.0,0.0,0.0,0.0,0.0,0.0,0.0,-1.3426,0.0,0.0,0.0,0.0,0.0,0.0,0.0,0.0,0.0,0.0,-1.202,-1.2171,-1.2476,-1.2777,0.0,0.0,0.0,0.0,-1.2524,-1.2536,-1.2098,-1.1707,-1.1565,-1.0979,-1.0462,-1.0201,0.0,0.0,-0.7464,-0.7285,-0.7118,-0.6856,-0.677,-0.6414,-0.5424,-0.5012,-0.4696,-0.4187,-0.3961,-0.3642,-0.3106,-0.2652,-0.2244,-2.71,0.0,0.0,0.0,0.0,-2.5643,-2.5544,-2.5544,-2.5544,-2.5511,-2.5531,-2.5247,0.0,0.0,0.0,0.0,0.0,0.0,-2.6751,-2.7645,-2.8197,-2.8499,-2.8712,-2.9114,-2.9101,-2.8662,-2.8662,-2.8411,-2.7871,-2.7544,-2.6703,-2.5398,0.0,0.0,0.0,0.0,-2.613,-2.7292,-2.7027,-2.6788,-2.6723,-2.5988,-2.5062,-2.3937,-2.3677,-2.3313,-2.2959,-2.2666,-2.2344,-2.1953,-2.1104,0.0,0.0,0.0,0.0,0.0,0.0,0.0,0.0,0.0,0.0,0.0,0.0,0.0,0.0,0.0,0.0,0.0,0.0,0.0,-1.4656,-1.453,-1.4387,0.0,0.0,0.0,0.0,0.0,0.0,0.0,0.0,0.0,-1.3146,-1.298,-1.306,0.0,0.0,-1.348,-1.348,-1.3366,-1.32,-1.3028,-1.285,0.0,-1.2525,-1.2104,-1.1651,-1.1292,-1.0092,-0.8918,-0.8207,-0.7825,-0.7577,-0.7401,-0.7376,-0.7254,-0.7097,-0.6235,-0.5554,-0.5295,-0.5151,-0.4849,-0.436,-0.4012,-0.367,-2.9492,-2.8694,-2.7905,-2.7538,-2.7503,-2.7258,-2.7153,-2.7153,-2.7153,-2.7153,-2.7092,-2.6753,-2.659,-2.6578,-2.6264,0.0,0.0,0.0,-2.7795,-2.8448,-2.9013,-2.9277,-2.9289,-2.9616,-2.9616,-2.9277,-2.9277,-2.8988,-2.8436,-2.8399,-2.7821,-2.6628,0.0,0.0,-2.6941,-2.6938,-2.7324,-2.8194,-2.8026,-2.7806,-2.758,-2.6475,-2.5316,-2.4133,-2.3787,-2.345,-2.3144,-2.2857,-2.2685,-2.251,-2.1758,-2.1191,0.0,0.0,0.0,0.0,0.0,0.0,0.0,0.0,0.0,0.0,0.0,-1.635,0.0,0.0,0.0,0.0,-1.6446,-1.6391,-1.6385,-1.6324,0.0,0.0,0.0,0.0,0.0,0.0,0.0,-1.4724,-1.4664,-1.4559,-1.4438,-1.4302,-1.4089,-1.3828,-1.3821,-1.382,-1.3933,0.0,-1.358,-1.3567,-1.336,-1.3207,-1.316,-1.2801,-1.2401,-1.204,-1.0993,-1.0074,-0.9676,-0.9177,-0.8744,-0.852,-0.8364,-0.8221,-0.8157,-0.7338,-0.6659,-0.6357,-0.6105,-0.578,-0.5315,-0.5068,-0.4699,-3.1562,-3.075,-2.9296,-2.8642,-2.8529,-2.8321,-2.8247,-2.8235,-2.8247,-2.8247,-2.8235,-2.8185,-2.8147,-2.8109,-2.8109,0.0,-2.8185,-2.8662,-2.89,-2.9013,-2.9553,-2.9779,-2.9779,-2.9779,-2.9779,-2.9779,-2.9829,-2.9578,-2.9051,-2.9076,-2.8863,-2.8386,-2.8323,-2.8273,-2.8197,-2.8624,-2.885,-2.8773,-2.9063,-2.8876,-2.8238,-2.6738,-2.5506,-2.4541,-2.4046,-2.358,-2.3135,-2.3101,-2.2925,-2.2588,-2.25,-2.21,-2.1288,0.0,0.0,0.0,0.0,0.0,0.0,0.0,0.0,0.0,0.0,0.0,0.0,0.0,0.0,0.0,-1.7819,0.0,-1.8582,-1.849,0.0,0.0,0.0,-1.7705,-1.7674,-1.6944,-1.6451,-1.6417,0.0,0.0,-1.5763,-1.5782,-1.5402,-1.4399,-1.424,-1.4291,-1.4522,-1.4102,-1.3848,-1.4122,-1.3707,-1.3427,-1.372,-1.3397,-1.2959,-1.2577,-1.1882,-1.1449,-1.1354,-1.0803,-1.0329,-0.9983,-0.9592,-0.9153,-0.8708,-0.8438,-0.8063,-0.7395,-0.6957,-0.6506,-0.6073,-0.5783,-0.5465,-3.2737,-3.215,-3.1486,-3.0637,-2.9694,-2.9466,-2.939,-2.939,-2.9402,-2.9402,-2.9365,-2.8938,-2.8499,-2.8109,-2.8109,-2.8335,-2.87,-2.8838,-2.9164,-2.9591,-2.9729,-2.9779,-2.9779,-2.9779,-2.9779,-2.9817,-3.0218,-3.0357,-3.0204,-3.0608,-3.0733,-3.0595,-3.0218,-2.9552,-2.8775,-2.8825,-2.9314,-3.0127,-3.0055,-2.9544,-2.8586,-2.7371,-2.6138,-2.4818,-2.4143,-2.358,-2.3135,-2.3101,-2.3052,-2.2935,-2.2383,-2.1943,-2.1738,-2.0986,0.0,0.0,0.0,0.0,0.0,0.0,0.0,0.0,0.0,-1.8492,-1.8847,0.0,-1.8877,0.0,-1.9172,-1.9472,-1.9579,-1.9698,0.0,0.0,-1.9299,-1.9034,-1.9093,-1.8363,-1.7712,-1.7467,-1.7267,-1.6914,-1.6359,-1.6332,-1.6152,-1.5673,-1.5258,-1.4984,-1.4925,-1.48,-1.4669,-1.476,-1.4609,-1.4569,-1.4596,-1.4414,-1.3994,-1.3398,-1.2976,-1.2575,-1.2043,-1.1497,-1.1037,-1.076,-1.0357,-1.0044,-0.9905,-0.9493,-0.91,-0.8658,-0.7904,-0.7183,-0.6866,-0.6624,-0.6343,-3.3685,-3.2804,-3.2487,-3.1768,-3.0798,-3.0335,-3.0168,-3.0143,-2.9905,-2.9779,-2.9779,-2.9465,-2.9139,-2.8863,-2.885,-2.9026,-2.9315,-2.9276,-2.9616,-3.0143,-3.0156,-3.0281,-3.0495,-3.0507,-3.0507,-3.052,-3.0821,-3.0947,-3.0984,-3.1248,-3.1386,-3.1386,-3.1097,-3.0645,-3.0043,-2.9753,-2.9993,-3.0608,-3.0328,-2.978,-2.8969,-2.7683,-2.6389,-2.52,-2.4401,-2.3844,-2.3551,-2.3286,-2.3188,-2.3389,-2.2617,-2.208,-2.1885,-2.124,-2.0576,0.0,0.0,0.0,0.0,0.0,0.0,0.0,0.0,0.0,0.0,0.0,-1.9736,-2.0089,-2.0371,-2.0547,-2.0771,-2.0936,-2.0992,-2.1002,-2.0621,-2.0335,-2.0402,-1.9825,-1.9239,-1.8778,-1.8587,-1.8228,-1.7605,-1.7462,-1.7279,-1.7047,-1.6519,-1.5969,-1.5443,-1.523,-1.5132,-1.5169,-1.5095,-1.5015,-1.5015,-1.4777,-1.4501,-1.4259,-1.3924,-1.354,-1.3129,-1.2689,-1.2261,-1.1979,-1.1479,-1.1081,-1.0941,-1.0538,-1.0065,-0.9663,-0.9071,-0.8401,-0.7793,-0.7482,-0.7196,-3.4707,-3.3436,-3.3093,-3.2628,-3.2024,-3.1208,-3.0783,-3.0683,-3.0206,-3.0005,-3.0005,-3.0005,-2.9993,-2.9993,-2.9993,-2.9993,-2.9993,-3.0031,-3.0256,-3.0696,-3.0708,-3.0959,-3.1386,-3.1386,-3.1386,-3.1386,-3.1461,-3.1499,-3.1499,-3.1574,-3.1653,-3.1599,-3.1537,-3.1499,-3.1474,-3.1047,-3.0821,-3.0781,-3.0419,-2.9992,-2.9446,-2.7882,-2.664,-2.5708,-2.4837,-2.4307,-2.4232,-2.3629,-2.3457,-2.374,-2.3027,-2.2402,-2.1982,-2.1553,-2.0977,0.0,-2.0166,0.0,0.0,0.0,0.0,0.0,0.0,0.0,0.0,-1.9961,-2.0478,-2.122,-2.1327,-2.1522,-2.1934,-2.2021,-2.2051,-2.2041,-2.1813,-2.1644,-2.1586,-2.1165,-2.0722,-2.0167,-1.9874,-1.9554,-1.8988,-1.8781,-1.8542,-1.8226,-1.774,-1.7086,-1.6232,-1.5752,-1.5502,-1.5517,-1.529,-1.5196,-1.513,-1.4968,-1.4858,-1.4975,-1.4754,-1.4462,-1.4381,-1.3932,-1.3559,-1.3253,-1.2708,-1.2205,-1.1915,-1.1484,-1.1042,-1.0641,-1.03,-0.9745,-0.8753,-0.8268,-0.797,-3.6699,-3.5926,-3.4803,-3.4071,-3.3588,-3.2622,-3.1827,-3.1235,-3.1135,-3.1085,-3.1097,-3.1085,-3.1125,-3.1085,-3.1085,-3.1085,-3.1085,-3.1085,-3.1148,-3.1235,-3.1248,-3.1298,-3.1386,-3.1386,-3.1386,-3.1424,-3.1838,-3.2064,-3.2077,-3.2528,-3.2754,-3.2742,-3.229,-3.2051,-3.2051,0.0,0.0,0.0,-3.1676,-3.1132,-3.0275,-2.8822,-2.7596,-2.6666,-2.5764,0.0,-2.4977,-2.4675,-2.4289,-2.3789,-2.331,0.0,0.0,0.0,0.0,0.0,0.0,0.0,0.0,0.0,0.0,0.0,-2.1484,-2.1406,-2.1396,-2.1475,-2.1582,-2.1748,-2.207,-2.2305,-2.2393,-2.2705,-2.2857,-2.2857,-2.2684,-2.2548,-2.2503,-2.1922,-2.1426,-2.1168,-2.0781,-2.0283,-1.9791,-1.9509,-1.9271,-1.9004,-1.8581,-1.8048,-1.7431,-1.674,-1.628,-1.6068,-1.5806,-1.5651,-1.5665,-1.5544,-1.5437,-1.5455,-1.5373,-1.5156,-1.4962,-1.4688,-1.4394,-1.4106,-1.3626,-1.3149,-1.2871,-1.2453,-1.2021,-1.1758,-1.1458,-1.0832,-0.9298,-0.8812,-0.8563,-3.7963,0.0,-3.6324,-3.5387,0.0,-3.3854,-3.3081,-3.2177,-3.1637,-3.1386,-3.1386,-3.1386,-3.1386,-3.1386,-3.1386,-3.1386,-3.1386,-3.1386,-3.1537,-3.1788,-3.18,-3.1951,-3.2269,-3.2227,-3.2227,-3.2282,-3.2503,-3.2641,-3.2654,-3.293,-3.3124,-3.3068,-3.278,-3.2641,-3.2641,-3.2629,-3.2641,-3.2641,-3.1893,-3.1232,-3.0616,-2.935,-2.8236,-2.7437,-2.6759,0.0,0.0,0.0,0.0,0.0,0.0,0.0,0.0,0.0,0.0,-2.2187,-2.2002,-2.1936,-2.1936,-2.1936,-2.1982,-2.2187,-2.2393,-2.2412,-2.2207,-2.2197,-2.2285,-2.249,-2.2705,-2.2822,-2.2779,-2.2974,-2.3101,-2.3091,-2.3003,-2.2925,-2.2803,-2.2495,-2.2087,-2.1776,-2.141,-2.106,-2.0699,-2.0337,-2.0056,-1.9783,-1.9325,-1.8858,-1.8303,-1.7466,-1.6824,-1.6312,-1.6123,-1.5927,-1.5832,-1.5825,-1.5784,-1.5683,-1.5635,-1.5547,-1.5363,-1.5213,-1.5022,-1.4736,-1.4346,-1.4004,-1.3721,-1.3383,-1.3039,-1.2613,-1.237,-1.1876,-1.0728,-0.9927,-0.9276,-3.8865,-3.8058,-3.7454,-3.6422,-3.5146,-3.4868,-3.4221,-3.3294,0.0,0.0,0.0,-3.1687,-3.1687,-3.1687,-3.1687,-3.1687,-3.1687,-3.1675,-3.1938,-3.2353,-3.2365,-3.2616,-3.3111,-3.3124,-3.3124,-3.3124,-3.3124,-3.3124,-3.3124,-3.3124,-3.3124,-3.3136,-3.3181,-3.3282,-3.3357,-3.337,-3.337,-3.3307,-3.1997,-3.1179,-3.0988,-2.9896,-2.9006,-2.8376,-2.7917,-2.7519,-2.7161,-2.6136,-2.5567,-2.5464,-2.4588,-2.402,-2.3887,-2.3232,-2.2852,-2.2832,-2.2529,-2.2334,-2.2334,-2.2334,-2.248,-2.2832,-2.312,-2.3101,-2.2623,-2.2617,-2.2721,-2.3071,-2.3101,-2.3091,-2.3101,-2.3101,-2.3101,-2.3101,-2.3101,-2.3013,-2.2882,-2.2794,-2.2618,-2.2274,-2.1998,-2.1741,-2.1526,-2.1159,-2.0789,-2.051,-2.0056,-1.9509,-1.8819,-1.7893,-1.7052,-1.6501,-1.6272,-1.6123,-1.5933,-1.5825,-1.5825,-1.5778,-1.5778,-1.5737,-1.5588,-1.554,-1.5452,-1.522,-1.4981,-1.4736,-1.4496,-1.4196,-1.3908,-1.3383,-1.3147,-1.2802,-1.2224,-1.1287,-1.0347,-3.9536,-3.8847,-3.7675,-3.6721,-3.5905,-3.5491,-3.4965,-3.4399,-3.3307,-3.2842,-3.2842,-3.2842,-3.2885,-3.2885,-3.2885,-3.2872,-3.2842,-3.2885,-3.2923,-3.2955,-3.2943,-3.3036,-3.3124,-3.3124,-3.3124,-3.3124,-3.3124,-3.3124,-3.3124,-3.3136,-3.3124,-3.3199,-3.3545,-3.4022,-3.4462,-3.4487,-3.4487,-3.4462,-3.2875,-3.1934,-3.1737,-3.0942,-3.0434,-3.0099,-2.9297,-2.8644,-2.8186,-2.7406,-2.6533,-2.557,-2.5337,-2.496,-2.4355,-2.4209,-2.415,-2.415,-2.4092,-2.4062,-2.4043,-2.4062,-2.4082,-2.4141,-2.4209,-2.3896,-2.3091,-2.3013,-2.3033,-2.3101,-2.3101,-2.3101,-2.3101,-2.3101,-2.3101,-2.3101,-2.3101,-2.3101,-2.3057,-2.2925,-2.2803,-2.2671,-2.2485,-2.222,-2.2008,-2.1741,-2.1472,-2.1212,-2.0564,-1.9828,-1.8966,-1.7932,-1.7239,-1.6878,-1.6508,-1.6224,-1.6123,-1.5927,-1.5825,-1.5825,-1.5825,-1.5784,-1.573,-1.573,-1.5635,-1.5493,-1.5397,-1.5261,-1.5029,-1.479,-1.449,-1.4148,-1.3913,-1.3522,-1.3044,-1.2414,-1.1668,-4.0196,-3.9497,-3.8529,-3.7506,-3.6496,-3.5468,-3.4906,-3.4675,-3.4186,-3.396,-3.396,-3.3972,-3.3809,-3.3533,-3.352,-3.3357,-3.3124,-3.3124,-3.3124,-3.3124,-3.3124,-3.3124,-3.3149,-3.3382,-3.352,-3.3545,-3.3834,-3.3972,-3.3972,-3.3972,-3.3972,-3.3997,-3.4223,-3.4462,-3.4713,-3.468,-3.468,-3.47,-3.3382,-3.2649,-3.2509,-3.1677,-3.104,-3.0671,-3.0155,-2.9557,-2.8817,-2.8092,-2.7243,-2.629,-2.5994,-2.5619,-2.5146,-2.4902,-2.4766,-2.4766,-2.4541,-2.4424,-2.4424,-2.4424,-2.4424,-2.4424,-2.4424,-2.4258,-2.3832,-2.3623,-2.3389,-2.313,-2.3101,-2.3101,-2.3101,-2.3101,-2.3101,-2.3101,-2.3101,-2.3101,-2.3091,-2.3013,-2.296,-2.2925,-2.275,-2.2574,-2.2495,-2.222,-2.1919,-2.1562,-2.0835,-2.0056,-1.9325,-1.8589,-1.7846,-1.7246,-1.6737,-1.6414,-1.6218,-1.5974,-1.5825,-1.5825,-1.5825,-1.5825,-1.5825,-1.5825,-1.5778,-1.5689,-1.5635,-1.5588,-1.5363,-1.5213,-1.5022,-1.4783,-1.4394,-1.401,-1.3721,-1.3195,-1.2224,-4.0574,-3.9851,-3.9176,-3.8179,-3.6936,-3.5631,-3.509,-3.509,-3.5102,-3.509,-3.5064,-3.4839,-3.4487,-3.411,-3.4085,-3.3859,-3.3483,-3.3445,-3.3445,-3.3445,-3.3445,-3.3445,-3.3483,-3.3897,-3.4085,-3.4123,-3.4525,-3.468,-3.468,-3.468,-3.4743,-3.4843,-3.4868,-3.4919,-3.509,-3.509,-3.509,-3.5027,-3.4123,-3.3571,-3.3432,-3.2575,-3.1907,-3.154,-3.1201,-3.0503,-2.9491,-2.8676,-2.782,-2.6965,-2.6438,-2.6062,-2.5723,-2.541,-2.5225,-2.5185,-2.4902,-2.4717,-2.467,-2.467,-2.4717,-2.4717,-2.4707,-2.4668,-2.4551,-2.4268,-2.3896,-2.3471,-2.3422,-2.3413,-2.3432,-2.3413,-2.3383,-2.3383,-2.3383,-2.3422,-2.3393,-2.3383,-2.3335,-2.3276,-2.3124,-2.3017,-2.2876,-2.2662,-2.2264,-2.1696,-2.106,-2.0419,-1.9828,-1.9325,-1.8581,-1.7792,-1.7091,-1.6676,-1.6359,-1.6076,-1.5879,-1.5825,-1.5825,-1.5825,-1.5825,-1.5825,-1.5825,-1.5784,-1.5778,-1.573,-1.5588,-1.554,-1.5452,-1.522,-1.4879,-1.4532,-1.425,-1.3624,-1.2662,-4.0488,-3.9604,-3.9118,-3.8206,-3.7052,-3.6429,-3.6216,-3.6216,-3.6254,-3.6254,-3.6116,-3.5165,-3.4713,-3.4663,-3.465,-3.4587,-3.4525,-3.4517,-3.4537,-3.4537,-3.4575,-3.4562,-3.4512,-3.4625,-3.4605,-3.4605,-3.4738,-3.4826,-3.4781,-3.4743,-3.4989,-3.537,-3.5433,-3.5705,-3.6132,-3.6229,-3.6241,-3.6241,-3.5629,-3.5031,-3.4555,-3.4242,-3.3946,-3.3731,-3.2766,-3.1751,-3.0461,-2.9533,-2.8386,-2.7044,-2.6651,-2.6217,-2.5791,-2.5645,-2.5615,-2.5664,-2.5567,-2.5615,-2.5547,-2.5567,-2.5528,-2.5567,-2.5518,-2.541,-2.5049,-2.5018,-2.4756,-2.4394,-2.4251,-2.4238,-2.4251,-2.4258,-2.4209,-2.418,-2.4209,-2.4307,-2.4238,-2.4297,-2.4114,-2.3769,-2.3686,-2.3539,-2.3232,-2.2944,-2.2552,-2.1994,-2.1743,-2.1247,-2.0457,-1.9908,-1.9315,-1.8481,-1.7761,-1.7113,-1.6643,-1.6353,-1.6076,-1.5879,-1.5825,-1.5825,-1.5825,-1.5825,-1.5825,-1.5825,-1.5825,-1.5778,-1.5778,-1.5778,-1.5683,-1.5499,-1.5309,-1.5159,-1.4484,-1.4004,-1.3281,-4.0548,-3.956,-3.8966,-3.8063,-3.7108,-3.6593,-3.6417,-3.6417,-3.6417,-3.6417,-3.6367,-3.5881,-3.5516,-3.5182,-3.5169,-3.4994,-3.468,-3.468,-3.468,-3.468,-3.468,-3.468,-3.4705,-3.5031,-3.5169,-3.5207,-3.5529,-3.5692,-3.5692,-3.568,-3.5818,-3.6006,-3.6031,-3.6157,-3.6405,-3.6417,-3.6417,-3.6405,-3.6144,-3.5918,-3.5596,-3.464,-3.3986,-3.3698,-3.2945,-3.2065,-3.1113,-3.023,-2.9262,-2.8185,-2.7362,-2.6752,-2.635,-2.5928,-2.5684,-2.5684,-2.5684,-2.5684,-2.5684,-2.5684,-2.5684,-2.5684,-2.5684,-2.5654,-2.5488,-2.5459,-2.5371,-2.5185,-2.4727,-2.4424,-2.4434,-2.4424,-2.4424,-2.4424,-2.4424,-2.4434,-2.4424,-2.4424,-2.4336,-2.418,-2.416,-2.4102,-2.39,-2.367,-2.3408,-2.2942,-2.2658,-2.2124,-2.1308,-2.0763,-2.0107,-1.9224,-1.8471,-1.7672,-1.6826,-1.6353,-1.6123,-1.5879,-1.5825,-1.5825,-1.5825,-1.5825,-1.5825,-1.5825,-1.5825,-1.5825,-1.5778,-1.5825,-1.5778,-1.5635,-1.554,-1.535,-1.4885,-1.4442,-1.3913,-4.0849,-3.9798,-3.885,-3.7866,-3.6956,-3.6546,-3.6417,-3.6417,-3.6417,-3.6417,-3.6417,-3.6417,-3.6144,-3.5805,-3.5768,-3.5542,-3.5203,-3.5177,-3.5165,-3.5177,-3.5165,-3.5177,-3.5215,-3.5554,-3.5768,-3.5818,-3.6157,-3.6405,-3.6417,-3.6417,-3.6417,-3.6417,-3.6417,-3.6417,-3.6417,-3.6417,-3.6417,-3.6417,-3.6417,-3.6417,-3.6197,-3.5139,-3.4348,-3.409,-3.3339,-3.2567,-3.1746,-3.0825,-2.9975,-2.9034,-2.795,-2.7242,-2.6963,-2.6291,-2.582,-2.5703,-2.5684,-2.5684,-2.5684,-2.5684,-2.5684,-2.5684,-2.5684,-2.5684,-2.5684,-2.5684,-2.5684,-2.5625,-2.5109,-2.4758,-2.4738,-2.4775,-2.4775,-2.4729,-2.4729,-2.4785,-2.4758,-2.4729,-2.4756,-2.4629,-2.46,-2.4531,-2.4397,-2.4246,-2.4042,-2.3764,-2.342,-2.2933,-2.2167,-2.157,-2.0912,-1.9861,-1.92,-1.8258,-1.7018,-1.6494,-1.6211,-1.5927,-1.5825,-1.5825,-1.5825,-1.5825,-1.5825,-1.5825,-1.5825,-1.5825,-1.5825,-1.5825,-1.5825,-1.5778,-1.5683,-1.5493,-1.5213,-1.4873,-1.4586,-4.1338,-4.0428,-3.8778,-3.7599,-3.6734,-3.6524,-3.643,-3.6468,-3.6417,-3.6417,-3.6417,-3.6417,-3.6392,-3.6342,-3.6317,-3.6342,-3.6292,-3.6254,-3.6229,-3.6229,-3.6267,-3.6304,-3.6329,-3.6355,-3.6355,-3.6292,-3.6355,-3.6417,-3.6417,-3.6417,-3.6417,-3.6417,-3.6417,-3.6417,-3.6417,-3.6417,-3.6417,-3.6417,-3.6417,-3.6417,-3.6358,-3.5821,-3.5425,-3.5317,-3.4508,-3.3455,-3.2474,-3.1412,-3.032,-2.9076,-2.8257,-2.7683,-2.739,-2.6732,-2.6182,-2.5771,-2.5703,-2.5693,-2.5693,-2.5684,-2.5684,-2.5684,-2.5684,-2.5684,-2.5684,-2.5684,-2.5684,-2.5674,-2.5596,-2.5528,-2.5528,-2.546,-2.5508,-2.5528,-2.5567,-2.5567,-2.5577,-2.5489,-2.5459,-2.5146,-2.5039,-2.4922,-2.4531,-2.4368,-2.4382,-2.4159,-2.3879,-2.343,-2.2767,-2.2152,-2.1408,-2.0547,-1.9756,-1.8906,-1.7381,-1.6831,-1.6456,-1.6082,-1.5925,-1.5845,-1.5832,-1.5825,-1.5832,-1.5832,-1.5825,-1.5825,-1.5825,-1.5825,-1.5825,-1.5778,-1.5778,-1.5635,-1.5493,-1.5499,-1.5213,-4.1281,-3.9881,-3.892,-3.8232,-3.7726,-3.7192,-3.6885,-3.6895,-3.6543,-3.6417,-3.6417,-3.6417,-3.6417,-3.6417,-3.6417,-3.6417,-3.6417,-3.6417,-3.6417,-3.6417,-3.6417,-3.6417,-3.6417,-3.6417,-3.6417,-3.6417,-3.6417,-3.6417,-3.6417,-3.6417,-3.6417,-3.6417,-3.6417,-3.6417,-3.6417,-3.6417,-3.6417,-3.6417,-3.6417,-3.6417,-3.637,-3.5895,-3.5633,-3.5572,-3.4652,-3.3735,-3.2982,-3.1923,-3.0976,-3.0164,-2.8962,-2.8185,-2.8043,-2.7266,-2.6602,-2.6211,-2.6152,-2.6035,-2.5781,-2.5684,-2.5684,-2.5684,-2.5684,-2.5684,-2.5684,-2.5684,-2.5684,-2.5684,-2.5684,-2.5684,-2.5684,-2.5684,-2.5684,-2.5684,-2.5684,-2.5684,-2.5684,-2.5684,-2.5615,-2.5479,-2.5488,-2.541,-2.5216,-2.5206,-2.512,-2.4919,-2.4622,-2.4208,-2.3636,-2.2952,-2.216,-2.1286,-2.0383,-1.941,-1.8342,-1.7581,-1.6995,-1.6435,-1.6112,-1.5999,-1.5952,-1.5919,-1.5919,-1.5899,-1.5872,-1.5852,-1.5858,-1.5825,-1.5825,-1.5825,-1.5825,-1.5778,-1.573,-1.5642,-1.5452,-4.1242,-3.9644,-3.9216,-3.8758,-3.8223,-3.7698,-3.745,-3.7412,-3.7048,-3.6832,-3.6694,-3.6621,-3.6593,-3.643,-3.6417,-3.6417,-3.6417,-3.6417,-3.6417,-3.6417,-3.6417,-3.6417,-3.6417,-3.6417,-3.6417,-3.6417,-3.6417,-3.6417,-3.6417,-3.6417,-3.6417,-3.6417,-3.6417,-3.6417,-3.6417,-3.6417,-3.6417,-3.6417,-3.6417,-3.6417,-3.6323,-3.5895,-3.5633,-3.5476,-3.4604,-3.3817,-3.3197,-3.2179,-3.1322,-3.0733,-2.9424,-2.8577,-2.8219,-2.7589,-2.7031,-2.665,-2.6592,-2.6465,-2.6132,-2.5976,-2.5947,-2.5928,-2.5762,-2.5684,-2.5684,-2.5684,-2.5684,-2.5684,-2.5684,-2.5684,-2.5684,-2.5684,-2.5684,-2.5684,-2.5684,-2.5684,-2.5684,-2.5684,-2.5684,-2.5664,-2.5654,-2.5664,-2.5684,-2.5664,-2.5606,-2.544,-2.5137,-2.4726,-2.4233,-2.3569,-2.2767,-2.1903,-2.0911,-2.0019,-1.9059,-1.8297,-1.7498,-1.6907,-1.6469,-1.6266,-1.6152,-1.6099,-1.6039,-1.5992,-1.5945,-1.5912,-1.5879,-1.5838,-1.5825,-1.5825,-1.5825,-1.5778,-1.573,-1.5689,-1.5547,-4.1143,-3.9796,-3.9671,-3.9079,-3.824,-3.8065,-3.8015,-3.8002,-3.7939,-3.7588,-3.7211,-3.7186,-3.6948,-3.6581,-3.6543,-3.6455,-3.6493,-3.6443,-3.6417,-3.6417,-3.6417,-3.6417,-3.6417,-3.6417,-3.6417,-3.6417,-3.6417,-3.6417,-3.6417,-3.6417,-3.6417,-3.6417,-3.6417,-3.6417,-3.6417,-3.6417,-3.6417,-3.6417,-3.6417,-3.6417,-3.6323,-3.5895,-3.5633,-3.5524,-3.4652,-3.3817,-3.3208,-3.219,-3.1384,-3.0776,-2.9691,-2.8668,-2.7931,-2.7728,-2.7471,-2.71,-2.7012,-2.7012,-2.6924,-2.6592,-2.6387,-2.6338,-2.6016,-2.5762,-2.582,-2.5713,-2.5684,-2.5684,-2.5684,-2.5684,-2.5684,-2.5684,-2.5684,-2.5684,-2.5684,-2.5684,-2.5684,-2.5684,-2.5684,-2.5684,-2.5684,-2.5684,-2.5684,-2.5684,-2.5684,-2.5577,-2.5235,-2.4833,-2.4489,-2.3836,-2.3029,-2.2249,-2.133,-2.0429,-1.9678,-1.8939,-1.8119,-1.7362,-1.6924,-1.664,-1.6533,-1.646,-1.6373,-1.6313,-1.6159,-1.6112,-1.5972,-1.5932,-1.5838,-1.5825,-1.5825,-1.5832,-1.5778,-1.5737,-1.5689,-4.1043,-4.0248,-4.0032,-3.9677,-3.9158,-3.8768,-3.8592,-3.8542,-3.8203,-3.7914,-3.7764,-3.7751,-3.7651,-3.7425,-3.7111,-3.6983,-3.6897,-3.6606,-3.6417,-3.643,-3.6417,-3.6417,-3.6417,-3.6417,-3.6417,-3.6417,-3.6417,-3.6417,-3.6417,-3.6417,-3.6417,-3.6417,-3.6417,-3.6417,-3.6417,-3.6417,-3.6417,-3.6417,-3.6417,-3.6417,-3.6358,-3.5895,-3.562,-3.5476,-3.4652,-3.3817,-3.3208,-3.2179,-3.1373,-3.0838,-2.9711,-2.8797,-2.8274,-2.8096,-2.7891,-2.7529,-2.7461,-2.7305,-2.7041,-2.6914,-2.6816,-2.6748,-2.6426,-2.6221,-2.6143,-2.5869,-2.5732,-2.5703,-2.5684,-2.5684,-2.5684,-2.5684,-2.5684,-2.5684,-2.5684,-2.5684,-2.5684,-2.5684,-2.5684,-2.5684,-2.5684,-2.5684,-2.5684,-2.5684,-2.5684,-2.5635,-2.5245,-2.4833,-2.4686,-2.3945,-2.3188,-2.2476,-2.1573,-2.0712,-1.9931,-1.9146,-1.8351,-1.7723,-1.735,-1.6981,-1.6887,-1.6827,-1.6734,-1.6587,-1.6433,-1.6286,-1.6139,-1.6046,-1.5985,-1.5872,-1.5824,-1.5811,-1.5832,-1.5778,-1.573,-4.0909,-4.0351,-4.0185,-3.9942,-3.9672,-3.9308,-3.9221,-3.9132,-3.8806,-3.853,-3.8366,-3.8329,-3.8203,-3.7977,-3.7638,-3.75,-3.745,-3.7111,-3.686,-3.6694,-3.6468,-3.6417,-3.6417,-3.6417,-3.6417,-3.6417,-3.6417,-3.6417,-3.6417,-3.6417,-3.6417,-3.6417,-3.6417,-3.6417,-3.6417,-3.6417,-3.6417,-3.6417,-3.6417,-3.6417,-3.631,-3.5895,-3.5572,-3.532,-3.4555,-3.3767,-3.3047,-3.2128,-3.1384,-3.0724,-2.9722,-2.8867,-2.8344,-2.8281,-2.8174,-2.7978,-2.7881,-2.7773,-2.7519,-2.7363,-2.7256,-2.7187,-2.6865,-2.6631,-2.6572,-2.6328,-2.6171,-2.6161,-2.6035,-2.5927,-2.5977,-2.5762,-2.5693,-2.5684,-2.5684,-2.5684,-2.5684,-2.5684,-2.5684,-2.5684,-2.5684,-2.5684,-2.5684,-2.5684,-2.5684,-2.5635,-2.5235,-2.4892,-2.4695,-2.4053,-2.3288,-2.2476,-2.1573,-2.0806,-2.013,-1.9354,-1.8527,-1.8064,-1.7707,-1.7392,-1.7194,-1.7174,-1.7114,-1.6874,-1.6744,-1.6547,-1.6406,-1.6339,-1.6266,-1.6126,-1.5937,-1.5945,-1.5932,-1.5845,-1.5778,-4.0795,-4.0134,-4.0083,-3.9929,-3.9697,-3.9659,-3.9622,-3.9659,-3.9634,-3.9333,-3.8969,-3.8906,-3.8655,-3.8216,-3.8128,-3.8065,-3.8027,-3.7889,-3.7613,-3.7199,-3.681,-3.6606,-3.643,-3.6417,-3.6417,-3.6417,-3.6417,-3.6417,-3.6417,-3.6417,-3.6417,-3.6417,-3.6417,-3.6417,-3.6417,-3.6417,-3.6417,-3.6417,-3.6417,-3.6417,-3.631,-3.5895,-3.5476,-3.5175,-3.4445,-3.3656,-3.2857,-3.1924,-3.1219,-3.062,-2.9606,-2.8867,-2.8398,-2.8301,-2.8271,-2.8242,-2.8281,-2.8252,-2.8174,-2.7881,-2.7757,-2.7666,-2.7314,-2.7051,-2.7031,-2.6924,-2.6846,-2.6846,-2.6602,-2.6416,-2.6348,-2.6093,-2.5869,-2.5732,-2.5732,-2.5693,-2.5684,-2.5684,-2.5684,-2.5684,-2.5684,-2.5684,-2.5684,-2.5684,-2.5684,-2.5586,-2.5235,-2.499,-2.4695,-2.4093,-2.3238,-2.2434,-2.1573,-2.0806,-2.013,-1.9198,-1.8422,-1.8244,-1.7928,-1.7625,-1.7415,-1.7408,-1.7402,-1.7174,-1.6998,-1.6807,-1.6687,-1.6607,-1.65,-1.6359,-1.6233,-1.6126,-1.6039,-1.5972,-1.5885,-4.0453,-4.0083,-3.989,-3.98,-3.9697,-3.9697,-3.9697,-3.9697,-3.9697,-3.9609,-3.9471,-3.9471,-3.9358,-3.9207,-3.8806,-3.8642,-3.8567,-3.8228,-3.7952,-3.7801,-3.7676,-3.7061,-3.6543,-3.643,-3.643,-3.6443,-3.6468,-3.6417,-3.6417,-3.6417,-3.6417,-3.6417,-3.6417,-3.6417,-3.6417,-3.6417,-3.6417,-3.6417,-3.6417,-3.6275,-3.6098,-3.5764,-3.5368,-3.4884,-3.415,-3.3446,-3.2706,-3.1465,-3.0328,-2.9617,-2.929,-2.8867,-2.8344,-2.8301,-2.8301,-2.8301,-2.8301,-2.8301,-2.8271,-2.8184,-2.8125,-2.8096,-2.7725,-2.7552,-2.748,-2.7197,-2.706,-2.7002,-2.6885,-2.6846,-2.6836,-2.6719,-2.6533,-2.623,-2.5947,-2.5742,-2.5684,-2.5684,-2.5684,-2.5684,-2.5684,-2.5684,-2.5684,-2.5684,-2.5684,-2.5635,-2.5294,-2.4892,-2.4686,-2.4044,-2.3188,-2.2426,-2.1615,-2.0858,-2.0034,-1.9042,-1.8415,-1.8318,-1.8035,-1.766,-1.7528,-1.7522,-1.7522,-1.7442,-1.7266,-1.7048,-1.6941,-1.6904,-1.672,-1.6633,-1.6567,-1.6486,-1.6293,-1.6228,-1.6039,-4.0185,-3.9942,-3.9736,-3.9697,-3.9697,-3.9697,-3.9697,-3.9697,-3.9697,-3.9697,-3.9697,-3.9697,-3.9697,-3.9659,-3.9346,-3.922,-3.917,-3.8868,-3.8605,-3.8316,-3.809,-3.7626,-3.7174,-3.7096,-3.6935,-3.6757,-3.6757,-3.6631,-3.6455,-3.6417,-3.6417,-3.6417,-3.6417,-3.6417,-3.6417,-3.6417,-3.6417,-3.637,-3.6323,-3.6133,-3.6015,-3.5524,-3.4969,-3.4433,-3.3793,-3.3108,-3.2139,-3.0909,-2.9879,-2.9237,-2.8983,-2.8717,-2.8344,-2.8301,-2.8301,-2.8301,-2.8301,-2.8301,-2.8301,-2.8301,-2.8301,-2.8262,-2.8027,-2.7959,-2.79,-2.7685,-2.7549,-2.7578,-2.7402,-2.7305,-2.7246,-2.7129,-2.6914,-2.667,-2.6416,-2.6074,-2.5762,-2.5684,-2.5684,-2.5684,-2.5684,-2.5684,-2.5684,-2.5684,-2.5684,-2.5586,-2.5235,-2.5039,-2.4794,-2.3945,-2.3138,-2.2476,-2.1666,-2.0806,-2.0034,-1.9094,-1.8415,-1.8258,-1.8003,-1.7641,-1.7589,-1.7589,-1.7575,-1.7588,-1.746,-1.736,-1.7259,-1.7186,-1.7132,-1.7058,-1.6941,-1.6787,-1.663,-1.6502,-1.6306,-3.9942,-3.9697,-3.9697,-3.9697,-3.9697,-3.9697,-3.9697,-3.9697,-3.9697,-3.9697,-3.9697,-3.9697,-3.9697,-3.9697,-3.9622,-3.9672,-3.9659,-3.9534,-3.9333,-3.8931,-3.8567,-3.8228,-3.8203,-3.7877,-3.7626,-3.7324,-3.7274,-3.7036,-3.687,-3.6694,-3.6644,-3.6744,-3.6707,-3.6631,-3.6769,-3.6694,-3.6558,-3.6576,-3.6507,-3.6193,-3.5878,-3.5296,-3.4662,-3.3953,-3.3258,-3.2353,-3.1281,-3.0349,-2.9669,-2.9079,-2.8834,-2.8621,-2.8354,-2.8301,-2.8301,-2.8301,-2.8301,-2.8301,-2.8301,-2.8301,-2.8301,-2.8281,-2.8281,-2.8301,-2.8232,-2.8164,-2.8144,-2.8135,-2.793,-2.7764,-2.7695,-2.7393,-2.7207,-2.7109,-2.7051,-2.668,-2.6103,-2.5791,-2.5762,-2.5791,-2.5742,-2.5684,-2.5684,-2.5684,-2.5684,-2.5635,-2.5284,-2.499,-2.4646,-2.3994,-2.3238,-2.2526,-2.1666,-2.0763,-1.9931,-1.9146,-1.8572,-1.8153,-1.7898,-1.7589,-1.7589,-1.7589,-1.7589,-1.7542,-1.7527,-1.7521,-1.7534,-1.7481,-1.742,-1.7367,-1.7259,-1.7027,-1.6847,-1.6831,-1.6667,-3.9942,-3.9697,-3.9697,-3.9697,-3.9697,-3.9697,-3.9697,-3.9697,-3.9697,-3.9697,-3.9697,-3.9697,-3.9697,-3.9697,-3.9697,-3.9697,-3.9697,-3.9697,-3.9609,-3.9546,-3.9433,-3.9333,-3.9107,-3.8517,-3.799,-3.7839,-3.7839,-3.7751,-3.7626,-3.7525,-3.7638,-3.7588,-3.7487,-3.7626,-3.7575,-3.7451,-3.7504,-3.7369,-3.7196,-3.6591,-3.5781,-3.5276,-3.4513,-3.3523,-3.2538,-3.1446,-3.0464,-2.9879,-2.9406,-2.894,-2.8727,-2.8568,-2.8354,-2.8301,-2.8301,-2.8301,-2.8301,-2.8301,-2.8301,-2.8301,-2.8301,-2.8301,-2.8301,-2.8301,-2.8301,-2.8301,-2.8301,-2.8291,-2.8203,-2.8115,-2.8096,-2.8066,-2.7822,-2.7598,-2.751,-2.7334,-2.6826,-2.6445,-2.6269,-2.6191,-2.5957,-2.5693,-2.5693,-2.5693,-2.5693,-2.5635,-2.5342,-2.499,-2.4489,-2.3994,-2.3288,-2.2577,-2.1623,-2.0712,-2.0034,-1.9198,-1.8475,-1.8055,-1.7793,-1.7589,-1.7589,-1.7589,-1.7589,-1.7589,-1.7575,-1.7589,-1.7589,-1.7582,-1.7541,-1.7527,-1.7501,-1.7333,-1.7141,-1.7139,-1.7025,-3.9839,-3.9697,-3.9697,-3.9697,-3.9697,-3.9697,-3.9697,-3.9697,-3.9697,-3.9697,-3.9697,-3.9697,-3.9697,-3.9697,-3.9697,-3.9697,-3.9697,-3.9697,-3.9697,-3.9685,-3.9672,-3.9685,-3.9647,-3.9132,-3.8705,-3.8467,-3.8417,-3.8304,-3.8078,-3.8027,-3.7939,-3.8002,-3.8027,-3.7927,-3.7953,-3.7891,-3.768,-3.7494,-3.718,-3.6607,-3.5812,-3.5208,-3.4273,-3.2953,-3.1802,-3.0758,-3.0067,-2.9459,-2.9046,-2.8727,-2.8578,-2.8461,-2.8354,-2.8301,-2.8301,-2.8301,-2.8301,-2.8301,-2.8301,-2.8301,-2.8301,-2.8301,-2.8301,-2.8301,-2.8301,-2.8301,-2.8301,-2.8301,-2.8291,-2.8291,-2.8301,-2.8291,-2.8135,-2.8037,-2.7949,-2.7851,-2.7568,-2.707,-2.668,-2.6602,-2.6318,-2.6133,-2.6025,-2.5928,-2.5723,-2.5684,-2.5245,-2.4892,-2.4637,-2.4093,-2.3288,-2.2485,-2.1522,-2.0712,-2.0034,-1.925,-1.8318,-1.795,-1.7687,-1.7589,-1.7589,-1.7589,-1.7589,-1.7589,-1.7589,-1.7589,-1.7589,-1.7589,-1.7589,-1.7608,-1.7561,-1.7514,-1.7415,-1.74,-1.7253,-3.9697,-3.9697,-3.9697,-3.9697,-3.9697,-3.9697,-3.9697,-3.9697,-3.9697,-3.9697,-3.9697,-3.9697,-3.9697,-3.9697,-3.9697,-3.9697,-3.9697,-3.9697,-3.9697,-3.9697,-3.9697,-3.9697,-3.9647,-3.9546,-3.9358,-3.9082,-3.8994,-3.873,-3.8467,-3.8278,-3.8479,-3.8329,-3.8304,-3.8392,-3.8241,-3.7991,-3.7864,-3.7649,-3.7139,-3.643,-3.5761,-3.5011,-3.3829,-3.2305,-3.1466,-3.0563,-2.9903,-2.9303,-2.8763,-2.8631,-2.8408,-2.8301,-2.8301,-2.8301,-2.8301,-2.8301,-2.8301,-2.8301,-2.8301,-2.8301,-2.8301,-2.8301,-2.8301,-2.8301,-2.8301,-2.8301,-2.8301,-2.8301,-2.8301,-2.8301,-2.8301,-2.8301,-2.8301,-2.8262,-2.8281,-2.8301,-2.8174,-2.7617,-2.7314,-2.7051,-2.6758,-2.6514,-2.6348,-2.6211,-2.5996,-2.5723,-2.5244,-2.4852,-2.4616,-2.4102,-2.3306,-2.2485,-2.1522,-2.0241,-1.9509,-1.9146,-1.8265,-1.7845,-1.7589,-1.7589,-1.7589,-1.7589,-1.7589,-1.7589,-1.7589,-1.7589,-1.7589,-1.7589,-1.7589,-1.7589,-1.7569,-1.7528,-1.7542,-1.7582,-1.7467,-3.9697,-3.9697,-3.9697,-3.9697,-3.9697,-3.9697,-3.9697,-3.9697,-3.9697,-3.9697,-3.9697,-3.9697,-3.9697,-3.9697,-3.9697,-3.9697,-3.9697,-3.9697,-3.9697,-3.9697,-3.9697,-3.9697,-3.9697,-3.9697,-3.9622,-3.9609,-3.9521,-3.9383,-3.9346,-3.9421,-3.922,-3.9346,-3.932,-3.9193,-3.9014,-3.8972,-3.8411,-3.7818,-3.7307,-3.6649,-3.561,-3.46,-3.3431,-3.1843,-3.1291,-3.0618,-2.9762,-2.9371,-2.9006,-2.8447,-2.8354,-2.831,-2.833,-2.833,-2.8301,-2.8301,-2.8301,-2.8301,-2.8301,-2.8301,-2.8301,-2.8301,-2.8301,-2.8301,-2.8301,-2.8301,-2.8301,-2.8301,-2.8301,-2.8301,-2.8301,-2.8301,-2.8301,-2.8301,-2.8301,-2.8301,-2.8252,-2.8096,-2.7832,-2.7578,-2.7217,-2.6894,-2.6768,-2.6592,-2.6377,-2.6062,-2.5618,-2.5187,-2.4876,-2.4135,-2.3282,-2.2409,-2.1573,-2.0181,-1.8833,-1.8677,-1.8213,-1.7845,-1.7589,-1.7589,-1.7589,-1.7589,-1.7589,-1.7589,-1.7589,-1.7589,-1.7589,-1.7589,-1.7589,-1.7589,-1.7589,-1.7589,-1.7589,-1.7589,-1.7589,-3.9697,-3.9697,-3.9697,-3.9697,-3.9697,-3.9697,-3.9697,-3.9697,-3.9697,-3.9697,-3.9697,-3.9697,-3.9697,-3.9697,-3.9697,-3.9697,-3.9697,-3.9697,-3.9697,-3.9697,-3.9697,-3.9697,-3.9697,-3.9697,-3.9697,-3.9697,-3.9697,-3.9697,-3.9697,-3.9672,-3.9697,-3.962,-3.9581,-3.9426,-3.9206,-3.8739,-3.8356,-3.7761,-3.7215,-3.6356,-3.5194,-3.4064,-3.272,-3.1972,-3.1182,-3.0525,-2.9928,-2.9544,-2.9345,-2.9019,-2.875,-2.8643,-2.8564,-2.8437,-2.831,-2.831,-2.8301,-2.8301,-2.8301,-2.8301,-2.8301,-2.8301,-2.8301,-2.8301,-2.8301,-2.8301,-2.8301,-2.8301,-2.8301,-2.8301,-2.8301,-2.8301,-2.8301,-2.8301,-2.8301,-2.8301,-2.8301,-2.8301,-2.8154,-2.7949,-2.7627,-2.7363,-2.7275,-2.707,-2.6807,-2.642,-2.5973,-2.5531,-2.5133,-2.4295,-2.336,-2.2173,-2.1229,-2.0005,-1.8757,-1.837,-1.816,-1.7793,-1.7589,-1.7589,-1.7589,-1.7589,-1.7589,-1.7589,-1.7589,-1.7589,-1.7589,-1.7589,-1.7589,-1.7589,-1.7589,-1.7589,-1.7589,-1.7589,-1.7589,-3.9697,-3.9697,-3.9697,-3.9697,-3.9697,-3.9697,-3.9697,-3.9697,-3.9697,-3.9697,-3.9697,-3.9697,-3.9697,-3.9697,-3.9697,-3.9697,-3.9697,-3.9697,-3.9697,-3.9697,-3.9697,-3.9697,-3.9697,-3.9697,-3.9697,-3.9697,-3.9697,-3.9697,-3.9697,-3.9697,-3.9633,-3.9581,-3.9374,-3.9154,-3.8893,-3.8409,-3.7868,-3.7173,-3.658,-3.5642,-3.4413,-3.3325,-3.2416,-3.1907,-3.1141,-3.0611,-3.0046,-2.9865,-2.9665,-2.9443,-2.9248,-2.9062,-2.8994,-2.873,-2.8516,-2.8428,-2.834,-2.8301,-2.8301,-2.8301,-2.8301,-2.8301,-2.8301,-2.8301,-2.8301,-2.8301,-2.8301,-2.8301,-2.8301,-2.8301,-2.8301,-2.8301,-2.8301,-2.8301,-2.8301,-2.8301,-2.8301,-2.8301,-2.8301,-2.8115,-2.792,-2.7812,-2.7715,-2.7523,-2.7187,-2.6878,-2.6426,-2.5828,-2.5344,-2.4518,-2.3496,-2.2006,-2.0794,-1.9702,-1.8786,-1.8227,-1.801,-1.7687,-1.7589,-1.7589,-1.7589,-1.7589,-1.7589,-1.7589,-1.7589,-1.7589,-1.7589,-1.7589,-1.7589,-1.7589,-1.7589,-1.7589,-1.7589,-1.7589,-1.7589,-3.9697,-3.9697,-3.9697,-3.9697,-3.9697,-3.9697,-3.9697,-3.9697,-3.9697,-3.9697,-3.9697,-3.9697,-3.9697,-3.9697,-3.9697,-3.9697,-3.9697,-3.9697,-3.9697,-3.9697,-3.9697,-3.9697,-3.9697,-3.9697,-3.9697,-3.9697,-3.9697,-3.9697,-3.9645,-3.9645,-3.9581,-3.9426,-3.9218,-3.8945,-3.8356,-3.7933,-3.7441,-3.6526,-3.5806,-3.4703,-3.33,-3.2789,-3.2187,-3.1639,-3.1176,-3.0855,-3.0309,-3.0174,-3.001,-2.9744,-2.9626,-2.9548,-2.9538,-2.9518,-2.9189,-2.8867,-2.8545,-2.8301,-2.831,-2.8301,-2.8301,-2.8301,-2.8301,-2.8301,-2.8301,-2.8301,-2.8301,-2.8301,-2.8301,-2.8301,-2.8301,-2.8301,-2.8301,-2.8301,-2.8301,-2.8301,-2.8301,-2.8301,-2.8301,-2.8291,-2.8105,-2.8144,-2.8125,-2.7842,-2.7578,-2.7276,-2.6872,-2.6225,-2.5365,-2.4428,-2.3399,-2.1901,-2.0724,-1.9623,-1.8893,-1.8353,-1.796,-1.7662,-1.7602,-1.7602,-1.7589,-1.7589,-1.7589,-1.7589,-1.7589,-1.7589,-1.7589,-1.7589,-1.7589,-1.7589,-1.7589,-1.7589,-1.7589,-1.7589,-1.7589,-3.9697,-3.9697,-3.9697,-3.9697,-3.9697,-3.9697,-3.9697,-3.9697,-3.9697,-3.9697,-3.9697,-3.9697,-3.9697,-3.9697,-3.9697,-3.9697,-3.9697,-3.9697,-3.9697,-3.9697,-3.9697,-3.9697,-3.9697,-3.9697,-3.9697,-3.9697,-3.9697,-3.9594,-3.9542,-3.9478,-3.9362,-3.9206,-3.8788,-3.8409,-3.7826,-3.7346,-3.6634,-3.5642,-3.4591,-3.3526,-3.2742,-3.218,-3.173,-3.1334,-3.116,-3.0868,-3.0693,-3.0586,-3.0527,-3.0273,-3.0117,-2.9932,-2.9853,-2.9707,-2.9499,-2.9326,-2.9141,-2.8809,-2.8389,-2.833,-2.831,-2.8301,-2.8301,-2.8301,-2.8301,-2.8301,-2.8301,-2.8301,-2.8301,-2.8301,-2.8301,-2.8301,-2.8301,-2.8301,-2.8301,-2.8301,-2.8301,-2.8301,-2.8301,-2.8301,-2.8301,-2.8301,-2.8301,-2.8125,-2.7877,-2.7598,-2.7122,-2.6533,-2.5287,-2.3884,-2.2827,-2.1668,-2.0642,-1.9704,-1.9111,-1.8536,-1.8158,-1.7862,-1.7655,-1.7642,-1.7595,-1.7589,-1.7615,-1.7602,-1.7589,-1.7589,-1.7589,-1.7589,-1.7589,-1.7589,-1.7589,-1.7589,-1.7589,-1.7589,-1.7589,-3.9697,-3.9697,-3.9697,-3.9697,-3.9697,-3.9697,-3.9697,-3.9697,-3.9697,-3.9697,-3.9697,-3.9697,-3.9697,-3.9697,-3.9697,-3.9697,-3.9697,-3.9697,-3.9697,-3.9697,-3.9697,-3.9697,-3.9697,-3.9697,-3.9697,-3.9697,-3.9697,-3.9594,-3.931,-3.9154,-3.8998,-3.8945,-3.8291,-3.7761,-3.7334,-3.658,-3.5708,-3.4636,-3.3526,-3.2742,-3.2227,-3.1662,-3.1383,-3.116,-3.1054,-3.0898,-3.0898,-3.0879,-3.0859,-3.0771,-3.0547,-3.0381,-3.0332,-3.0166,-2.9922,-2.9795,-2.9668,-2.9375,-2.8887,-2.8613,-2.8428,-2.833,-2.8301,-2.8301,-2.8301,-2.8301,-2.8301,-2.8301,-2.8301,-2.8301,-2.8301,-2.8301,-2.8301,-2.8301,-2.8301,-2.8301,-2.8301,-2.8301,-2.8301,-2.8301,-2.8301,-2.8301,-2.8301,-2.8301,-2.8145,-2.7887,-2.74,-2.6768,-2.5361,-2.3673,-2.2646,-2.1643,-2.0716,-1.9897,-1.9296,-1.8762,-1.8347,-1.8042,-1.7896,-1.7769,-1.7776,-1.7729,-1.7722,-1.7682,-1.7622,-1.7589,-1.7589,-1.7589,-1.7589,-1.7589,-1.7589,-1.7589,-1.7589,-1.7589,-1.7589,-3.9697,-3.9697,-3.9697,-3.9697,-3.9697,-3.9697,-3.9697,-3.9697,-3.9697,-3.9697,-3.9697,-3.9697,-3.9697,-3.9697,-3.9697,-3.9697,-3.9697,-3.9697,-3.9697,-3.9697,-3.9697,-3.9697,-3.9697,-3.9697,-3.9697,-3.9697,-3.9645,-3.9478,-3.9206,-3.8724,-3.8409,-3.8027,-3.7655,-3.7131,-3.6472,-3.5697,-3.4647,-3.3685,-3.2799,-3.218,-3.173,-3.1334,-3.116,-3.1005,-3.0947,-3.0898,-3.0898,-3.0898,-3.0889,-3.0889,-3.0791,-3.0742,-3.0693,-3.0635,-3.043,-3.0244,-3.0166,-2.9883,-2.9473,-2.9043,-2.8682,-2.8437,-2.8301,-2.8301,-2.8301,-2.8301,-2.8301,-2.8301,-2.8301,-2.8301,-2.8301,-2.8301,-2.8301,-2.8301,-2.8301,-2.8301,-2.8301,-2.8301,-2.8301,-2.8301,-2.8301,-2.8301,-2.8237,-2.8237,-2.8023,-2.7745,-2.6926,-2.6236,-2.5215,-2.3718,-2.2743,-2.1769,-2.0859,-2.0059,-1.9492,-1.9016,-1.8568,-1.841,-1.8277,-1.8136,-1.8056,-1.7996,-1.7949,-1.7769,-1.7709,-1.7649,-1.7589,-1.7589,-1.7589,-1.7589,-1.7589,-1.7589,-1.7589,-1.7589,-1.7589,-3.9697,-3.9697,-3.9697,-3.9697,-3.9697,-3.9697,-3.9697,-3.9697,-3.9697,-3.9697,-3.9697,-3.9697,-3.9697,-3.9697,-3.9697,-3.9697,-3.9697,-3.9697,-3.9697,-3.9697,-3.9697,-3.9697,-3.9697,-3.9697,-3.9697,-3.9645,-3.953,-3.9322,-3.8945,-3.8409,-3.7761,-3.7334,-3.6958,-3.6526,-3.5817,-3.4747,-3.3628,-3.296,-3.2238,-3.1614,-3.145,-3.1112,-3.0995,-3.0947,-3.0898,-3.0898,-3.0898,-3.0898,-3.0898,-3.0898,-3.0898,-3.0898,-3.0898,-3.0898,-3.0791,-3.0625,-3.0576,-3.0361,-2.998,-2.9551,-2.9131,-2.873,-2.8476,-2.832,-2.8359,-2.831,-2.8301,-2.8301,-2.8301,-2.8301,-2.8301,-2.8301,-2.8301,-2.8301,-2.8301,-2.8301,-2.8301,-2.8301,-2.8301,-2.8301,-2.8301,-2.8301,-2.8237,-2.8121,-2.7916,-2.7539,-2.6654,-2.5725,-2.4676,-2.368,-2.2654,-2.1748,-2.0883,-2.0253,-1.9646,-1.9226,-1.8764,-1.8704,-1.8644,-1.8497,-1.837,-1.833,-1.8243,-1.8023,-1.7842,-1.7822,-1.7756,-1.7635,-1.7589,-1.7589,-1.7589,-1.7589,-1.7589,-1.7589,-1.7589,-3.9697,-3.9697,-3.9697,-3.9697,-3.9697,-3.9697,-3.9697,-3.9697,-3.9697,-3.9697,-3.9697,-3.9697,-3.9697,-3.9697,-3.9697,-3.9697,-3.9697,-3.9697,-3.9697,-3.9697,-3.9697,-3.9697,-3.9697,-3.9697,-3.9697,-3.9645,-3.9426,-3.9154,-3.8788,-3.8157,-3.7507,-3.6862,-3.6157,-3.5719,-3.5102,-3.3909,-3.2789,-3.218,-3.173,-3.1218,-3.116,-3.0995,-3.0889,-3.0898,-3.0898,-3.0898,-3.0898,-3.0898,-3.0898,-3.0898,-3.0898,-3.0898,-3.0898,-3.0898,-3.0898,-3.0898,-3.0859,-3.0713,-3.0391,-2.9863,-2.9463,-2.9121,-2.8916,-2.8691,-2.8516,-2.8467,-2.8506,-2.8301,-2.8301,-2.8301,-2.8301,-2.8301,-2.8301,-2.8301,-2.8301,-2.8301,-2.8301,-2.8301,-2.8301,-2.8301,-2.8301,-2.8291,-2.813,-2.797,-2.753,-2.7098,-2.6209,-2.5331,-2.4398,-2.34,-2.2433,-2.1601,-2.0787,-2.0293,-1.9839,-1.9395,-1.9038,-1.9045,-1.8965,-1.8804,-1.8698,-1.8651,-1.8517,-1.8283,-1.813,-1.8043,-1.7976,-1.7916,-1.7756,-1.7595,-1.7589,-1.7589,-1.7589,-1.7589,-1.7589,-3.9697,-3.9697,-3.9697,-3.9697,-3.9697,-3.9697,-3.9697,-3.9697,-3.9697,-3.9697,-3.9697,-3.9697,-3.9697,-3.9697,-3.9697,-3.9697,-3.9697,-3.9697,-3.9697,-3.9697,-3.9697,-3.9697,-3.9697,-3.9697,-3.9697,-3.9645,-3.9374,-3.905,-3.8736,-3.7904,-3.7262,-3.6375,-3.5444,-3.4736,-3.4401,-3.331,-3.2227,-3.1508,-3.1334,-3.117,-3.0995,-3.0947,-3.0889,-3.0898,-3.0898,-3.0898,-3.0898,-3.0898,-3.0898,-3.0898,-3.0898,-3.0898,-3.0898,-3.0898,-3.0898,-3.0898,-3.0898,-3.0869,-3.0801,-3.0039,-2.9717,-2.956,-2.9365,-2.9199,-2.8984,-2.8877,-2.875,-2.8525,-2.8398,-2.834,-2.832,-2.8301,-2.8301,-2.8301,-2.8301,-2.8301,-2.8301,-2.8301,-2.8301,-2.8301,-2.8301,-2.8247,-2.8087,-2.7809,-2.7206,-2.6545,-2.5771,-2.4889,-2.4064,-2.3119,-2.2165,-2.1417,-2.0673,-2.022,-1.9764,-1.954,-1.937,-1.939,-1.9259,-1.9078,-1.8985,-1.8938,-1.8771,-1.8537,-1.8444,-1.8384,-1.831,-1.8237,-1.8063,-1.7883,-1.7642,-1.7589,-1.7589,-1.7589,-1.7589,-3.9697,-3.9697,-3.9697,-3.9697,-3.9697,-3.9697,-3.9697,-3.9697,-3.9697,-3.9697,-3.9697,-3.9697,-3.9697,-3.9697,-3.9697,-3.9697,-3.9697,-3.9697,-3.9697,-3.9697,-3.9697,-3.9697,-3.9697,-3.9697,-3.9697,-3.953,-3.927,-3.8841,-3.8526,-3.7584,-3.6646,-3.5708,-3.4491,-3.348,-3.3151,-3.2467,-3.1787,-3.1392,-3.117,-3.1005,-3.0957,-3.0898,-3.0898,-3.0898,-3.0898,-3.0898,-3.0898,-3.0898,-3.0898,-3.0898,-3.0898,-3.0898,-3.0898,-3.0898,-3.0898,-3.0898,-3.0898,-3.0898,-3.0869,-3.0527,-3.0312,-3.0059,-2.9832,-2.959,-2.9355,-2.9355,-2.9121,-2.8838,-2.8721,-2.8613,-2.8379,-2.832,-2.831,-2.8301,-2.8301,-2.8301,-2.8301,-2.8301,-2.8301,-2.8301,-2.8301,-2.8023,-2.7755,-2.7485,-2.6935,-2.6163,-2.5395,-2.462,-2.3745,-2.2845,-2.1945,-2.1189,-2.05,-2.0046,-1.9707,-1.9482,-1.9424,-1.941,-1.9403,-1.935,-1.9225,-1.9172,-1.9045,-1.8824,-1.8771,-1.8718,-1.8571,-1.8437,-1.8357,-1.8196,-1.7936,-1.7736,-1.7722,-1.7669,-1.7589,-3.9697,-3.9697,-3.9697,-3.9697,-3.9697,-3.9697,-3.9697,-3.9697,-3.9697,-3.9697,-3.9697,-3.9697,-3.9697,-3.9697,-3.9697,-3.9697,-3.9697,-3.9697,-3.9697,-3.9697,-3.9697,-3.9697,-3.9697,-3.9697,-3.9645,-3.9478,-3.905,-3.8631,-3.821,-3.7239,-3.6091,-3.488,-3.348,-3.2856,-3.2352,-3.1903,-3.1508,-3.117,-3.1005,-3.0957,-3.0898,-3.0898,-3.0898,-3.0898,-3.0898,-3.0898,-3.0898,-3.0898,-3.0898,-3.0898,-3.0898,-3.0898,-3.0898,-3.0898,-3.0898,-3.0898,-3.0898,-3.0898,-3.0869,-3.0869,-3.0635,-3.0469,-3.0156,-2.9961,-2.9834,-2.9785,-2.9541,-2.9307,-2.917,-2.9004,-2.8779,-2.8682,-2.8662,-2.8682,-2.8564,-2.8574,-2.8506,-2.8516,-2.834,-2.833,-2.8247,-2.7872,-2.7485,-2.7098,-2.6654,-2.5835,-2.5017,-2.4248,-2.3472,-2.2626,-2.1767,-2.096,-2.0385,-2.0046,-1.9707,-1.9482,-1.9424,-1.9424,-1.9424,-1.9424,-1.941,-1.9272,-1.9192,-1.9138,-1.9078,-1.8971,-1.8764,-1.8631,-1.8584,-1.8444,-1.821,-1.8036,-1.7909,-1.7849,-1.7809,-3.9697,-3.9697,-3.9697,-3.9697,-3.9697,-3.9697,-3.9697,-3.9697,-3.9697,-3.9697,-3.9697,-3.9697,-3.9697,-3.9697,-3.9697,-3.9697,-3.9697,-3.9697,-3.9697,-3.9697,-3.9697,-3.9697,-3.9697,-3.9697,-3.9581,-3.927,-3.8945,-3.8473,-3.7933,-3.6677,-3.5433,-3.4233,-3.3094,-3.2352,-3.1845,-3.1498,-3.117,-3.1005,-3.0947,-3.0898,-3.0898,-3.0898,-3.0898,-3.0898,-3.0898,-3.0898,-3.0898,-3.0898,-3.0898,-3.0898,-3.0898,-3.0898,-3.0898,-3.0898,-3.0898,-3.0898,-3.0898,-3.0898,-3.0898,-3.0898,-3.0889,-3.0771,-3.0781,-3.0576,-3.0371,-3.0215,-3.0,-2.9756,-2.958,-2.9551,-2.9463,-2.9424,-2.9385,-2.9258,-2.9082,-2.8994,-2.8887,-2.873,-2.8486,-2.8379,-2.8267,-2.7979,-2.7485,-2.6989,-2.6436,-2.5551,-2.4787,-2.396,-2.3247,-2.2619,-2.171,-2.0673,-2.0213,-1.9996,-1.9707,-1.9482,-1.9424,-1.9424,-1.9424,-1.9424,-1.9424,-1.9424,-1.9357,-1.9272,-1.9383,-1.929,-1.9025,-1.8905,-1.8844,-1.8684,-1.8584,-1.839,-1.8277,-1.8277,-1.8263,-3.9697,-3.9697,-3.9697,-3.9697,-3.9697,-3.9697,-3.9697,-3.9697,-3.9697,-3.9697,-3.9697,-3.9697,-3.9697,-3.9697,-3.9697,-3.9697,-3.9697,-3.9697,-3.9697,-3.9697,-3.9697,-3.9697,-3.9697,-3.9697,-3.953,-3.927,-3.8893,-3.8368,-3.7411,-3.62,-3.4758,-3.3491,-3.2638,-3.196,-3.1508,-3.117,-3.1005,-3.0947,-3.0898,-3.0898,-3.0898,-3.0898,-3.0898,-3.0898,-3.0898,-3.0898,-3.0898,-3.0898,-3.0898,-3.0898,-3.0898,-3.0898,-3.0898,-3.0898,-3.0898,-3.0898,-3.0898,-3.0898,-3.0898,-3.0898,-3.0898,-3.0898,-3.0898,-3.0869,-3.0723,-3.0596,-3.0439,-3.0195,-3.0019,-2.999,-2.9873,-2.9805,-2.9805,-2.9707,-2.9541,-2.9404,-2.9277,-2.9053,-2.8799,-2.8486,-2.8373,-2.7866,-2.7361,-2.6817,-2.6218,-2.5331,-2.4501,-2.368,-2.2958,-2.2335,-2.1588,-2.0615,-2.0162,-1.9938,-1.9713,-1.9424,-1.9424,-1.9424,-1.9424,-1.9424,-1.9424,-1.9424,-1.9424,-1.9424,-1.9424,-1.941,-1.9285,-1.9178,-1.9072,-1.9165,-1.9142,-1.8844,-1.8664,-1.8651,-1.8624,-3.9697,-3.9697,-3.9697,-3.9697,-3.9697,-3.9697,-3.9697,-3.9697,-3.9697,-3.9697,-3.9697,-3.9697,-3.9697,-3.9697,-3.9697,-3.9697,-3.9697,-3.9697,-3.9697,-3.9697,-3.9697,-3.9697,-3.9697,-3.9645,-3.9426,-3.9154,-3.8684,-3.8104,-3.697,-3.5444,-3.3952,-3.3208,-3.2248,-3.1672,-3.1325,-3.1112,-3.0947,-3.0898,-3.0898,-3.0898,-3.0898,-3.0898,-3.0898,-3.0898,-3.0898,-3.0898,-3.0898,-3.0898,-3.0898,-3.0898,-3.0898,-3.0898,-3.0898,-3.0898,-3.0898,-3.0898,-3.0898,-3.0898,-3.0898,-3.0898,-3.0898,-3.0898,-3.0898,-3.0879,-3.0879,-3.0801,-3.0684,-3.0527,-3.0469,-3.04,-3.0234,-3.0098,-3.0117,-3.0117,-2.9971,-2.9824,-2.9619,-2.9404,-2.9115,-2.8707,-2.8276,-2.7739,-2.7191,-2.6646,-2.5889,-2.5017,-2.4184,-2.34,-2.2619,-2.1945,-2.131,-2.05,-2.0104,-1.988,-1.9649,-1.9424,-1.9424,-1.9424,-1.9424,-1.9424,-1.9424,-1.9424,-1.9424,-1.9424,-1.9424,-1.941,-1.9397,-1.9403,-1.9363,-1.9424,-1.9424,-1.9223,-1.9005,-1.9005,-1.8958,-3.9697,-3.9697,-3.9697,-3.9697,-3.9697,-3.9697,-3.9697,-3.9697,-3.9697,-3.9697,-3.9697,-3.9697,-3.9697,-3.9697,-3.9697,-3.9697,-3.9697,-3.9697,-3.9697,-3.9697,-3.9697,-3.9697,-3.9697,-3.9697,-3.9374,-3.8893,-3.8356,-3.7826,-3.6417,-3.5002,-3.3784,-3.3151,-3.2248,-3.1614,-3.1218,-3.0995,-3.0898,-3.0898,-3.0898,-3.0898,-3.0898,-3.0898,-3.0898,-3.0898,-3.0898,-3.0898,-3.0898,-3.0898,-3.0898,-3.0898,-3.0898,-3.0898,-3.0898,-3.0898,-3.0898,-3.0898,-3.0898,-3.0898,-3.0898,-3.0898,-3.0898,-3.0898,-3.0898,-3.0898,-3.0898,-3.0898,-3.0791,-3.0762,-3.0693,-3.0684,-3.0557,-3.0518,-3.0527,-3.0498,-3.0391,-3.0293,-3.0176,-2.9826,-2.9288,-2.8899,-2.8365,-2.7806,-2.7095,-2.6499,-2.5564,-2.465,-2.3753,-2.3014,-2.223,-2.1561,-2.0967,-2.0328,-2.0104,-1.9822,-1.9597,-1.9424,-1.9424,-1.9424,-1.9424,-1.9424,-1.9424,-1.9424,-1.9424,-1.9424,-1.9424,-1.9424,-1.9417,-1.9424,-1.9424,-1.9424,-1.9424,-1.9424,-1.9383,-1.9323,-1.9283,-3.9697,-3.9697,-3.9697,-3.9697,-3.9697,-3.9697,-3.9697,-3.9697,-3.9697,-3.9697,-3.9697,-3.9697,-3.9697,-3.9697,-3.9697,-3.9697,-3.9697,-3.9697,-3.9697,-3.9697,-3.9697,-3.9697,-3.9697,-3.9697,-3.931,-3.8893,-3.8303,-3.7376,-3.5872,-3.4624,-3.3501,-3.2524,-3.196,-3.1566,-3.1054,-3.0898,-3.0898,-3.0898,-3.0898,-3.0898,-3.0898,-3.0898,-3.0898,-3.0898,-3.0898,-3.0898,-3.0898,-3.0898,-3.0898,-3.0898,-3.0898,-3.0898,-3.0898,-3.0898,-3.0898,-3.0898,-3.0898,-3.0898,-3.0898,-3.0898,-3.0898,-3.0898,-3.0898,-3.0898,-3.0898,-3.0898,-3.0898,-3.0898,-3.0898,-3.0898,-3.0898,-3.0898,-3.0889,-3.083,-3.0781,-3.0732,-3.0684,-3.0131,-2.9543,-2.8983,-2.8511,-2.7819,-2.7076,-2.6227,-2.5259,-2.4269,-2.3336,-2.2513,-2.174,-2.106,-2.0737,-2.0213,-1.9989,-1.9764,-1.954,-1.9424,-1.9424,-1.9424,-1.9424,-1.9424,-1.9424,-1.9424,-1.9424,-1.9424,-1.9424,-1.9424,-1.9424,-1.9424,-1.9424,-1.9424,-1.9424,-1.9424,-1.9424,-1.9377,-1.9397,-3.9697,-3.9697,-3.9697,-3.9697,-3.9697,-3.9697,-3.9697,-3.9697,-3.9697,-3.9697,-3.9697,-3.9697,-3.9697,-3.9697,-3.9697,-3.9697,-3.9697,-3.9697,-3.9697,-3.9697,-3.9697,-3.9697,-3.9697,-3.9697,-3.9322,-3.8841,-3.7761,-3.658,-3.5279,-3.4289,-3.3275,-3.2295,-3.1903,-3.1518,-3.1005,-3.0898,-3.0898,-3.0898,-3.0898,-3.0898,-3.0898,-3.0898,-3.0898,-3.0898,-3.0898,-3.0898,-3.0898,-3.0898,-3.0898,-3.0898,-3.0898,-3.0898,-3.0898,-3.0898,-3.0898,-3.0898,-3.0898,-3.0898,-3.0898,-3.0898,-3.0898,-3.0898,-3.0898,-3.0898,-3.0898,-3.0898,-3.0898,-3.0898,-3.0898,-3.0898,-3.0898,-3.0898,-3.0898,-3.0859,-3.084,-3.0762,-3.0607,-3.0267,-2.9613,-2.8936,-2.8443,-2.7914,-2.7146,-2.6351,-2.5383,-2.445,-2.3443,-2.246,-2.1624,-2.078,-2.0449,-2.0111,-1.9836,-1.9655,-1.9482,-1.9424,-1.9424,-1.9424,-1.9424,-1.9424,-1.9424,-1.9424,-1.9424,-1.9424,-1.9424,-1.9424,-1.9424,-1.9424,-1.9424,-1.9424,-1.9424,-1.9424,-1.9424,-1.9424,-1.9424,-3.9697,-3.9697,-3.9697,-3.9697,-3.9697,-3.9697,-3.9697,-3.9697,-3.9697,-3.9697,-3.9697,-3.9697,-3.9697,-3.9697,-3.9697,-3.9697,-3.9697,-3.9697,-3.9697,-3.9697,-3.9697,-3.9697,-3.9697,-3.9633,-3.9114,-3.825,-3.7185,-3.6091,-3.4902,-3.4065,-3.3218,-3.2352,-3.1845,-3.1518,-3.1064,-3.0898,-3.0898,-3.0898,-3.0898,-3.0898,-3.0898,-3.0898,-3.0898,-3.0898,-3.0898,-3.0898,-3.0898,-3.0898,-3.0898,-3.0898,-3.0898,-3.0898,-3.0898,-3.0898,-3.0898,-3.0898,-3.0898,-3.0898,-3.0898,-3.0898,-3.0898,-3.0898,-3.0898,-3.0898,-3.0898,-3.0898,-3.0898,-3.0898,-3.0898,-3.0898,-3.0898,-3.0898,-3.0898,-3.0898,-3.083,-3.0762,-3.0567,-3.0314,-2.9638,-2.889,-2.8401,-2.7893,-2.7124,-2.6319,-2.5469,-2.4594,-2.3638,-2.2706,-2.1788,-2.1052,-2.0422,-2.0048,-1.971,-1.9522,-1.943,-1.9424,-1.9424,-1.9424,-1.9424,-1.9424,-1.9424,-1.9424,-1.9424,-1.9424,-1.9424,-1.9424,-1.9424,-1.9424,-1.9424,-1.9424,-1.9424,-1.9424,-1.9424,-1.9424,-1.9424,-3.9697,-3.9697,-3.9697,-3.9697,-3.9697,-3.9697,-3.9697,-3.9697,-3.9697,-3.9697,-3.9697,-3.9697,-3.9697,-3.9697,-3.9697,-3.9697,-3.9697,-3.9697,-3.9697,-3.9697,-3.9697,-3.9697,-3.9645,-3.9426,-3.8748,-3.7838,-3.6808,-3.5763,-3.478,-3.3952,-3.2991,-3.196,-3.1893,-3.1508,-3.1005,-3.0898,-3.0898,-3.0898,-3.0898,-3.0898,-3.0898,-3.0898,-3.0898,-3.0898,-3.0898,-3.0898,-3.0898,-3.0898,-3.0898,-3.0898,-3.0898,-3.0898,-3.0898,-3.0898,-3.0898,-3.0898,-3.0898,-3.0898,-3.0898,-3.0898,-3.0898,-3.0898,-3.0898,-3.0898,-3.0898,-3.0898,-3.0898,-3.0898,-3.0898,-3.0898,-3.0898,-3.0898,-3.0898,-3.0889,-3.083,-3.0645,-3.045,-3.0089,-2.9514,-2.896,-2.8469,-2.7757,-2.6878,-2.6042,-2.5299,-2.4431,-2.357,-2.2594,-2.1665,-2.105,-2.0479,-2.0037,-1.9604,-1.947,-1.9424,-1.9424,-1.9424,-1.9424,-1.9424,-1.9424,-1.9424,-1.9424,-1.9424,-1.9424,-1.9424,-1.9424,-1.9424,-1.9424,-1.9424,-1.9424,-1.9424,-1.9424,-1.9424,-1.9424,-1.9424]},{"header":{"parameterUnit":"m.s-1","parameterCategory":1,"la1":31.0,"la2":29.5877,"lo1":-88.7671,"lo2":-86.6584,"dy":0.0162,"dx":0.0185,"nx":115,"ny":88,"refTime":"2023-04-15T12:00:00:Z","depth":0,"parameterNumber":3,"parameterNumberName":"V-component_of_WINDS"},"data":[0.0,0.0,0.0,0.0,0.0,0.0,0.0,0.0,0.0,0.0,0.0,0.0,0.0,0.0,0.0,0.0,0.0,0.0,0.0,0.0,0.0,0.0,0.0,0.0,0.0,0.0,0.0,0.0,0.0,0.0,0.0,0.0,0.0,0.0,0.0,0.0,0.0,0.0,0.0,0.0,0.0,0.0,0.0,0.0,0.0,0.0,0.0,0.0,0.0,0.0,0.0,0.0,0.0,0.0,0.0,0.0,0.0,0.0,0.0,0.0,0.0,0.0,0.0,0.0,0.0,0.0,0.0,0.0,0.0,0.0,0.0,0.0,0.0,0.0,0.0,0.0,0.0,0.0,0.0,0.0,0.0,0.0,0.0,0.0,0.0,0.0,0.0,0.0,0.0,0.0,0.0,0.0,0.0,0.0,0.0,0.0,0.0,0.0,0.0,0.0,0.0,0.0,0.0,0.0,0.0,0.0,0.0,0.0,0.0,0.0,0.0,0.0,0.0,0.0,0.0,0.0,0.0,0.0,0.0,0.0,0.0,0.0,0.0,0.0,0.0,0.0,0.0,0.0,0.0,0.0,0.0,0.0,0.0,0.0,0.0,0.0,0.0,0.0,0.0,0.0,0.0,0.0,0.0,0.0,0.0,0.0,0.0,0.0,0.0,0.0,0.0,0.0,0.0,0.0,0.0,0.0,0.0,0.0,0.0,0.0,0.0,0.0,0.0,0.0,0.0,0.0,0.0,0.0,0.0,0.0,0.0,0.0,0.0,0.0,0.0,0.0,0.0,0.0,0.0,0.0,0.0,0.0,0.0,0.0,0.0,0.0,0.0,0.0,0.0,0.0,0.0,0.0,0.0,0.0,0.0,0.0,0.0,0.0,0.0,0.0,0.0,0.0,0.0,0.0,0.0,0.0,0.0,0.0,0.0,0.0,0.0,0.0,0.0,0.0,0.0,0.0,0.0,0.0,0.0,0.0,0.0,0.0,0.0,0.0,0.0,0.0,0.0,0.0,0.0,0.0,0.0,0.0,0.0,0.0,0.0,0.0,0.0,0.0,0.0,0.0,0.0,0.0,0.0,0.0,0.0,0.0,0.0,0.0,0.0,0.0,0.0,0.0,0.0,0.0,0.0,0.0,0.0,0.0,0.0,0.0,0.0,0.0,0.0,0.0,0.0,0.0,0.0,0.0,0.0,0.0,0.0,0.0,0.0,0.0,0.0,0.0,0.0,0.0,0.0,0.0,0.0,0.0,0.0,0.0,0.0,0.0,0.0,0.0,0.0,0.0,0.0,0.0,0.0,0.0,0.0,0.0,0.0,0.0,0.0,0.0,0.0,0.0,0.0,0.0,0.0,0.0,0.0,0.0,0.0,0.0,0.0,0.0,0.0,0.0,0.0,0.0,0.0,0.0,0.0,0.0,0.0,0.0,0.0,0.0,0.0,0.0,0.0,0.0,0.0,0.0,0.0,0.0,0.0,0.0,0.0,0.0,0.0,0.0,0.0,0.0,0.0,0.0,0.0,0.0,0.0,0.0,0.0,0.0,0.0,0.0,0.0,0.0,0.0,0.0,0.0,0.0,0.0,0.0,0.0,0.0,0.0,0.0,0.0,0.0,0.0,0.0,0.0,0.0,0.0,0.0,0.0,0.0,0.0,0.0,0.0,0.0,0.0,0.0,0.0,0.0,0.0,0.0,0.0,0.0,0.0,0.0,0.0,0.0,0.0,0.0,0.0,0.0,0.0,0.0,0.0,0.0,0.0,0.0,0.0,0.0,0.0,0.0,0.0,0.0,0.0,0.0,0.0,0.0,0.0,0.0,0.0,0.0,0.0,0.0,0.0,0.0,0.0,0.0,0.0,0.0,0.0,0.0,0.0,0.0,0.0,0.0,0.0,0.0,0.0,0.0,0.0,0.0,0.0,0.0,0.0,0.0,0.0,0.0,0.0,0.0,0.0,0.0,0.0,0.0,0.0,0.0,0.0,0.0,0.0,0.0,0.0,0.0,0.0,0.0,0.0,0.0,0.0,0.0,0.0,0.0,0.0,0.0,0.0,0.0,0.0,0.0,0.0,0.0,0.0,0.0,0.0,0.0,0.0,0.0,0.0,0.0,0.0,0.0,0.0,0.0,0.0,0.0,0.0,0.0,0.0,0.0,0.0,0.0,0.0,0.0,0.0,0.0,0.0,0.0,0.0,0.0,0.0,0.0,0.0,0.0,0.0,0.0,0.0,0.0,0.0,0.0,0.0,0.0,0.0,0.0,0.0,0.0,0.0,0.0,0.0,0.0,0.0,0.0,0.0,0.0,0.0,0.0,0.0,0.0,0.0,0.0,0.0,0.0,0.0,0.0,0.0,0.0,0.0,0.0,0.0,0.0,0.0,0.0,0.0,0.0,0.0,0.0,0.0,0.0,0.0,0.0,0.0,0.0,0.0,0.0,0.0,0.0,0.0,0.0,0.0,0.0,0.0,0.0,0.0,0.0,0.0,0.0,0.0,0.0,0.0,0.0,0.0,0.0,0.0,0.0,0.0,0.0,0.0,0.0,0.0,0.0,0.0,0.0,0.0,0.0,0.0,0.0,0.0,0.0,0.0,0.0,0.0,0.0,0.0,0.0,0.0,0.0,0.0,0.0,0.0,0.0,0.0,0.0,0.0,0.0,0.0,0.0,0.0,0.0,0.0,0.0,0.0,0.0,0.0,0.0,0.0,0.0,0.0,0.0,0.0,0.0,0.0,0.0,0.0,0.0,0.0,0.0,0.0,0.0,0.0,0.0,0.0,0.0,0.0,0.0,0.0,0.0,0.0,0.0,0.0,0.0,0.0,0.0,0.0,0.0,0.0,0.0,0.0,0.0,0.0,0.0,0.0,0.0,0.0,0.0,0.0,0.0,0.0,0.0,0.0,0.0,0.0,0.0,0.0,0.0,0.0,0.0,0.0,0.0,0.0,0.0,0.0,0.0,0.0,0.0,0.0,0.0,0.0,0.0,0.0,0.0,0.0,0.0,0.0,0.0,0.0,0.0,0.0,0.0,0.0,0.0,0.0,0.0,0.0,0.0,0.0,0.0,0.0,0.0,0.0,0.0,0.0,0.0,0.0,0.0,0.0,0.0,0.0,0.0,0.0,0.0,0.0,0.0,0.0,0.0,0.0,0.0,0.0,0.0,0.0,0.0,0.0,0.0,0.0,0.0,0.0,0.0,0.0,0.0,0.0,0.0,0.0,0.0,0.0,0.0,0.0,0.0,0.0,0.0,0.0,0.0,0.0,0.0,0.0,0.0,0.0,0.0,0.0,0.0,0.0,0.0,0.0,0.0,0.0,0.0,0.0,0.0,0.0,0.0,0.0,0.0,0.0,0.0,0.0,0.0,0.0,0.0,0.0,0.0,0.0,0.0,0.0,0.0,0.0,0.0,0.0,0.0,0.0,0.0,0.0,0.0,0.0,0.0,0.0,0.0,0.0,0.0,0.0,0.0,0.0,0.0,0.0,0.0,0.0,0.0,0.0,0.0,0.0,0.0,0.0,0.0,0.0,0.0,0.0,0.0,0.0,0.0,0.0,0.0,0.0,0.0,0.0,0.0,0.0,0.0,0.0,0.0,0.0,0.0,0.0,0.0,0.0,0.0,0.0,0.0,0.0,0.0,0.0,0.0,0.0,0.0,0.0,0.0,0.0,0.0,0.0,0.0,0.0,0.0,0.0,0.0,0.0,0.0,0.0,0.0,0.0,0.0,0.0,0.0,0.0,0.0,0.0,0.0,0.0,0.0,0.0,0.0,0.0,0.0,0.0,0.0,0.0,0.0,0.0,0.0,0.0,0.0,0.0,0.0,0.0,0.0,0.0,0.0,0.0,0.0,0.0,0.0,0.0,0.0,0.0,0.0,0.0,0.0,0.0,0.0,0.0,0.0,0.0,0.0,0.0,0.0,0.0,0.0,0.0,0.0,0.0,0.0,0.0,0.0,0.0,0.0,0.0,0.0,0.0,0.0,0.0,0.0,0.0,0.0,0.0,0.0,0.0,0.0,0.0,0.0,0.0,0.0,0.0,0.0,0.0,0.0,0.0,0.0,0.0,0.0,0.0,0.0,0.0,0.0,0.0,0.0,0.0,0.0,0.0,0.0,0.0,0.0,0.0,0.0,0.0,0.0,0.0,0.0,0.0,0.0,0.0,0.0,0.0,0.0,0.0,0.0,0.0,0.0,0.0,0.0,0.0,0.0,0.0,0.0,0.0,0.0,0.0,0.0,0.0,0.0,0.0,0.0,0.0,0.0,0.0,0.0,1.9913,0.0,0.0,0.0,0.0,0.0,0.0,0.0,0.0,0.0,0.0,0.0,0.0,0.0,0.0,0.0,0.0,0.0,0.0,0.0,0.0,0.0,0.0,0.0,0.0,0.0,0.0,0.0,0.0,0.0,0.0,0.0,0.0,0.0,0.0,0.0,0.0,0.0,0.0,0.0,0.0,0.0,0.0,0.0,0.0,0.0,0.0,0.0,0.0,0.0,0.0,0.0,0.0,0.0,0.0,0.0,0.0,0.0,0.0,0.0,0.0,0.0,0.0,0.0,0.0,0.0,0.0,0.0,0.0,0.0,0.0,0.0,0.0,0.0,0.0,0.0,0.0,0.0,0.0,0.0,0.0,0.0,0.0,0.0,0.0,0.0,0.0,0.0,0.0,0.0,0.0,0.0,0.0,0.0,0.0,0.0,0.0,0.0,0.0,0.0,0.0,0.0,0.0,0.0,0.0,0.0,0.0,0.0,0.0,0.0,0.0,2.2313,2.2313,2.2313,2.1569,2.0069,0.0,0.0,0.0,0.0,0.0,0.0,0.0,0.0,0.0,0.0,0.0,0.0,0.0,0.0,0.0,0.0,0.0,0.0,0.0,0.0,0.0,0.0,0.0,0.0,0.0,0.0,0.0,0.0,0.0,0.0,0.0,0.0,0.0,0.0,0.0,0.0,0.0,0.0,0.0,0.0,0.0,0.0,0.0,0.0,0.0,0.0,0.0,0.0,0.0,0.0,0.0,0.0,0.0,0.0,0.0,0.0,0.0,0.0,0.0,0.0,0.0,0.0,0.0,0.0,0.0,0.0,0.0,0.0,0.0,0.0,0.0,0.0,0.0,0.0,0.0,0.0,0.0,0.0,0.0,0.0,0.0,0.0,0.0,0.0,0.0,0.0,0.0,0.0,0.0,0.0,0.0,0.0,0.0,0.0,0.0,0.0,0.0,0.0,0.0,0.0,0.0,0.0,0.0,0.0,0.0,0.0,0.0,0.0,0.0,0.0,0.0,0.0,2.2313,2.1586,2.0052,0.0,0.0,0.0,0.0,0.0,0.0,0.0,0.0,0.0,0.0,0.0,0.0,0.0,0.0,0.0,0.0,0.0,0.0,0.0,0.0,0.0,0.0,0.0,0.0,0.0,0.0,0.0,0.0,0.0,0.0,0.0,0.0,0.0,0.0,0.0,0.0,0.0,0.0,0.0,0.0,0.0,0.0,0.0,0.0,0.0,0.0,0.0,0.0,0.0,0.0,0.0,0.0,0.0,0.0,0.0,0.0,0.0,0.0,0.0,0.0,0.0,0.0,0.0,0.0,0.0,0.0,0.0,0.0,0.0,0.0,0.0,0.0,0.0,0.0,0.0,0.0,0.0,0.0,0.0,0.0,0.0,0.0,0.0,0.0,0.0,0.0,0.0,0.0,0.0,0.0,0.0,0.0,0.0,0.0,0.0,0.0,0.0,0.0,0.0,0.0,0.0,0.0,0.0,0.0,0.0,0.0,0.0,0.0,0.0,0.0,2.2313,2.2313,2.2296,0.0,2.0086,0.0,0.0,0.0,0.0,0.0,0.0,0.0,0.0,0.0,0.0,0.0,0.0,0.0,0.0,0.0,0.0,0.0,0.0,0.0,0.0,0.0,0.0,0.0,0.0,0.0,0.0,0.0,0.0,0.0,0.0,0.0,0.0,0.0,0.0,0.0,0.0,0.0,0.0,0.0,0.0,0.0,0.0,0.0,0.0,0.0,0.0,0.0,0.0,0.0,0.0,0.0,0.0,0.0,0.0,0.0,0.0,0.0,0.0,0.0,0.0,0.0,0.0,0.0,0.0,0.0,0.0,0.0,0.0,0.0,0.0,0.0,0.0,0.0,0.0,0.0,0.0,0.0,0.0,0.0,0.0,0.0,0.0,0.0,0.0,0.0,0.0,0.0,0.0,0.0,0.0,0.0,0.0,0.0,0.0,0.0,0.0,0.0,0.0,0.0,0.0,0.0,0.0,0.0,0.0,0.0,0.0,0.0,0.0,0.0,0.0,2.2953,2.2953,2.2107,2.1376,0.0,0.0,0.0,0.0,0.0,0.0,0.0,0.0,0.0,0.0,0.0,0.0,0.0,0.0,0.0,0.0,0.0,0.0,0.0,0.0,0.0,0.0,0.0,0.0,0.0,0.0,0.0,0.0,0.0,0.0,0.0,0.0,0.0,0.0,0.0,0.0,0.0,0.0,0.0,0.0,0.0,0.0,0.0,0.0,0.0,0.0,0.0,0.0,0.0,0.0,0.0,0.0,0.0,0.0,0.0,0.0,0.0,0.0,0.0,0.0,0.0,0.0,0.0,0.0,0.0,0.0,0.0,0.0,0.0,0.0,0.0,0.0,0.0,0.0,0.0,0.0,0.0,0.0,0.0,0.0,0.0,0.0,0.0,0.0,0.0,0.0,0.0,0.0,0.0,0.0,0.0,0.0,0.0,0.0,0.0,0.0,0.0,0.0,0.0,0.0,0.0,0.0,0.0,0.0,0.0,0.0,0.0,0.0,0.0,0.0,2.3359,2.3105,2.3054,2.2084,2.1437,2.1217,0.0,0.0,0.0,0.0,0.0,0.0,0.0,0.0,0.0,0.0,0.0,0.0,0.0,0.0,0.0,0.0,0.0,0.0,0.0,0.0,0.0,0.0,0.0,0.0,0.0,0.0,0.0,0.0,0.0,0.0,0.0,0.0,0.0,0.0,0.0,0.0,0.0,0.0,0.0,0.0,0.0,0.0,0.0,0.0,0.0,0.0,0.0,0.0,0.0,0.0,0.0,0.0,0.0,0.0,0.0,0.0,0.0,0.0,0.0,0.0,0.0,0.0,0.0,0.0,0.0,0.0,0.0,0.0,0.0,0.0,0.0,0.0,0.0,0.0,0.0,0.0,0.0,0.0,0.0,0.0,0.0,0.0,0.0,0.0,0.0,0.0,0.0,0.0,0.0,0.0,0.0,0.0,0.0,0.0,0.0,0.0,0.0,0.0,0.0,0.0,0.0,0.0,0.0,0.0,0.0,0.0,0.0,0.0,2.2431,2.2415,2.2364,2.2381,2.2349,2.2031,0.0,0.0,0.0,0.0,0.0,0.0,0.0,0.0,0.0,0.0,0.0,0.0,0.0,0.0,0.0,0.0,0.0,0.0,0.0,0.0,0.0,0.0,0.0,0.0,0.0,0.0,0.0,0.0,0.0,0.0,0.0,0.0,0.0,0.0,0.0,0.0,0.0,0.0,0.0,0.0,0.0,0.0,0.0,0.0,0.0,0.0,0.0,0.0,0.0,0.0,0.0,0.0,0.0,0.0,0.0,0.0,0.0,0.0,0.0,0.0,0.0,0.0,0.0,0.0,0.0,0.0,0.0,0.0,0.0,0.0,0.0,0.0,0.0,0.0,0.0,0.0,0.0,0.0,0.0,0.0,0.0,0.0,0.0,0.0,0.0,0.0,0.0,0.0,0.0,0.0,0.0,0.0,0.0,0.0,0.0,0.0,0.0,0.0,0.0,0.0,0.0,0.0,0.0,0.0,0.0,0.0,0.0,0.0,0.0,2.3695,2.3697,2.3477,2.3021,2.3076,2.2762,0.0,0.0,0.0,0.0,0.0,0.0,0.0,0.0,0.0,0.0,0.0,0.0,0.0,0.0,0.0,0.0,0.0,0.0,0.0,0.0,0.0,0.0,0.0,0.0,0.0,0.0,0.0,0.0,0.0,0.0,0.0,0.0,0.0,0.0,0.0,0.0,0.0,0.0,0.0,0.0,0.0,0.0,0.0,0.0,0.0,0.0,0.0,0.0,0.0,0.0,0.0,0.0,0.0,0.0,0.0,0.0,0.0,0.0,0.0,0.0,0.0,0.0,0.0,0.0,0.0,0.0,0.0,0.0,0.0,0.0,0.0,0.0,0.0,0.0,0.0,0.0,0.0,0.0,0.0,0.0,0.0,0.0,0.0,0.0,0.0,0.0,0.0,0.0,0.0,0.0,0.0,0.0,0.0,0.0,0.0,0.0,0.0,0.0,0.0,0.0,0.0,0.0,0.0,0.0,0.0,0.0,0.0,0.0,0.0,2.4118,0.0,2.4254,2.378,2.3597,2.3315,0.0,0.0,0.0,0.0,0.0,0.0,0.0,0.0,0.0,0.0,0.0,0.0,0.0,0.0,0.0,0.0,0.0,0.0,0.0,0.0,0.0,0.0,0.0,0.0,0.0,0.0,0.0,0.0,0.0,0.0,0.0,0.0,0.0,0.0,0.0,0.0,0.0,0.0,0.0,0.0,0.0,0.0,0.0,0.0,0.0,0.0,0.0,0.0,0.0,0.0,0.0,0.0,0.0,0.0,0.0,0.0,0.0,0.0,0.0,0.0,0.0,0.0,0.0,0.0,0.0,0.0,0.0,0.0,0.0,0.0,0.0,0.0,0.0,0.0,0.0,0.0,0.0,0.0,0.0,0.0,0.0,0.0,0.0,0.0,0.0,0.0,0.0,0.0,0.0,0.0,0.0,0.0,0.0,0.0,0.0,0.0,0.0,0.0,0.0,0.0,0.0,0.0,0.0,0.0,0.0,0.0,0.0,0.0,2.2736,2.3444,2.4169,2.4541,2.4506,2.3981,2.3671,0.0,0.0,0.0,0.0,0.0,0.0,0.0,0.0,0.0,0.0,0.0,0.0,0.0,0.0,0.0,0.0,0.0,0.0,0.0,0.0,0.0,0.0,0.0,0.0,0.0,0.0,0.0,0.0,0.0,0.0,0.0,0.0,0.0,0.0,0.0,0.0,0.0,0.0,0.0,0.0,0.0,0.0,0.0,0.0,0.0,0.0,0.0,0.0,0.0,0.0,0.0,0.0,0.0,0.0,0.0,0.0,0.0,0.0,0.0,0.0,0.0,0.0,0.0,0.0,0.0,0.0,0.0,0.0,0.0,0.0,0.0,0.0,0.0,0.0,0.0,0.0,0.0,0.0,0.0,0.0,0.0,0.0,0.0,0.0,0.0,0.0,0.0,0.0,0.0,0.0,0.0,0.0,0.0,0.0,0.0,0.0,0.0,0.0,0.0,0.0,0.0,0.0,0.0,0.0,0.0,0.0,0.0,0.0,0.0,2.4915,2.5135,2.5253,2.5253,2.5224,2.4686,0.0,0.0,0.0,0.0,0.0,0.0,0.0,0.0,0.0,0.0,0.0,0.0,0.0,0.0,0.0,0.0,0.0,0.0,0.0,0.0,0.0,0.0,0.0,0.0,0.0,0.0,0.0,0.0,0.0,0.0,0.0,0.0,0.0,0.0,0.0,0.0,0.0,0.0,0.0,0.0,0.0,0.0,0.0,0.0,0.0,0.0,0.0,0.0,0.0,0.0,0.0,0.0,0.0,0.0,0.0,0.0,0.0,0.0,0.0,0.0,0.0,0.0,0.0,0.0,0.0,0.0,0.0,0.0,0.0,0.0,0.0,0.0,0.0,0.0,0.0,0.0,0.0,0.0,0.0,0.0,0.0,0.0,0.0,0.0,0.0,0.0,0.0,0.0,0.0,0.0,0.0,0.0,0.0,0.0,0.0,0.0,0.0,0.0,0.0,0.0,0.0,0.0,0.0,0.0,0.0,0.0,0.0,0.0,0.0,2.6404,2.6421,2.6404,2.6421,2.6348,2.5743,2.4575,0.0,0.0,0.0,0.0,0.0,0.0,0.0,0.0,0.0,0.0,0.0,0.0,0.0,0.0,0.0,0.0,0.0,0.0,0.0,0.0,0.0,0.0,0.0,0.0,0.0,0.0,0.0,0.0,0.0,0.0,0.0,0.0,0.0,0.0,0.0,0.0,0.0,0.0,0.0,0.0,0.0,0.0,0.0,0.0,0.0,0.0,0.0,0.0,0.0,0.0,0.0,0.0,0.0,0.0,0.0,0.0,0.0,0.0,0.0,0.0,0.0,0.0,0.0,0.0,0.0,0.0,0.0,0.0,0.0,0.0,0.0,0.0,0.0,0.0,0.0,0.0,0.0,0.0,0.0,0.0,0.0,0.0,0.0,0.0,0.0,0.0,0.0,0.0,0.0,0.0,0.0,0.0,0.0,0.0,0.0,0.0,0.0,0.0,0.0,0.0,0.0,0.0,0.0,0.0,0.0,0.0,0.0,0.0,2.7942,2.7942,2.7908,2.7858,2.7334,2.6733,0.0,0.0,0.0,0.0,0.0,0.0,0.0,0.0,0.0,0.0,0.0,0.0,0.0,0.0,0.0,0.0,0.0,0.0,0.0,0.0,0.0,0.0,0.0,0.0,0.0,0.0,0.0,0.0,0.0,0.0,0.0,0.0,0.0,0.0,0.0,0.0,0.0,0.0,0.0,0.0,0.0,0.0,0.0,0.0,0.0,0.0,0.0,0.0,0.0,0.0,0.0,0.0,0.0,0.0,0.0,0.0,0.0,0.0,0.0,0.0,0.0,0.0,0.0,0.0,0.0,0.0,0.0,0.0,0.0,0.0,0.0,0.0,0.0,0.0,0.0,0.0,0.0,0.0,0.0,0.0,0.0,0.0,0.0,0.0,0.0,0.0,0.0,0.0,0.0,0.0,0.0,0.0,0.0,0.0,0.0,0.0,0.0,0.0,0.0,0.0,0.0,0.0,0.0,0.0,0.0,0.0,0.0,0.0,0.0,2.943,2.9516,2.921,2.8705,2.8082,2.7436,0.0,0.0,0.0,0.0,0.0,0.0,0.0,0.0,0.0,0.0,0.0,0.0,0.0,0.0,0.0,0.0,0.0,0.0,0.0,0.0,0.0,0.0,0.0,0.0,0.0,0.0,0.0,0.0,0.0,0.0,0.0,0.0,0.0,0.0,0.0,0.0,0.0,0.0,0.0,0.0,0.0,0.0,0.0,0.0,0.0,0.0,0.0,0.0,0.0,0.0,0.0,0.0,0.0,0.0,0.0,0.0,0.0,0.0,0.0,0.0,0.0,0.0,0.0,0.0,0.0,0.0,0.0,0.0,0.0,0.0,0.0,0.0,0.0,0.0,0.0,0.0,0.0,0.0,0.0,0.0,0.0,0.0,0.0,0.0,0.0,0.0,0.0,0.0,0.0,0.0,0.0,0.0,0.0,0.0,0.0,0.0,0.0,0.0,0.0,0.0,0.0,0.0,0.0,0.0,0.0,0.0,0.0,0.0,2.889,3.0055,3.0395,3.0362,2.9924,2.8964,2.8151,0.0,0.0,0.0,0.0,0.0,0.0,0.0,0.0,0.0,0.0,0.0,0.0,0.0,0.0,0.0,0.0,0.0,0.0,0.0,0.0,0.0,0.0,0.0,0.0,0.0,0.0,0.0,0.0,0.0,0.0,0.0,0.0,0.0,0.0,0.0,0.0,0.0,0.0,0.0,0.0,0.0,0.0,0.0,0.0,0.0,0.0,0.0,0.0,0.0,0.0,0.0,0.0,0.0,0.0,0.0,0.0,0.0,0.0,0.0,0.0,0.0,0.0,0.0,0.0,0.0,0.0,0.0,0.0,0.0,0.0,0.0,0.0,0.0,0.0,0.0,0.0,0.0,0.0,0.0,0.0,0.0,0.0,0.0,0.0,0.0,0.0,0.0,0.0,0.0,0.0,0.0,0.0,0.0,0.0,0.0,0.0,0.0,0.0,0.0,0.0,0.0,0.0,0.0,0.0,0.0,0.0,0.0,0.0,2.9433,3.0328,3.0886,3.1241,3.1278,2.9861,2.8814,0.0,0.0,0.0,0.0,0.0,0.0,0.0,0.0,0.0,0.0,0.0,0.0,0.0,0.0,0.0,0.0,0.0,0.0,0.0,0.0,0.0,0.0,0.0,0.0,0.0,0.0,0.0,0.0,0.0,0.0,0.0,0.0,0.0,0.0,0.0,0.0,0.0,0.0,0.0,0.0,0.0,0.0,0.0,0.0,0.0,0.0,0.0,0.0,0.0,0.0,0.0,0.0,0.0,0.0,0.0,0.0,0.0,0.0,0.0,0.0,0.0,0.0,0.0,0.0,0.0,0.0,0.0,0.0,0.0,0.0,0.0,0.0,0.0,0.0,0.0,0.0,0.0,0.0,0.0,0.0,0.0,0.0,0.0,0.0,0.0,0.0,0.0,0.0,0.0,0.0,0.0,0.0,0.0,0.0,0.0,0.0,0.0,0.0,0.0,0.0,0.0,0.0,0.0,0.0,0.0,0.0,0.0,0.0,2.9941,3.1769,3.143,3.1478,3.2039,3.0095,2.9,0.0,0.0,0.0,0.0,0.0,0.0,0.0,0.0,0.0,0.0,0.0,0.0,0.0,0.0,0.0,0.0,0.0,0.0,0.0,0.0,0.0,0.0,0.0,0.0,0.0,0.0,0.0,0.0,0.0,0.0,0.0,0.0,0.0,0.0,0.0,0.0,0.0,0.0,0.0,0.0,0.0,0.0,0.0,0.0,0.0,0.0,0.0,0.0,2.0601,0.0,0.0,0.0,0.0,0.0,0.0,0.0,0.0,0.0,0.0,0.0,0.0,0.0,0.0,0.0,0.0,0.0,0.0,0.0,0.0,0.0,0.0,0.0,0.0,0.0,0.0,0.0,0.0,0.0,0.0,0.0,0.0,0.0,0.0,0.0,0.0,0.0,0.0,0.0,0.0,0.0,0.0,0.0,0.0,0.0,0.0,0.0,0.0,0.0,0.0,0.0,0.0,0.0,0.0,0.0,0.0,0.0,0.0,0.0,3.0787,3.2226,3.2256,3.2256,3.2242,3.0821,2.9759,0.0,0.0,0.0,0.0,0.0,0.0,0.0,0.0,0.0,0.0,0.0,0.0,0.0,0.0,0.0,0.0,0.0,0.0,0.0,0.0,0.0,0.0,0.0,0.0,0.0,0.0,0.0,0.0,0.0,0.0,0.0,0.0,0.0,0.0,0.0,0.0,0.0,0.0,0.0,0.0,0.0,0.0,0.0,0.0,0.0,0.0,0.0,0.0,0.0,0.0,0.0,0.0,0.0,0.0,0.0,0.0,0.0,0.0,0.0,0.0,0.0,0.0,0.0,0.0,0.0,0.0,0.0,0.0,0.0,0.0,0.0,0.0,0.0,0.0,0.0,0.0,0.0,0.0,0.0,0.0,0.0,0.0,0.0,0.0,0.0,0.0,0.0,0.0,0.0,0.0,0.0,0.0,0.0,0.0,0.0,0.0,0.0,0.0,0.0,0.0,0.0,0.0,0.0,0.0,0.0,0.0,0.0,3.0497,3.1613,3.2462,3.3085,3.3152,3.2649,3.1819,3.0755,2.944,0.0,0.0,0.0,0.0,0.0,0.0,0.0,0.0,0.0,0.0,0.0,0.0,0.0,0.0,0.0,0.0,0.0,0.0,0.0,0.0,0.0,0.0,0.0,0.0,0.0,0.0,0.0,0.0,0.0,0.0,0.0,0.0,0.0,0.0,0.0,0.0,0.0,0.0,2.0673,2.1328,0.0,0.0,0.0,0.0,0.0,0.0,0.0,0.0,2.0869,0.0,0.0,0.0,0.0,0.0,0.0,0.0,0.0,0.0,0.0,0.0,0.0,0.0,0.0,0.0,0.0,0.0,0.0,0.0,0.0,0.0,0.0,0.0,0.0,0.0,0.0,0.0,0.0,0.0,0.0,0.0,0.0,0.0,0.0,0.0,0.0,0.0,0.0,0.0,0.0,0.0,0.0,0.0,0.0,0.0,0.0,0.0,0.0,0.0,0.0,0.0,0.0,0.0,0.0,0.0,0.0,2.9922,3.0768,3.185,3.3169,3.3339,3.3626,3.4066,3.2814,3.1718,3.0823,0.0,0.0,0.0,0.0,0.0,0.0,0.0,0.0,0.0,0.0,0.0,0.0,0.0,0.0,0.0,0.0,0.0,0.0,0.0,0.0,0.0,0.0,0.0,0.0,0.0,0.0,0.0,0.0,0.0,0.0,0.0,0.0,0.0,0.0,0.0,0.0,0.0,0.0,0.0,2.2511,2.2608,0.0,0.0,0.0,0.0,0.0,0.0,0.0,0.0,2.2617,0.0,0.0,0.0,0.0,0.0,0.0,0.0,0.0,0.0,0.0,0.0,0.0,0.0,0.0,0.0,0.0,0.0,0.0,0.0,0.0,0.0,0.0,0.0,0.0,0.0,0.0,0.0,0.0,0.0,0.0,0.0,0.0,0.0,0.0,0.0,0.0,0.0,0.0,0.0,0.0,0.0,0.0,0.0,0.0,0.0,0.0,0.0,0.0,0.0,0.0,0.0,0.0,0.0,0.0,0.0,3.0683,3.1765,3.2882,3.3931,3.4353,3.4539,3.4455,3.344,3.2341,0.0,0.0,0.0,0.0,0.0,0.0,0.0,0.0,0.0,0.0,0.0,0.0,0.0,0.0,0.0,0.0,0.0,0.0,0.0,0.0,0.0,0.0,0.0,0.0,0.0,0.0,0.0,0.0,0.0,0.0,0.0,0.0,0.0,0.0,0.0,0.0,0.0,0.0,0.0,0.0,2.3484,2.3469,2.3469,0.0,0.0,0.0,0.0,0.0,0.0,2.2984,2.3026,0.0,0.0,0.0,0.0,0.0,0.0,0.0,0.0,0.0,0.0,0.0,0.0,0.0,0.0,0.0,0.0,0.0,0.0,0.0,0.0,0.0,0.0,0.0,0.0,0.0,0.0,0.0,0.0,0.0,0.0,0.0,0.0,0.0,0.0,0.0,0.0,0.0,0.0,0.0,0.0,0.0,0.0,0.0,0.0,0.0,0.0,0.0,0.0,0.0,0.0,0.0,0.0,0.0,0.0,0.0,3.1407,3.2861,3.3897,3.4489,3.5233,3.5312,3.4726,3.3998,3.3,0.0,0.0,0.0,0.0,0.0,0.0,0.0,0.0,0.0,0.0,0.0,0.0,0.0,0.0,0.0,0.0,0.0,0.0,0.0,0.0,0.0,0.0,0.0,0.0,0.0,0.0,0.0,0.0,0.0,0.0,0.0,0.0,0.0,0.0,0.0,0.0,0.0,0.0,0.0,0.0,0.0,2.4587,2.4596,2.474,0.0,0.0,0.0,0.0,2.3925,2.397,0.0,0.0,0.0,0.0,0.0,0.0,0.0,0.0,0.0,0.0,0.0,0.0,0.0,0.0,0.0,0.0,0.0,0.0,0.0,0.0,0.0,0.0,0.0,0.0,0.0,0.0,0.0,0.0,0.0,0.0,0.0,0.0,0.0,0.0,0.0,0.0,0.0,0.0,0.0,0.0,0.0,0.0,0.0,0.0,0.0,0.0,0.0,0.0,0.0,0.0,0.0,0.0,0.0,0.0,0.0,0.0,3.2045,3.3567,3.4387,3.4523,3.5233,3.5566,3.5464,3.4759,3.3981,0.0,0.0,0.0,0.0,0.0,0.0,0.0,0.0,0.0,0.0,0.0,0.0,0.0,0.0,0.0,0.0,0.0,0.0,0.0,0.0,0.0,0.0,0.0,0.0,0.0,0.0,0.0,0.0,0.0,0.0,0.0,0.0,0.0,0.0,0.0,0.0,0.0,0.0,0.0,0.0,0.0,2.6236,2.629,2.6905,2.7358,0.0,0.0,2.7335,2.7406,2.7417,0.0,0.0,0.0,0.0,0.0,0.0,0.0,0.0,0.0,0.0,0.0,0.0,0.0,0.0,0.0,0.0,0.0,0.0,0.0,0.0,0.0,0.0,0.0,0.0,0.0,0.0,0.0,0.0,0.0,0.0,0.0,0.0,0.0,0.0,0.0,0.0,0.0,0.0,0.0,0.0,0.0,0.0,0.0,0.0,0.0,0.0,0.0,0.0,0.0,0.0,0.0,0.0,0.0,0.0,0.0,3.2085,3.2702,3.4251,3.5324,3.5791,3.6535,3.6721,3.6282,3.5537,3.459,0.0,0.0,0.0,0.0,0.0,0.0,0.0,0.0,0.0,0.0,0.0,0.0,0.0,0.0,0.0,0.0,0.0,0.0,0.0,0.0,0.0,0.0,0.0,0.0,0.0,0.0,0.0,0.0,0.0,0.0,0.0,0.0,0.0,0.0,0.0,0.0,0.0,0.0,0.0,0.0,0.0,0.0,2.7095,2.7502,0.0,0.0,0.0,2.7865,2.7933,0.0,0.0,0.0,0.0,0.0,0.0,0.0,0.0,0.0,0.0,0.0,0.0,0.0,0.0,0.0,0.0,0.0,0.0,0.0,0.0,0.0,0.0,0.0,0.0,0.0,0.0,0.0,0.0,0.0,0.0,0.0,0.0,0.0,0.0,0.0,0.0,0.0,0.0,0.0,0.0,0.0,0.0,0.0,0.0,0.0,0.0,0.0,0.0,0.0,0.0,0.0,0.0,0.0,0.0,0.0,0.0,0.0,3.3595,3.502,3.6184,3.7043,3.7618,3.7652,3.71,3.6315,0.0,0.0,0.0,0.0,0.0,0.0,0.0,0.0,0.0,0.0,0.0,0.0,0.0,0.0,0.0,0.0,0.0,0.0,0.0,0.0,0.0,0.0,0.0,0.0,0.0,0.0,0.0,2.3603,0.0,0.0,0.0,0.0,0.0,0.0,0.0,0.0,0.0,0.0,0.0,0.0,0.0,0.0,2.7174,2.8067,2.8439,2.8702,0.0,0.0,2.9044,2.9138,2.8972,2.8772,0.0,0.0,0.0,0.0,0.0,0.0,0.0,0.0,0.0,0.0,0.0,0.0,0.0,0.0,0.0,0.0,0.0,0.0,0.0,0.0,0.0,0.0,0.0,0.0,0.0,0.0,0.0,0.0,0.0,0.0,0.0,0.0,0.0,0.0,0.0,0.0,0.0,0.0,0.0,0.0,0.0,0.0,0.0,0.0,0.0,0.0,0.0,0.0,0.0,0.0,0.0,0.0,0.0,0.0,0.0,3.4945,3.6004,3.6942,3.7787,3.7865,3.7872,3.7821,3.7094,3.6315,0.0,0.0,0.0,0.0,0.0,0.0,0.0,0.0,0.0,0.0,0.0,0.0,0.0,0.0,0.0,0.0,0.0,0.0,0.0,0.0,0.0,0.0,0.0,0.0,0.0,0.0,0.0,0.0,0.0,0.0,0.0,0.0,0.0,0.0,0.0,0.0,0.0,0.0,0.0,0.0,0.0,2.872,2.9695,3.0536,3.136,0.0,0.0,3.2419,3.2532,3.1852,3.1137,3.0447,0.0,0.0,0.0,0.0,0.0,0.0,0.0,0.0,0.0,0.0,0.0,0.0,0.0,0.0,0.0,0.0,0.0,0.0,0.0,0.0,0.0,0.0,0.0,0.0,0.0,0.0,0.0,0.0,0.0,0.0,0.0,0.0,0.0,0.0,0.0,0.0,0.0,0.0,0.0,0.0,0.0,0.0,0.0,0.0,0.0,0.0,0.0,0.0,0.0,0.0,0.0,0.0,0.0,3.2952,3.4842,3.6374,3.7629,3.8548,3.9022,3.9039,3.8582,3.8319,3.7347,0.0,0.0,0.0,0.0,0.0,0.0,0.0,0.0,0.0,0.0,0.0,0.0,0.0,0.0,0.0,0.0,0.0,0.0,0.0,0.0,0.0,0.0,0.0,0.0,0.0,0.0,0.0,0.0,2.646,2.6644,2.6636,0.0,0.0,0.0,0.0,0.0,0.0,0.0,0.0,0.0,0.0,2.9645,3.1036,3.1628,0.0,0.0,3.2561,3.2427,3.1979,3.1656,3.1206,3.0493,2.9431,0.0,0.0,0.0,0.0,0.0,0.0,0.0,0.0,0.0,0.0,0.0,0.0,0.0,0.0,0.0,0.0,0.0,0.0,0.0,0.0,0.0,0.0,0.0,0.0,0.0,0.0,0.0,0.0,0.0,0.0,0.0,0.0,0.0,0.0,0.0,0.0,0.0,0.0,0.0,0.0,0.0,0.0,0.0,0.0,0.0,0.0,0.0,0.0,0.0,0.0,0.0,0.0,3.2902,3.5259,3.6663,3.7986,3.9243,3.9767,3.9809,3.9326,3.9123,3.8244,0.0,0.0,0.0,0.0,0.0,0.0,0.0,0.0,0.0,0.0,0.0,0.0,0.0,0.0,0.0,0.0,0.0,0.0,0.0,0.0,0.0,0.0,0.0,0.0,0.0,0.0,0.0,0.0,2.7189,2.7317,2.7317,0.0,0.0,0.0,0.0,0.0,0.0,0.0,0.0,0.0,0.0,3.065,3.2075,3.2448,3.2673,3.3025,3.3119,3.2889,3.2126,3.1862,3.1474,3.0739,0.0,0.0,0.0,0.0,0.0,0.0,0.0,0.0,0.0,0.0,0.0,0.0,0.0,0.0,0.0,0.0,0.0,0.0,0.0,0.0,0.0,0.0,0.0,0.0,0.0,0.0,0.0,0.0,0.0,0.0,2.361,0.0,0.0,0.0,0.0,0.0,0.0,0.0,0.0,0.0,0.0,0.0,0.0,0.0,0.0,0.0,0.0,0.0,0.0,0.0,0.0,0.0,0.0,3.3126,3.658,3.6934,3.7994,3.9774,3.9884,3.9944,4.0037,3.9385,3.8954,3.887,0.0,0.0,0.0,0.0,0.0,0.0,0.0,0.0,0.0,0.0,0.0,0.0,0.0,0.0,0.0,0.0,0.0,0.0,0.0,0.0,0.0,0.0,0.0,0.0,0.0,0.0,2.7769,2.8473,2.8883,0.0,0.0,0.0,0.0,0.0,0.0,0.0,0.0,0.0,0.0,3.1027,3.1903,3.2867,3.3112,3.3515,3.4366,3.4572,3.4401,3.3686,3.2972,3.2224,0.0,0.0,0.0,0.0,0.0,0.0,0.0,0.0,0.0,0.0,0.0,0.0,0.0,0.0,0.0,0.0,0.0,0.0,0.0,0.0,0.0,0.0,0.0,0.0,0.0,0.0,0.0,2.4298,2.4313,0.0,0.0,0.0,0.0,0.0,0.0,0.0,0.0,0.0,0.0,0.0,2.9879,3.0315,0.0,0.0,0.0,0.0,0.0,0.0,0.0,0.0,0.0,0.0,0.0,0.0,3.2866,3.5937,3.6607,3.7678,3.9385,3.9661,3.9833,3.9961,3.9809,3.9503,3.8988,0.0,0.0,0.0,0.0,0.0,0.0,0.0,0.0,0.0,0.0,0.0,0.0,0.0,0.0,0.0,0.0,0.0,0.0,0.0,0.0,0.0,0.0,0.0,0.0,0.0,2.8397,0.0,0.0,0.0,0.0,0.0,0.0,0.0,0.0,0.0,0.0,0.0,3.1103,3.245,3.2906,3.3449,3.4336,3.4543,3.4531,0.0,0.0,0.0,0.0,0.0,0.0,0.0,0.0,0.0,0.0,0.0,0.0,0.0,0.0,3.2639,3.2445,3.149,3.073,3.0759,0.0,0.0,0.0,0.0,0.0,0.0,0.0,0.0,0.0,0.0,0.0,0.0,0.0,0.0,2.6288,0.0,2.6542,0.0,0.0,0.0,0.0,0.0,0.0,0.0,0.0,3.0911,3.133,3.1554,3.2003,3.2198,0.0,3.2198,3.1659,0.0,0.0,0.0,0.0,0.0,0.0,0.0,0.0,3.2919,3.547,3.6303,3.7405,3.8897,3.9276,3.9547,3.9746,3.9935,3.9724,3.9005,3.7567,3.6434,0.0,0.0,0.0,0.0,0.0,0.0,0.0,0.0,0.0,0.0,0.0,0.0,0.0,0.0,0.0,0.0,0.0,0.0,0.0,0.0,0.0,0.0,0.0,2.9414,0.0,0.0,0.0,0.0,0.0,0.0,0.0,0.0,0.0,3.1127,3.1733,3.2724,3.4064,3.4527,3.494,3.551,0.0,0.0,0.0,0.0,0.0,0.0,0.0,3.3208,3.3146,3.3032,3.3089,3.3551,3.3978,3.4635,3.5766,0.0,0.0,3.4627,3.381,3.3257,3.3297,3.2655,3.2113,3.2116,3.2333,3.2523,0.0,0.0,0.0,0.0,0.0,0.0,0.0,0.0,2.775,2.7764,0.0,2.8368,0.0,0.0,0.0,0.0,0.0,3.0223,0.0,0.0,3.2243,3.2901,3.3484,3.3529,3.3544,3.3514,3.3514,3.317,3.2467,3.124,0.0,0.0,0.0,0.0,0.0,0.0,3.3311,3.5074,3.608,3.7222,3.8507,3.8832,3.9131,3.9501,3.9772,3.964,3.9073,3.8971,3.7973,3.5836,3.5616,0.0,0.0,0.0,0.0,0.0,0.0,0.0,0.0,0.0,0.0,0.0,0.0,0.0,0.0,0.0,0.0,0.0,0.0,0.0,0.0,3.0602,0.0,0.0,0.0,0.0,0.0,0.0,0.0,0.0,0.0,0.0,3.2913,3.344,3.416,3.4986,0.0,0.0,0.0,0.0,3.5243,3.5156,3.4523,3.4122,3.4191,3.3665,3.3563,3.4439,0.0,0.0,3.5114,3.6009,3.6619,3.6768,3.744,3.7819,3.7125,3.6237,3.5669,3.5712,3.5109,3.4653,3.4627,3.4175,3.3675,3.0969,0.0,0.0,0.0,0.0,3.0291,3.0374,3.0374,3.0374,3.0402,3.036,3.0088,0.0,0.0,0.0,0.0,0.0,0.0,3.1809,3.2946,3.3604,3.4039,3.4218,3.4696,3.4681,3.4234,3.4234,3.3858,3.3215,3.2826,3.1824,3.0268,0.0,0.0,0.0,0.0,3.322,3.5089,3.5784,3.6618,3.7725,3.8258,3.8871,3.9642,3.9798,3.9876,3.9766,3.9259,3.87,3.8024,3.6462,0.0,0.0,0.0,0.0,0.0,0.0,0.0,0.0,0.0,0.0,0.0,0.0,0.0,0.0,0.0,0.0,0.0,0.0,0.0,2.9967,3.0635,3.0853,0.0,0.0,0.0,0.0,0.0,0.0,0.0,0.0,0.0,3.6119,3.5785,3.5881,0.0,0.0,3.7162,3.7162,3.6974,3.664,3.6038,3.579,0.0,3.574,3.5658,3.5726,3.6087,3.6238,3.6444,3.6831,3.7213,3.7663,3.8295,3.8618,3.89,3.9246,3.8285,3.7442,3.7381,3.7243,3.7146,3.7187,3.701,3.6849,3.3261,3.222,3.203,3.196,3.199,3.2199,3.2288,3.2288,3.2288,3.2288,3.2287,3.1884,3.1689,3.1674,3.13,0.0,0.0,0.0,3.3125,3.3903,3.4577,3.4891,3.4906,3.5295,3.5295,3.4891,3.4891,3.4547,3.3888,3.3919,3.3155,3.1734,0.0,0.0,3.2465,3.2897,3.3742,3.4972,3.5631,3.632,3.7103,3.7899,3.8706,3.9478,3.9687,3.991,4.0087,3.969,3.9292,3.8988,3.7686,3.6705,0.0,0.0,0.0,0.0,0.0,0.0,0.0,0.0,0.0,0.0,0.0,3.0349,0.0,0.0,0.0,0.0,3.0607,3.0991,3.1391,3.195,0.0,0.0,0.0,0.0,0.0,0.0,0.0,3.6329,3.7467,3.8303,3.8745,3.8379,3.8062,3.7991,3.7973,3.8098,3.841,0.0,3.7437,3.7276,3.6707,3.6409,3.6779,3.6657,3.6795,3.7612,3.8338,3.8953,3.9355,3.9555,3.9853,4.0301,4.0213,4.0183,4.0774,3.9837,3.9006,3.9036,3.882,3.8672,3.8739,3.8496,3.8267,3.5131,3.4756,3.3925,3.3535,3.3477,3.3602,3.3664,3.3649,3.3664,3.3664,3.3649,3.3589,3.3544,3.3499,3.3499,0.0,3.3589,3.4234,3.4518,3.4577,3.522,3.5489,3.5489,3.5489,3.5489,3.5489,3.5549,3.525,3.4698,3.4728,3.4397,3.3829,3.3754,3.3694,3.3604,3.4189,3.4611,3.4827,3.5651,3.6303,3.6801,3.7833,3.8628,3.9179,3.953,3.9833,4.007,4.0113,3.9808,3.9123,3.8971,3.8278,3.6965,0.0,0.0,0.0,0.0,0.0,0.0,0.0,0.0,0.0,0.0,0.0,0.0,0.0,0.0,0.0,3.2395,0.0,3.387,3.4054,0.0,0.0,0.0,3.4842,3.584,3.6234,3.7167,3.9031,0.0,0.0,4.0665,4.0846,4.0385,3.903,3.886,3.9132,3.99,3.8744,3.8046,3.8799,3.7661,3.7015,3.7823,3.7441,3.7636,3.9142,4.0276,4.1111,4.1826,4.2153,4.2413,4.2395,4.1965,4.1502,4.1638,4.1016,4.0534,4.0641,3.9965,3.9408,3.9457,3.8987,3.858,3.5726,3.5942,3.5982,3.5477,3.4768,3.4961,3.5026,3.5026,3.504,3.504,3.4996,3.4487,3.3963,3.3499,3.3499,3.3769,3.4279,3.4444,3.4756,3.5265,3.5429,3.5489,3.5489,3.5489,3.5489,3.5534,3.6013,3.6178,3.6076,3.6477,3.6626,3.6462,3.6013,3.5297,3.4292,3.4429,3.5013,3.6064,3.6378,3.6894,3.7592,3.8462,3.8934,3.905,3.9494,3.9833,4.007,4.0113,4.0028,3.9825,3.8768,3.8007,3.7652,3.6349,0.0,0.0,0.0,0.0,0.0,0.0,0.0,0.0,0.0,3.2354,3.2893,0.0,3.2944,0.0,3.363,3.4156,3.4342,3.4993,0.0,0.0,3.5637,3.6177,3.7071,3.7547,3.8311,3.9579,4.0432,4.0835,4.0618,4.1197,4.1268,4.0302,4.0273,4.048,4.073,4.0526,4.0304,4.0416,4.0139,4.0029,4.0102,4.0147,4.0213,4.0929,4.1311,4.1618,4.1999,4.2172,4.2295,4.2366,4.2325,4.224,4.2273,4.2167,4.2134,4.2087,4.1142,4.0223,4.0219,4.0121,4.0048,3.5886,3.6194,3.6479,3.6384,3.606,3.5992,3.5953,3.5923,3.5639,3.5489,3.5489,3.5115,3.4726,3.4397,3.4382,3.4592,3.4936,3.4968,3.5295,3.5923,3.5938,3.6088,3.6342,3.6357,3.6357,3.6372,3.6731,3.6881,3.6926,3.724,3.7404,3.7404,3.706,3.6522,3.5804,3.5537,3.5744,3.6477,3.6709,3.7105,3.7668,3.819,3.8576,3.8805,3.9335,3.988,4.0484,4.0231,4.0265,4.051,3.9174,3.8244,3.7905,3.6789,3.5639,0.0,0.0,0.0,0.0,0.0,0.0,0.0,0.0,0.0,0.0,0.0,3.4184,3.4883,3.5284,3.5678,3.5977,3.6446,3.6729,3.6746,3.6916,3.7453,3.837,3.8803,3.9445,4.0615,4.1261,4.1548,4.135,4.177,4.1973,4.154,4.1669,4.1737,4.158,4.1284,4.1154,4.1535,4.1334,4.1113,4.1113,4.1158,4.138,4.1856,4.2072,4.23,4.2777,4.3011,4.3115,4.3194,4.3026,4.2848,4.2884,4.2663,4.2536,4.2489,4.2,4.1522,4.1541,4.1638,4.1609,3.6019,3.6251,3.6433,3.6798,3.7247,3.6865,3.6686,3.6567,3.5998,3.5759,3.5759,3.5759,3.5744,3.5744,3.5744,3.5744,3.5744,3.5711,3.6058,3.6582,3.6596,3.6896,3.7404,3.7404,3.7404,3.7404,3.7494,3.7539,3.7539,3.7629,3.7639,3.7659,3.7584,3.7539,3.7509,3.7,3.6731,3.6765,3.7065,3.7286,3.752,3.7681,3.8046,3.8658,3.9269,4.0057,4.1036,4.0619,4.0629,4.1119,3.9884,3.8802,3.8075,3.733,3.6332,0.0,3.4928,0.0,0.0,0.0,0.0,0.0,0.0,0.0,0.0,3.4573,3.547,3.6846,3.7032,3.7371,3.799,3.8142,3.8193,3.8176,3.8262,3.8649,3.9551,3.9911,4.045,4.1578,4.1784,4.1934,4.2151,4.2308,4.2391,4.2422,4.2564,4.2557,4.2285,4.1715,4.16,4.2344,4.1866,4.1609,4.157,4.1546,4.1813,4.2435,4.2698,4.3066,4.3772,4.402,4.4177,4.4209,4.3779,4.3455,4.3515,4.3045,4.2697,4.2879,4.2902,4.2851,4.2786,4.2783,4.274,3.7021,3.7529,3.7567,3.7839,3.8216,3.7943,3.7595,3.7225,3.7105,3.7045,3.706,3.7045,3.7011,3.7045,3.7045,3.7045,3.7045,3.7045,3.712,3.7225,3.724,3.73,3.7404,3.7404,3.7404,3.7449,3.7943,3.8212,3.8227,3.8766,3.9035,3.902,3.8482,3.8197,3.8197,0.0,0.0,0.0,3.8256,3.8273,3.806,3.8075,3.8421,3.9072,3.9673,0.0,4.1569,4.1681,4.1546,4.1204,4.0375,0.0,0.0,0.0,0.0,0.0,0.0,0.0,0.0,0.0,0.0,0.0,3.7212,3.7077,3.706,3.7195,3.7381,3.7669,3.8227,3.8633,3.8785,3.9326,3.969,3.969,3.9789,3.9955,4.0182,4.048,4.0833,4.11,4.134,4.1587,4.1845,4.1956,4.2044,4.2187,4.2353,4.2519,4.2607,4.2632,4.283,4.3119,4.2987,4.3002,4.3039,4.2999,4.2996,4.3343,4.3413,4.3552,4.3763,4.3897,4.3974,4.4067,4.4054,4.4036,4.4158,4.4156,4.4094,4.4266,4.4304,4.4059,4.305,4.2833,4.2804,3.7469,0.0,3.8445,3.8702,0.0,3.8944,3.8733,3.8347,3.7704,3.7404,3.7404,3.7404,3.7404,3.7404,3.7404,3.7404,3.7404,3.7404,3.7584,3.7883,3.7898,3.8078,3.8372,3.8407,3.8407,3.8387,3.8736,3.8901,3.8916,3.9245,3.9388,3.9409,3.9065,3.8901,3.8901,3.8886,3.8901,3.8901,3.8432,3.8141,3.8062,3.7991,3.8245,3.8822,3.9765,0.0,0.0,0.0,0.0,0.0,0.0,0.0,0.0,0.0,0.0,3.843,3.8108,3.7898,3.7898,3.7898,3.8075,3.843,3.8785,3.8819,3.8464,3.8447,3.8599,3.8954,3.9326,3.9529,3.9554,3.9893,4.0113,4.0096,4.0146,4.0213,4.0305,4.0478,4.068,4.0847,4.1018,4.1221,4.1403,4.1582,4.1697,4.1827,4.204,4.2231,4.2474,4.2825,4.3123,4.334,4.3411,4.3463,4.3497,4.3479,4.3515,4.3531,4.3548,4.36,4.3686,4.3718,4.3783,4.3881,4.3989,4.4079,4.4188,4.4292,4.4374,4.4537,4.4605,4.4517,4.3843,4.3871,4.3874,3.786,3.8644,3.904,3.9315,3.9551,3.9847,3.9891,3.9679,0.0,0.0,0.0,3.7764,3.7764,3.7764,3.7764,3.7764,3.7764,3.7749,3.8063,3.8556,3.8571,3.8871,3.9373,3.9388,3.9388,3.9388,3.9388,3.9388,3.9388,3.9388,3.9388,3.9403,3.9544,3.9664,3.9753,3.9768,3.9768,3.9694,3.8472,3.7907,3.8012,3.7837,3.8058,3.87,3.987,4.1089,4.2328,4.2235,4.2445,4.3121,4.2162,4.1499,4.1373,4.024,3.958,3.9546,3.9022,3.8684,3.8684,3.8684,3.8937,3.9546,4.0146,4.0113,3.9283,3.9174,3.9453,4.0062,4.0113,4.0096,4.0113,4.0113,4.0113,4.0113,4.0113,4.0163,4.0238,4.0288,4.0387,4.06,4.0728,4.0888,4.1023,4.1192,4.1358,4.1475,4.1697,4.1956,4.2269,4.267,4.3013,4.3269,4.3376,4.3411,4.3481,4.3479,4.3479,4.3496,4.3496,4.3532,4.3565,4.3582,4.3634,4.3736,4.3818,4.3881,4.3961,4.4017,4.4109,4.4292,4.4383,4.4463,4.4646,4.4852,4.4817,3.8347,3.9017,3.9099,3.9465,4.0051,4.047,4.0848,4.0995,3.9694,3.914,3.914,3.914,3.9104,3.9104,3.9104,3.9089,3.914,3.9104,3.9149,3.9275,3.926,3.9284,3.9388,3.9388,3.9388,3.9388,3.9388,3.9388,3.9388,3.9403,3.9388,3.9478,3.9978,4.0546,4.107,4.11,4.11,4.107,3.9266,3.8397,3.8586,3.8125,3.8433,3.9582,4.0324,4.1386,4.2686,4.3122,4.3298,4.3194,4.3014,4.2692,4.2185,4.1931,4.183,4.183,4.1728,4.1677,4.1644,4.1677,4.1711,4.1813,4.1931,4.139,4.0096,3.996,3.9994,4.0113,4.0113,4.0113,4.0113,4.0113,4.0113,4.0113,4.0113,4.0113,4.0138,4.0213,4.0305,4.0379,4.0461,4.0607,4.0745,4.0888,4.1029,4.1186,4.1471,4.1805,4.2225,4.2632,4.2938,4.3123,4.3287,4.3394,4.3411,4.3463,4.3479,4.3479,4.3479,4.3515,4.3513,4.3513,4.3548,4.3599,4.3632,4.3701,4.3802,4.3883,4.3942,4.4033,4.4128,4.4229,4.4393,4.4573,4.4714,3.8901,3.9583,3.9985,4.0308,4.0622,4.0982,4.1232,4.1324,4.0741,4.0472,4.0472,4.0487,4.0292,3.9963,3.9948,3.9753,3.9388,3.9388,3.9388,3.9388,3.9388,3.9388,3.9418,3.9783,3.9948,3.9978,4.0322,4.0487,4.0487,4.0487,4.0487,4.0516,4.0786,4.107,4.1369,4.1422,4.1422,4.1354,3.9783,3.8996,3.9088,3.8685,3.8849,3.9612,4.0567,4.1533,4.2522,4.3052,4.3386,4.3538,4.3692,4.371,4.3555,4.3132,4.2895,4.2895,4.2506,4.2303,4.2303,4.2303,4.2303,4.2303,4.2303,4.2016,4.1382,4.0916,4.051,4.0163,4.0113,4.0113,4.0113,4.0113,4.0113,4.0113,4.0113,4.0113,4.0096,4.0163,4.0171,4.0213,4.0313,4.0412,4.0478,4.0607,4.0793,4.0982,4.1335,4.1697,4.204,4.2371,4.2689,4.2956,4.3178,4.3323,4.3376,4.3445,4.3479,4.3479,4.3479,4.3479,4.3479,4.3479,4.3496,4.3549,4.3548,4.3565,4.3686,4.3718,4.3783,4.3865,4.3974,4.4097,4.4188,4.4368,4.4646,3.9353,4.0112,4.0745,4.1122,4.1383,4.1718,4.1818,4.1818,4.1833,4.1818,4.1788,4.1519,4.11,4.0651,4.0621,4.0352,3.9903,3.9858,3.9858,3.9858,3.9858,3.9858,3.9903,4.0397,4.0621,4.0666,4.1145,4.1422,4.1422,4.1422,4.1497,4.1617,4.1647,4.1707,4.1818,4.1818,4.1818,4.1743,4.0666,4.0008,3.9843,3.9692,3.9756,4.0098,4.1124,4.1983,4.251,4.3018,4.346,4.3789,4.4109,4.4355,4.4553,4.4012,4.369,4.3623,4.3132,4.2811,4.2838,4.2838,4.2811,4.2811,4.2794,4.2726,4.2523,4.2033,4.139,4.0756,4.0671,4.0654,4.0688,4.0654,4.0603,4.0603,4.0603,4.0671,4.062,4.0603,4.0519,4.0417,4.0459,4.0476,4.0331,4.0362,4.0583,4.0912,4.1221,4.152,4.1805,4.204,4.2353,4.2691,4.2976,4.316,4.3323,4.3429,4.348,4.3479,4.3479,4.3479,4.3479,4.3479,4.3479,4.3515,4.3496,4.3513,4.3565,4.3582,4.3634,4.3736,4.3832,4.3908,4.402,4.4218,4.4524,3.9441,4.0301,4.0774,4.1603,4.253,4.2937,4.3065,4.3065,4.311,4.311,4.2946,4.1908,4.1369,4.1309,4.1294,4.122,4.1145,4.1227,4.116,4.116,4.1205,4.119,4.113,4.1265,4.1332,4.1332,4.1399,4.1504,4.1542,4.1497,4.1698,4.2246,4.2321,4.2551,4.306,4.308,4.3095,4.3095,4.2462,4.1841,4.1272,4.1355,4.1548,4.1748,4.2509,4.2909,4.2903,4.3477,4.3815,4.3809,4.4027,4.4286,4.4559,4.453,4.4479,4.4451,4.4395,4.4367,4.4361,4.4395,4.4327,4.4395,4.431,4.4012,4.3386,4.3223,4.2878,4.2252,4.211,4.1982,4.211,4.2016,4.1931,4.188,4.1931,4.21,4.1982,4.2083,4.1873,4.117,4.1128,4.0874,4.0443,4.045,4.058,4.104,4.1218,4.1476,4.1828,4.2092,4.226,4.2503,4.2746,4.303,4.3215,4.3304,4.3429,4.348,4.3479,4.3479,4.3479,4.3479,4.3479,4.3479,4.3479,4.3496,4.3496,4.3496,4.3531,4.3617,4.3684,4.3716,4.3923,4.4079,4.4302,4.0021,4.0345,4.0972,4.1813,4.2688,4.313,4.3305,4.3305,4.3305,4.3305,4.3245,4.2761,4.2327,4.2021,4.2006,4.1796,4.1422,4.1422,4.1422,4.1422,4.1422,4.1422,4.1452,4.1841,4.2006,4.2051,4.2342,4.2536,4.2536,4.2521,4.2686,4.291,4.294,4.309,4.329,4.3305,4.3305,4.329,4.3075,4.2806,4.2515,4.2115,4.1969,4.2175,4.2741,4.3235,4.3518,4.4088,4.4526,4.4778,4.476,4.4855,4.5069,4.4795,4.4598,4.4598,4.4598,4.4598,4.4598,4.4598,4.4598,4.4598,4.4598,4.4434,4.4147,4.4096,4.3944,4.3623,4.2828,4.2303,4.232,4.2303,4.2303,4.2303,4.2303,4.232,4.2303,4.2303,4.2151,4.188,4.1847,4.1745,4.15,4.152,4.1691,4.1926,4.2058,4.2275,4.2737,4.3047,4.312,4.3051,4.3252,4.3332,4.3269,4.3304,4.3411,4.348,4.3479,4.3479,4.3479,4.3479,4.3479,4.3479,4.3479,4.3479,4.3496,4.3479,4.3496,4.3548,4.3582,4.3649,4.3851,4.3958,4.4128,4.0938,4.1122,4.1752,4.2332,4.2795,4.317,4.3305,4.3305,4.3305,4.3305,4.3305,4.3305,4.3075,4.2671,4.2626,4.2357,4.1953,4.1923,4.1908,4.1923,4.1908,4.1923,4.1968,4.2372,4.2626,4.2686,4.309,4.329,4.3305,4.3305,4.3305,4.3305,4.3305,4.3305,4.3305,4.3305,4.3305,4.3305,4.3305,4.3305,4.3234,4.2817,4.2605,4.2762,4.335,4.3811,4.4098,4.4746,4.5179,4.5465,4.5499,4.5563,4.566,4.5194,4.4835,4.4632,4.4598,4.4598,4.4598,4.4598,4.4598,4.4598,4.4598,4.4598,4.4598,4.4598,4.4598,4.4496,4.3599,4.299,4.2956,4.2912,4.2912,4.2939,4.2939,4.2929,4.299,4.2939,4.2878,4.2658,4.2608,4.2489,4.2364,4.2315,4.2387,4.2543,4.28,4.313,4.3506,4.374,4.3842,4.3707,4.3895,4.3808,4.3341,4.3251,4.3358,4.3463,4.3479,4.3479,4.3479,4.3479,4.3479,4.3479,4.3479,4.3479,4.3479,4.3479,4.3479,4.3496,4.3531,4.3599,4.3718,4.3814,4.391,4.2157,4.2789,4.3351,4.3348,4.301,4.324,4.3319,4.3364,4.3305,4.3305,4.3305,4.3305,4.3275,4.3215,4.3185,4.3215,4.3155,4.311,4.308,4.308,4.3125,4.317,4.32,4.323,4.323,4.3155,4.323,4.3305,4.3305,4.3305,4.3305,4.3305,4.3305,4.3305,4.3305,4.3305,4.3305,4.3305,4.3305,4.3305,4.3329,4.3648,4.3844,4.3906,4.4668,4.4904,4.48,4.5385,4.57,4.5531,4.5998,4.6301,4.6384,4.5954,4.5348,4.475,4.4632,4.4615,4.4615,4.4598,4.4598,4.4598,4.4598,4.4598,4.4598,4.4598,4.4598,4.4581,4.4445,4.4327,4.4327,4.4209,4.4293,4.4327,4.4395,4.4395,4.4412,4.4259,4.4096,4.3555,4.3369,4.3166,4.2489,4.2313,4.2552,4.2702,4.2748,4.304,4.3504,4.3711,4.4015,4.4316,4.4503,4.4404,4.3428,4.3561,4.3578,4.3593,4.3754,4.3534,4.3497,4.3479,4.3497,4.3497,4.3479,4.3479,4.3479,4.3479,4.3479,4.3496,4.3496,4.3548,4.3599,4.3617,4.3718,4.3029,4.3618,4.4087,4.4273,4.4269,4.4031,4.3958,4.3873,4.3454,4.3305,4.3305,4.3305,4.3305,4.3305,4.3305,4.3305,4.3305,4.3305,4.3305,4.3305,4.3305,4.3305,4.3305,4.3305,4.3305,4.3305,4.3305,4.3305,4.3305,4.3305,4.3305,4.3305,4.3305,4.3305,4.3305,4.3305,4.3305,4.3305,4.3305,4.3305,4.3344,4.3738,4.4003,4.4026,4.4754,4.5279,4.5396,4.6124,4.6578,4.6783,4.6917,4.7024,4.7018,4.6638,4.6075,4.5399,4.5297,4.5094,4.4654,4.4598,4.4598,4.4598,4.4598,4.4598,4.4598,4.4598,4.4598,4.4598,4.4598,4.4598,4.4598,4.4598,4.4598,4.4598,4.4598,4.4598,4.4598,4.4598,4.4479,4.4242,4.4147,4.4012,4.3785,4.3768,4.384,4.3933,4.4078,4.4239,4.457,4.4925,4.506,4.5005,4.525,4.5315,4.4556,4.4631,4.4711,4.4399,4.4268,4.3956,4.3828,4.3736,4.3736,4.3681,4.3608,4.3552,4.3571,4.3479,4.3479,4.3479,4.3479,4.3496,4.3513,4.3566,4.3634,4.4034,4.4515,4.4815,4.498,4.5052,4.4728,4.4631,4.4586,4.4152,4.3798,4.3633,4.3643,4.3514,4.3319,4.3305,4.3305,4.3305,4.3305,4.3305,4.3305,4.3305,4.3305,4.3305,4.3305,4.3305,4.3305,4.3305,4.3305,4.3305,4.3305,4.3305,4.3305,4.3305,4.3305,4.3305,4.3305,4.3305,4.3305,4.3305,4.3305,4.3384,4.3738,4.4003,4.4104,4.4792,4.5389,4.5796,4.6493,4.7098,4.7438,4.7665,4.7678,4.755,4.7308,4.6819,4.616,4.6058,4.5838,4.5376,4.5106,4.4942,4.4908,4.4733,4.4598,4.4598,4.4598,4.4598,4.4598,4.4598,4.4598,4.4598,4.4598,4.4598,4.4598,4.4598,4.4598,4.4598,4.4598,4.4598,4.4564,4.4547,4.4564,4.4598,4.4564,4.4575,4.4737,4.4886,4.5069,4.5336,4.5641,4.5915,4.5663,4.6018,4.6179,4.6013,4.6154,4.5732,4.537,4.5095,4.469,4.4378,4.4232,4.4066,4.3938,4.3809,4.3718,4.3626,4.3516,4.3479,4.3479,4.3479,4.3496,4.3513,4.3549,4.36,4.5295,4.5579,4.5636,4.5554,4.5472,4.5364,4.5304,4.5289,4.5214,4.4796,4.4347,4.4317,4.4032,4.3499,4.3454,4.3349,4.3394,4.3334,4.3305,4.3305,4.3305,4.3305,4.3305,4.3305,4.3305,4.3305,4.3305,4.3305,4.3305,4.3305,4.3305,4.3305,4.3305,4.3305,4.3305,4.3305,4.3305,4.3305,4.3305,4.3305,4.3384,4.3738,4.4003,4.4065,4.4754,4.5389,4.5812,4.6509,4.708,4.7504,4.8097,4.8306,4.8014,4.7906,4.7581,4.6938,4.6786,4.6786,4.6633,4.6058,4.5703,4.5618,4.506,4.4733,4.4722,4.4649,4.4598,4.4598,4.4598,4.4598,4.4598,4.4598,4.4598,4.4598,4.4598,4.4598,4.4598,4.4598,4.4598,4.4598,4.4598,4.4598,4.4598,4.4598,4.4598,4.4637,4.4831,4.5032,4.522,4.5546,4.5938,4.6255,4.6536,4.6704,4.7216,4.7622,4.6895,4.6284,4.603,4.5718,4.5424,4.5223,4.4984,4.4819,4.4397,4.4268,4.3883,4.3773,4.3516,4.3479,4.3479,4.3497,4.3496,4.3532,4.3549,4.5884,4.63,4.646,4.6559,4.6563,4.6202,4.5992,4.5933,4.5529,4.5185,4.5005,4.499,4.487,4.4601,4.4227,4.3977,4.3973,4.3529,4.3305,4.3319,4.3305,4.3305,4.3305,4.3305,4.3305,4.3305,4.3305,4.3305,4.3305,4.3305,4.3305,4.3305,4.3305,4.3305,4.3305,4.3305,4.3305,4.3305,4.3305,4.3305,4.3329,4.3738,4.3988,4.4104,4.4754,4.5389,4.5812,4.6493,4.7064,4.7486,4.813,4.8524,4.8605,4.8663,4.8308,4.7682,4.7564,4.7293,4.6836,4.6616,4.6447,4.6329,4.5771,4.5415,4.528,4.4919,4.4682,4.4632,4.4598,4.4598,4.4598,4.4598,4.4598,4.4598,4.4598,4.4598,4.4598,4.4598,4.4598,4.4598,4.4598,4.4598,4.4598,4.4598,4.4598,4.4626,4.4848,4.5032,4.5113,4.5511,4.5879,4.6211,4.6661,4.707,4.7385,4.7687,4.7496,4.7088,4.6872,4.6654,4.6397,4.6232,4.5975,4.5571,4.5149,4.4745,4.4342,4.4085,4.392,4.3608,4.3625,4.3588,4.3497,4.3496,4.3513,4.6239,4.6727,4.6844,4.7077,4.7279,4.6845,4.6638,4.6636,4.6247,4.5918,4.5723,4.5678,4.5529,4.5259,4.4855,4.4691,4.4631,4.4227,4.3928,4.3633,4.3364,4.3305,4.3305,4.3305,4.3305,4.3305,4.3305,4.3305,4.3305,4.3305,4.3305,4.3305,4.3305,4.3305,4.3305,4.3305,4.3305,4.3305,4.3305,4.3305,4.3369,4.3738,4.4026,4.4205,4.483,4.5426,4.5905,4.6528,4.708,4.7537,4.8147,4.8642,4.897,4.8984,4.8798,4.846,4.8291,4.8105,4.7665,4.7394,4.7208,4.709,4.6532,4.6126,4.6024,4.5602,4.5444,4.5427,4.5207,4.5021,4.4993,4.4733,4.4615,4.4598,4.4598,4.4598,4.4598,4.4598,4.4598,4.4598,4.4598,4.4598,4.4598,4.4598,4.4598,4.4626,4.4831,4.5022,4.513,4.5476,4.5829,4.6211,4.6661,4.7007,4.728,4.7603,4.7951,4.7836,4.7677,4.7461,4.7241,4.7186,4.7021,4.6361,4.5847,4.5461,4.5076,4.4892,4.469,4.4305,4.3937,4.3809,4.3773,4.3534,4.3496,4.6314,4.6887,4.6931,4.7062,4.7309,4.7264,4.7219,4.7264,4.7234,4.6875,4.6441,4.6367,4.6067,4.5544,4.5439,4.5364,4.5319,4.5155,4.4825,4.4332,4.3868,4.3529,4.3319,4.3305,4.3305,4.3305,4.3305,4.3305,4.3305,4.3305,4.3305,4.3305,4.3305,4.3305,4.3305,4.3305,4.3305,4.3305,4.3305,4.3305,4.3369,4.3738,4.4104,4.432,4.4889,4.5484,4.6064,4.6668,4.7167,4.7604,4.8195,4.8642,4.894,4.9018,4.8968,4.8917,4.8984,4.8934,4.8798,4.8291,4.7956,4.7919,4.731,4.6853,4.6819,4.6633,4.6498,4.6498,4.6075,4.5754,4.5635,4.5309,4.4919,4.4682,4.4682,4.4615,4.4598,4.4598,4.4598,4.4598,4.4598,4.4598,4.4598,4.4598,4.4598,4.4654,4.4831,4.4968,4.513,4.5432,4.5854,4.6253,4.6661,4.7007,4.728,4.7666,4.7992,4.7997,4.7949,4.7937,4.7847,4.7829,4.781,4.7186,4.6544,4.6177,4.5847,4.5626,4.5333,4.4947,4.4599,4.4305,4.4066,4.3883,4.3644,4.6639,4.6931,4.7121,4.7222,4.7309,4.7309,4.7309,4.7309,4.7309,4.7204,4.704,4.704,4.6905,4.6726,4.6247,4.6052,4.5963,4.5559,4.5229,4.505,4.49,4.4167,4.3454,4.3319,4.3319,4.3334,4.3364,4.3305,4.3305,4.3305,4.3305,4.3305,4.3305,4.3305,4.3305,4.3305,4.3305,4.3305,4.3305,4.3423,4.3596,4.3871,4.4166,4.4549,4.5114,4.5614,4.6171,4.6979,4.7721,4.8212,4.8388,4.8642,4.897,4.9018,4.9018,4.9018,4.9018,4.9018,4.8968,4.8815,4.8714,4.8663,4.802,4.7601,4.7597,4.7107,4.687,4.6769,4.6566,4.6498,4.6481,4.6278,4.5957,4.5432,4.5055,4.4699,4.4598,4.4598,4.4598,4.4598,4.4598,4.4598,4.4598,4.4598,4.4598,4.4626,4.482,4.5022,4.5113,4.5459,4.5879,4.6235,4.6619,4.6985,4.7341,4.7728,4.7974,4.8032,4.8076,4.8194,4.8159,4.8141,4.8141,4.7921,4.7278,4.6838,4.6544,4.6287,4.5938,4.57,4.5516,4.5296,4.4764,4.4434,4.4066,4.6844,4.7077,4.7251,4.7309,4.7309,4.7309,4.7309,4.7309,4.7309,4.7309,4.7309,4.7309,4.7309,4.7264,4.689,4.6741,4.6681,4.6322,4.6007,4.5663,4.5394,4.484,4.4302,4.4112,4.4018,4.3708,4.3708,4.3559,4.3349,4.3305,4.3305,4.3305,4.3305,4.3305,4.3305,4.3305,4.3305,4.3344,4.3384,4.3542,4.369,4.4065,4.4458,4.4874,4.5358,4.5884,4.6545,4.737,4.8049,4.842,4.8595,4.8753,4.897,4.9018,4.9018,4.9018,4.9018,4.9018,4.9018,4.9018,4.9018,4.8951,4.8545,4.8426,4.8325,4.7953,4.7716,4.7767,4.7462,4.7293,4.7192,4.6989,4.6616,4.6194,4.5754,4.5275,4.4733,4.4598,4.4598,4.4598,4.4598,4.4598,4.4598,4.4598,4.4598,4.4654,4.4831,4.494,4.5076,4.5511,4.5905,4.6211,4.6596,4.7007,4.7341,4.7708,4.7974,4.8034,4.8151,4.8305,4.8324,4.8324,4.8288,4.8158,4.781,4.7535,4.7259,4.7058,4.6911,4.6709,4.6544,4.6122,4.5535,4.5186,4.48,4.7077,4.7309,4.7309,4.7309,4.7309,4.7309,4.7309,4.7309,4.7309,4.7309,4.7309,4.7309,4.7309,4.7309,4.7219,4.7279,4.7264,4.7115,4.6875,4.6396,4.5963,4.5559,4.5529,4.514,4.484,4.4481,4.4421,4.4137,4.3843,4.3633,4.3574,4.3693,4.3648,4.3559,4.3723,4.3633,4.3569,4.3783,4.3993,4.4101,4.4206,4.4573,4.4969,4.5262,4.5776,4.642,4.7149,4.7754,4.8179,4.8515,4.8707,4.8832,4.8987,4.9018,4.9018,4.9018,4.9018,4.9018,4.9018,4.9018,4.9018,4.8984,4.8984,4.9018,4.89,4.8781,4.8748,4.8731,4.8376,4.8088,4.797,4.7445,4.7124,4.6955,4.6853,4.621,4.5213,4.4784,4.4733,4.4671,4.4699,4.4598,4.4598,4.4598,4.4598,4.4626,4.4803,4.4968,4.5157,4.5485,4.5854,4.6186,4.6596,4.7048,4.7385,4.7687,4.7913,4.8073,4.819,4.8324,4.8324,4.8324,4.8324,4.8196,4.7993,4.7975,4.8012,4.7865,4.77,4.7553,4.7259,4.6783,4.6287,4.6085,4.5792,4.7077,4.7309,4.7309,4.7309,4.7309,4.7309,4.7309,4.7309,4.7309,4.7309,4.7309,4.7309,4.7309,4.7309,4.7309,4.7309,4.7309,4.7309,4.7204,4.713,4.6995,4.6875,4.6606,4.5903,4.5274,4.5095,4.5095,4.499,4.484,4.4721,4.4855,4.4796,4.4676,4.484,4.4781,4.4732,4.4993,4.5131,4.5223,4.5187,4.5185,4.5457,4.5697,4.5824,4.6362,4.7062,4.7704,4.8049,4.834,4.8644,4.8769,4.8863,4.8987,4.9018,4.9018,4.9018,4.9018,4.9018,4.9018,4.9018,4.9018,4.9018,4.9018,4.9018,4.9018,4.9018,4.9018,4.9001,4.8849,4.8697,4.8663,4.8612,4.8189,4.78,4.7648,4.7344,4.6464,4.5805,4.55,4.5365,4.4959,4.4615,4.4615,4.4615,4.4615,4.4626,4.4793,4.4968,4.522,4.5485,4.5829,4.6161,4.6637,4.707,4.7341,4.7666,4.7972,4.8131,4.8229,4.8324,4.8324,4.8324,4.8324,4.8324,4.8288,4.8324,4.8324,4.8306,4.803,4.7993,4.792,4.7461,4.7095,4.6929,4.6617,4.7164,4.7309,4.7309,4.7309,4.7309,4.7309,4.7309,4.7309,4.7309,4.7309,4.7309,4.7309,4.7309,4.7309,4.7309,4.7309,4.7309,4.7309,4.7309,4.7294,4.7279,4.7294,4.7249,4.6636,4.6127,4.5843,4.5783,4.5648,4.5379,4.5319,4.5214,4.5289,4.5319,4.52,4.5331,4.5458,4.5507,4.5686,4.6017,4.6125,4.6252,4.6616,4.6849,4.6953,4.7482,4.8049,4.8001,4.8308,4.858,4.8769,4.888,4.8925,4.8987,4.9018,4.9018,4.9018,4.9018,4.9018,4.9018,4.9018,4.9018,4.9018,4.9018,4.9018,4.9018,4.9018,4.9018,4.9018,4.9001,4.9001,4.9018,4.9001,4.8731,4.8562,4.8409,4.824,4.775,4.6887,4.621,4.6075,4.5585,4.5263,4.5077,4.4908,4.4666,4.471,4.4848,4.5022,4.514,4.5432,4.5829,4.6228,4.6684,4.707,4.7341,4.7645,4.8032,4.817,4.8267,4.8324,4.8324,4.8324,4.8324,4.8324,4.8324,4.8324,4.8324,4.8324,4.8324,4.8213,4.8085,4.7957,4.7847,4.7645,4.7241,4.7309,4.7309,4.7309,4.7309,4.7309,4.7309,4.7309,4.7309,4.7309,4.7309,4.7309,4.7309,4.7309,4.7309,4.7309,4.7309,4.7309,4.7309,4.7309,4.7309,4.7309,4.7309,4.7249,4.713,4.6905,4.6474,4.6471,4.6157,4.5843,4.5618,4.5858,4.5678,4.5648,4.5855,4.5777,4.5883,4.6241,4.6492,4.69,4.7157,4.7349,4.7858,4.82,4.8462,4.8802,4.8912,4.8678,4.8768,4.8952,4.8849,4.8956,4.9018,4.9018,4.9018,4.9018,4.9018,4.9018,4.9018,4.9018,4.9018,4.9018,4.9018,4.9018,4.9018,4.9018,4.9018,4.9018,4.9018,4.9018,4.9018,4.9018,4.9018,4.9018,4.8951,4.8984,4.9018,4.8798,4.7834,4.731,4.6853,4.6346,4.5923,4.5635,4.5399,4.5026,4.4778,4.496,4.5066,4.5218,4.545,4.5863,4.6228,4.6684,4.7254,4.7539,4.7687,4.8052,4.8209,4.8324,4.8324,4.8324,4.8324,4.8324,4.8324,4.8324,4.8324,4.8324,4.8324,4.8324,4.8324,4.8269,4.8159,4.8196,4.8306,4.7828,4.7309,4.7309,4.7309,4.7309,4.7309,4.7309,4.7309,4.7309,4.7309,4.7309,4.7309,4.7309,4.7309,4.7309,4.7309,4.7309,4.7309,4.7309,4.7309,4.7309,4.7309,4.7309,4.7309,4.7309,4.7219,4.7204,4.71,4.6935,4.689,4.698,4.6741,4.689,4.686,4.6916,4.7014,4.7277,4.7433,4.7757,4.8183,4.8415,4.8677,4.9186,4.9564,4.9743,4.9954,4.9843,4.9654,4.9614,4.9489,4.9024,4.8987,4.9035,4.9069,4.9069,4.9018,4.9018,4.9018,4.9018,4.9018,4.9018,4.9018,4.9018,4.9018,4.9018,4.9018,4.9018,4.9018,4.9018,4.9018,4.9018,4.9018,4.9018,4.9018,4.9018,4.9018,4.9018,4.8934,4.8663,4.8206,4.7767,4.7141,4.6583,4.6363,4.6058,4.5686,4.5484,4.5512,4.5439,4.5343,4.5631,4.5941,4.633,4.6661,4.7258,4.7811,4.7872,4.8072,4.8209,4.8324,4.8324,4.8324,4.8324,4.8324,4.8324,4.8324,4.8324,4.8324,4.8324,4.8324,4.8324,4.8324,4.8324,4.8324,4.8324,4.8324,4.7309,4.7309,4.7309,4.7309,4.7309,4.7309,4.7309,4.7309,4.7309,4.7309,4.7309,4.7309,4.7309,4.7309,4.7309,4.7309,4.7309,4.7309,4.7309,4.7309,4.7309,4.7309,4.7309,4.7309,4.7309,4.7309,4.7309,4.7309,4.7309,4.7279,4.7309,4.7322,4.7381,4.751,4.7666,4.7946,4.8328,4.8769,4.9163,4.9584,4.9914,5.0621,5.0991,5.0795,5.1009,5.0928,5.0555,5.0532,5.0445,5.0137,4.9796,4.961,4.9475,4.9255,4.9035,4.9035,4.9018,4.9018,4.9018,4.9018,4.9018,4.9018,4.9018,4.9018,4.9018,4.9018,4.9018,4.9018,4.9018,4.9018,4.9018,4.9018,4.9018,4.9018,4.9018,4.9018,4.9018,4.9018,4.8765,4.8409,4.7851,4.7394,4.7242,4.6887,4.643,4.6225,4.6141,4.5941,4.5692,4.6055,4.6471,4.6617,4.6989,4.7417,4.7925,4.8012,4.8092,4.8229,4.8324,4.8324,4.8324,4.8324,4.8324,4.8324,4.8324,4.8324,4.8324,4.8324,4.8324,4.8324,4.8324,4.8324,4.8324,4.8324,4.8324,4.7309,4.7309,4.7309,4.7309,4.7309,4.7309,4.7309,4.7309,4.7309,4.7309,4.7309,4.7309,4.7309,4.7309,4.7309,4.7309,4.7309,4.7309,4.7309,4.7309,4.7309,4.7309,4.7309,4.7309,4.7309,4.7309,4.7309,4.7309,4.7309,4.7309,4.7337,4.7381,4.7553,4.7709,4.7922,4.8286,4.8687,4.9219,4.9661,5.0315,5.114,5.1809,5.213,5.1687,5.2084,5.1967,5.1392,5.134,5.1252,5.0997,5.0659,5.0338,5.0219,4.9763,4.939,4.9238,4.9086,4.9018,4.9018,4.9018,4.9018,4.9018,4.9018,4.9018,4.9018,4.9018,4.9018,4.9018,4.9018,4.9018,4.9018,4.9018,4.9018,4.9018,4.9018,4.9018,4.9018,4.9018,4.9018,4.8697,4.8359,4.8173,4.8003,4.7551,4.709,4.6908,4.6827,4.6714,4.6556,4.6974,4.7254,4.7192,4.7397,4.7713,4.7997,4.8108,4.8169,4.8267,4.8324,4.8324,4.8324,4.8324,4.8324,4.8324,4.8324,4.8324,4.8324,4.8324,4.8324,4.8324,4.8324,4.8324,4.8324,4.8324,4.8324,4.7309,4.7309,4.7309,4.7309,4.7309,4.7309,4.7309,4.7309,4.7309,4.7309,4.7309,4.7309,4.7309,4.7309,4.7309,4.7309,4.7309,4.7309,4.7309,4.7309,4.7309,4.7309,4.7309,4.7309,4.7309,4.7309,4.7309,4.7309,4.7352,4.7352,4.7381,4.751,4.7681,4.788,4.8328,4.8661,4.9015,4.9701,5.0198,5.0968,5.1895,5.2219,5.2524,5.2787,5.2926,5.2775,5.2234,5.2131,5.1978,5.1388,5.1185,5.105,5.1033,5.0999,5.0557,4.9999,4.9441,4.9018,4.9035,4.9018,4.9018,4.9018,4.9018,4.9018,4.9018,4.9018,4.9018,4.9018,4.9018,4.9018,4.9018,4.9018,4.9018,4.9018,4.9018,4.9018,4.9018,4.9018,4.9018,4.9001,4.868,4.8748,4.8714,4.8223,4.7767,4.7602,4.7495,4.7432,4.7455,4.7813,4.8107,4.8057,4.8236,4.8568,4.8584,4.8603,4.8521,4.8526,4.8361,4.8361,4.8324,4.8324,4.8324,4.8324,4.8324,4.8324,4.8324,4.8324,4.8324,4.8324,4.8324,4.8324,4.8324,4.8324,4.8324,4.7309,4.7309,4.7309,4.7309,4.7309,4.7309,4.7309,4.7309,4.7309,4.7309,4.7309,4.7309,4.7309,4.7309,4.7309,4.7309,4.7309,4.7309,4.7309,4.7309,4.7309,4.7309,4.7309,4.7309,4.7309,4.7309,4.7309,4.7396,4.7439,4.7467,4.7538,4.7666,4.8007,4.8286,4.8744,4.9113,4.9622,5.0315,5.1043,5.1749,5.2272,5.2642,5.2938,5.3195,5.3298,5.3197,5.3027,5.2976,5.2875,5.2435,5.2164,5.1843,5.1708,5.1454,5.0965,5.0794,5.0473,4.9898,4.9171,4.9069,4.9035,4.9018,4.9018,4.9018,4.9018,4.9018,4.9018,4.9018,4.9018,4.9018,4.9018,4.9018,4.9018,4.9018,4.9018,4.9018,4.9018,4.9018,4.9018,4.9018,4.9018,4.9018,4.9018,4.8714,4.8406,4.8408,4.843,4.8489,4.8446,4.8566,4.8813,4.8954,4.9226,4.9546,4.9464,4.9411,4.9218,4.9077,4.8508,4.8471,4.8343,4.8324,4.8398,4.8361,4.8324,4.8324,4.8324,4.8324,4.8324,4.8324,4.8324,4.8324,4.8324,4.8324,4.8324,4.7309,4.7309,4.7309,4.7309,4.7309,4.7309,4.7309,4.7309,4.7309,4.7309,4.7309,4.7309,4.7309,4.7309,4.7309,4.7309,4.7309,4.7309,4.7309,4.7309,4.7309,4.7309,4.7309,4.7309,4.7309,4.7309,4.7309,4.7396,4.7581,4.7709,4.7837,4.788,4.8355,4.8769,4.9097,4.9661,5.0292,5.0989,5.1749,5.2272,5.259,5.2956,5.3144,5.3298,5.3382,5.3518,5.3518,5.3484,5.345,5.3298,5.2909,5.2621,5.2536,5.2249,5.1826,5.1606,5.1386,5.0879,5.0033,4.956,4.9238,4.9069,4.9018,4.9018,4.9018,4.9018,4.9018,4.9018,4.9018,4.9018,4.9018,4.9018,4.9018,4.9018,4.9018,4.9018,4.9018,4.9018,4.9018,4.9018,4.9018,4.9018,4.9018,4.9018,4.8995,4.9165,4.9304,4.9428,4.9507,4.9493,4.9692,4.9924,5.0168,5.0352,5.0104,5.0015,4.9898,4.9739,4.9169,4.882,4.8838,4.871,4.8691,4.8581,4.8416,4.8324,4.8324,4.8324,4.8324,4.8324,4.8324,4.8324,4.8324,4.8324,4.8324,4.7309,4.7309,4.7309,4.7309,4.7309,4.7309,4.7309,4.7309,4.7309,4.7309,4.7309,4.7309,4.7309,4.7309,4.7309,4.7309,4.7309,4.7309,4.7309,4.7309,4.7309,4.7309,4.7309,4.7309,4.7309,4.7309,4.7352,4.7467,4.7666,4.8034,4.8286,4.8563,4.8852,4.9275,4.9741,5.0276,5.1005,5.1623,5.2236,5.2642,5.2938,5.3195,5.3298,5.3433,5.3467,5.3518,5.3518,5.3518,5.3501,5.3501,5.3331,5.3247,5.3162,5.3061,5.2706,5.2384,5.2249,5.1758,5.1048,5.0304,4.9678,4.9255,4.9018,4.9018,4.9018,4.9018,4.9018,4.9018,4.9018,4.9018,4.9018,4.9018,4.9018,4.9018,4.9018,4.9018,4.9018,4.9018,4.9018,4.9018,4.9018,4.9018,4.9032,4.9032,4.9155,4.929,4.972,4.9867,5.0435,5.0574,5.0784,5.0976,5.1144,5.1086,5.0614,5.0524,5.067,5.0582,5.0215,4.9829,4.9609,4.9444,4.9315,4.882,4.8655,4.8489,4.8324,4.8324,4.8324,4.8324,4.8324,4.8324,4.8324,4.8324,4.8324,4.7309,4.7309,4.7309,4.7309,4.7309,4.7309,4.7309,4.7309,4.7309,4.7309,4.7309,4.7309,4.7309,4.7309,4.7309,4.7309,4.7309,4.7309,4.7309,4.7309,4.7309,4.7309,4.7309,4.7309,4.7309,4.7352,4.7424,4.7596,4.788,4.8286,4.8769,4.9097,4.9381,4.9701,5.0214,5.0914,5.1659,5.2112,5.2607,5.3007,5.3127,5.3348,5.3416,5.3467,5.3518,5.3518,5.3518,5.3518,5.3518,5.3518,5.3518,5.3518,5.3518,5.3518,5.3331,5.3044,5.2959,5.2587,5.1928,5.1183,5.0456,4.9763,4.9323,4.9052,4.912,4.9035,4.9018,4.9018,4.9018,4.9018,4.9018,4.9018,4.9018,4.9018,4.9018,4.9018,4.9018,4.9018,4.9018,4.9018,4.9018,4.9018,4.9032,4.9077,4.9216,4.9428,4.9866,5.0352,5.0874,5.1367,5.1486,5.1706,5.1851,5.2079,5.1685,5.1593,5.1555,5.1389,5.1224,5.082,5.0472,5.0362,5.0123,4.9517,4.9022,4.8967,4.8783,4.8453,4.8324,4.8324,4.8324,4.8324,4.8324,4.8324,4.8324,4.7309,4.7309,4.7309,4.7309,4.7309,4.7309,4.7309,4.7309,4.7309,4.7309,4.7309,4.7309,4.7309,4.7309,4.7309,4.7309,4.7309,4.7309,4.7309,4.7309,4.7309,4.7309,4.7309,4.7309,4.7309,4.7352,4.751,4.7709,4.8007,4.851,4.899,4.9477,4.9995,5.0308,5.0717,5.1475,5.2219,5.2642,5.2938,5.3264,5.3298,5.3416,5.3501,5.3518,5.3518,5.3518,5.3518,5.3518,5.3518,5.3518,5.3518,5.3518,5.3518,5.3518,5.3518,5.3518,5.345,5.3196,5.2638,5.1725,5.1031,5.0439,5.0084,4.9695,4.939,4.9306,4.9373,4.9018,4.9018,4.9018,4.9018,4.9018,4.9018,4.9018,4.9018,4.9018,4.9018,4.9018,4.9018,4.9018,4.9018,4.9001,4.9094,4.9185,4.9411,4.9649,5.008,5.053,5.1008,5.1495,5.1902,5.2149,5.2436,5.2692,5.2886,5.2572,5.2307,5.2325,5.2105,5.1665,5.1371,5.1242,5.0875,5.0233,4.9811,4.9572,4.9389,4.9224,4.8783,4.8343,4.8324,4.8324,4.8324,4.8324,4.8324,4.7309,4.7309,4.7309,4.7309,4.7309,4.7309,4.7309,4.7309,4.7309,4.7309,4.7309,4.7309,4.7309,4.7309,4.7309,4.7309,4.7309,4.7309,4.7309,4.7309,4.7309,4.7309,4.7309,4.7309,4.7309,4.7352,4.7553,4.7794,4.8049,4.8733,4.9225,4.9836,5.0502,5.1016,5.1242,5.1911,5.259,5.3093,5.3195,5.3314,5.3416,5.3467,5.3501,5.3518,5.3518,5.3518,5.3518,5.3518,5.3518,5.3518,5.3518,5.3518,5.3518,5.3518,5.3518,5.3518,5.3518,5.3467,5.3348,5.2029,5.1471,5.12,5.0862,5.0574,5.0202,5.0016,4.9796,4.9407,4.9187,4.9086,4.9052,4.9018,4.9018,4.9018,4.9018,4.9018,4.9018,4.9018,4.9018,4.9018,4.9018,4.9049,4.9141,4.9277,4.959,4.9924,5.0307,5.0749,5.1167,5.1622,5.206,5.2351,5.2649,5.2846,5.3039,5.3143,5.3038,5.3093,5.2913,5.2417,5.216,5.2032,5.1573,5.093,5.0674,5.0508,5.0306,5.0105,4.9627,4.9132,4.8471,4.8324,4.8324,4.8324,4.8324,4.7309,4.7309,4.7309,4.7309,4.7309,4.7309,4.7309,4.7309,4.7309,4.7309,4.7309,4.7309,4.7309,4.7309,4.7309,4.7309,4.7309,4.7309,4.7309,4.7309,4.7309,4.7309,4.7309,4.7309,4.7309,4.7424,4.7639,4.7964,4.8218,4.898,4.9637,5.0292,5.1135,5.1802,5.2036,5.2466,5.2903,5.3161,5.3314,5.3433,5.3484,5.3518,5.3518,5.3518,5.3518,5.3518,5.3518,5.3518,5.3518,5.3518,5.3518,5.3518,5.3518,5.3518,5.3518,5.3518,5.3518,5.3518,5.3467,5.2875,5.2503,5.2063,5.154,5.1251,5.0845,5.0845,5.0439,4.9949,4.9746,4.956,4.9154,4.9052,4.9035,4.9018,4.9018,4.9018,4.9018,4.9018,4.9018,4.9018,4.9018,4.9155,4.9307,4.9458,4.9737,5.0126,5.0519,5.0901,5.1359,5.1765,5.2174,5.2444,5.2717,5.2912,5.306,5.3164,5.3185,5.3148,5.313,5.2983,5.2821,5.2674,5.2325,5.172,5.1573,5.1426,5.1022,5.0655,5.0435,4.9994,4.9279,4.8728,4.8691,4.8545,4.8324,4.7309,4.7309,4.7309,4.7309,4.7309,4.7309,4.7309,4.7309,4.7309,4.7309,4.7309,4.7309,4.7309,4.7309,4.7309,4.7309,4.7309,4.7309,4.7309,4.7309,4.7309,4.7309,4.7309,4.7309,4.7352,4.7467,4.7794,4.8133,4.8469,4.9194,5.0018,5.087,5.1802,5.22,5.2537,5.2834,5.3093,5.3314,5.3433,5.3484,5.3518,5.3518,5.3518,5.3518,5.3518,5.3518,5.3518,5.3518,5.3518,5.3518,5.3518,5.3518,5.3518,5.3518,5.3518,5.3518,5.3518,5.3518,5.3467,5.3467,5.3061,5.2773,5.2232,5.1894,5.1674,5.1589,5.1166,5.076,5.0524,5.0236,4.9847,4.9678,4.9644,4.9678,4.9475,4.9492,4.9373,4.939,4.9086,4.9069,4.9049,4.9263,4.9458,4.9649,4.9866,5.0296,5.0729,5.1123,5.1505,5.1882,5.2228,5.2536,5.2761,5.2912,5.306,5.3164,5.3185,5.3185,5.3185,5.3185,5.3148,5.2949,5.2729,5.2582,5.2417,5.2123,5.1555,5.1187,5.1059,5.0674,5.0031,4.9554,4.9205,4.904,4.893,4.7309,4.7309,4.7309,4.7309,4.7309,4.7309,4.7309,4.7309,4.7309,4.7309,4.7309,4.7309,4.7309,4.7309,4.7309,4.7309,4.7309,4.7309,4.7309,4.7309,4.7309,4.7309,4.7309,4.7309,4.7381,4.7639,4.788,4.826,4.8661,4.9566,5.0486,5.1355,5.2073,5.2537,5.2868,5.3076,5.3314,5.3433,5.3467,5.3518,5.3518,5.3518,5.3518,5.3518,5.3518,5.3518,5.3518,5.3518,5.3518,5.3518,5.3518,5.3518,5.3518,5.3518,5.3518,5.3518,5.3518,5.3518,5.3518,5.3518,5.3501,5.3298,5.3315,5.2959,5.2604,5.2334,5.1961,5.1539,5.1234,5.1183,5.1031,5.0963,5.0896,5.0676,5.0371,5.0219,5.0033,4.9763,4.934,4.9154,4.9083,4.9202,4.9458,4.9708,4.9982,5.0418,5.082,5.1237,5.1607,5.1864,5.2251,5.2649,5.2828,5.2952,5.306,5.3164,5.3185,5.3185,5.3185,5.3185,5.3185,5.3185,5.3002,5.2949,5.3075,5.2818,5.227,5.194,5.1775,5.1334,5.1059,5.0527,5.0215,5.0215,5.0178,4.7309,4.7309,4.7309,4.7309,4.7309,4.7309,4.7309,4.7309,4.7309,4.7309,4.7309,4.7309,4.7309,4.7309,4.7309,4.7309,4.7309,4.7309,4.7309,4.7309,4.7309,4.7309,4.7309,4.7309,4.7424,4.7639,4.7922,4.8343,4.9087,4.9939,5.093,5.1818,5.2359,5.2799,5.3093,5.3314,5.3433,5.3467,5.3518,5.3518,5.3518,5.3518,5.3518,5.3518,5.3518,5.3518,5.3518,5.3518,5.3518,5.3518,5.3518,5.3518,5.3518,5.3518,5.3518,5.3518,5.3518,5.3518,5.3518,5.3518,5.3518,5.3518,5.3518,5.3467,5.3213,5.2993,5.2723,5.23,5.1995,5.1944,5.1742,5.1623,5.1623,5.1454,5.1166,5.093,5.071,5.0321,4.9881,4.9588,4.9517,4.9379,4.9616,4.9779,5.0097,5.053,5.0937,5.1367,5.1715,5.1987,5.228,5.2672,5.2868,5.2974,5.3078,5.3185,5.3185,5.3185,5.3185,5.3185,5.3185,5.3185,5.3185,5.3185,5.3185,5.3148,5.2986,5.2692,5.2399,5.2656,5.2415,5.1775,5.1279,5.1242,5.1169,4.7309,4.7309,4.7309,4.7309,4.7309,4.7309,4.7309,4.7309,4.7309,4.7309,4.7309,4.7309,4.7309,4.7309,4.7309,4.7309,4.7309,4.7309,4.7309,4.7309,4.7309,4.7309,4.7309,4.7352,4.751,4.7709,4.8091,4.8552,4.9396,5.0502,5.154,5.2,5.2624,5.2972,5.3179,5.3348,5.3467,5.3518,5.3518,5.3518,5.3518,5.3518,5.3518,5.3518,5.3518,5.3518,5.3518,5.3518,5.3518,5.3518,5.3518,5.3518,5.3518,5.3518,5.3518,5.3518,5.3518,5.3518,5.3518,5.3518,5.3518,5.3518,5.3518,5.3484,5.3484,5.3348,5.3145,5.2875,5.2773,5.2655,5.2367,5.2131,5.2164,5.2164,5.1911,5.1657,5.1302,5.093,5.0555,5.0227,4.9977,4.9786,4.982,4.9982,5.0268,5.0729,5.1132,5.1495,5.1864,5.2174,5.2415,5.2717,5.289,5.2995,5.3082,5.3185,5.3185,5.3185,5.3185,5.3185,5.3185,5.3185,5.3185,5.3185,5.3185,5.3148,5.3112,5.313,5.302,5.3185,5.3185,5.2635,5.2215,5.2215,5.2087,4.7309,4.7309,4.7309,4.7309,4.7309,4.7309,4.7309,4.7309,4.7309,4.7309,4.7309,4.7309,4.7309,4.7309,4.7309,4.7309,4.7309,4.7309,4.7309,4.7309,4.7309,4.7309,4.7309,4.7309,4.7553,4.7922,4.8328,4.8744,4.9781,5.081,5.1651,5.2036,5.2624,5.3007,5.3264,5.3416,5.3518,5.3518,5.3518,5.3518,5.3518,5.3518,5.3518,5.3518,5.3518,5.3518,5.3518,5.3518,5.3518,5.3518,5.3518,5.3518,5.3518,5.3518,5.3518,5.3518,5.3518,5.3518,5.3518,5.3518,5.3518,5.3518,5.3518,5.3518,5.3518,5.3518,5.3331,5.3281,5.3162,5.3145,5.2926,5.2858,5.2875,5.2824,5.2638,5.2469,5.2266,5.1791,5.1244,5.0949,5.0779,5.0553,5.0295,5.0501,5.0718,5.1104,5.1376,5.169,5.2054,5.2376,5.2554,5.2783,5.289,5.3017,5.3121,5.3185,5.3185,5.3185,5.3185,5.3185,5.3185,5.3185,5.3185,5.3185,5.3185,5.3185,5.3167,5.3185,5.3185,5.3185,5.3185,5.3185,5.3075,5.291,5.28,4.7309,4.7309,4.7309,4.7309,4.7309,4.7309,4.7309,4.7309,4.7309,4.7309,4.7309,4.7309,4.7309,4.7309,4.7309,4.7309,4.7309,4.7309,4.7309,4.7309,4.7309,4.7309,4.7309,4.7309,4.7581,4.7922,4.837,4.9041,5.0175,5.1092,5.1835,5.243,5.2799,5.3058,5.3382,5.3518,5.3518,5.3518,5.3518,5.3518,5.3518,5.3518,5.3518,5.3518,5.3518,5.3518,5.3518,5.3518,5.3518,5.3518,5.3518,5.3518,5.3518,5.3518,5.3518,5.3518,5.3518,5.3518,5.3518,5.3518,5.3518,5.3518,5.3518,5.3518,5.3518,5.3518,5.3518,5.3518,5.3518,5.3518,5.3518,5.3518,5.3501,5.3399,5.3315,5.323,5.3145,5.2585,5.1953,5.1753,5.1569,5.1369,5.1058,5.106,5.122,5.1458,5.1653,5.1932,5.2323,5.2622,5.2645,5.2828,5.2934,5.3039,5.3143,5.3185,5.3185,5.3185,5.3185,5.3185,5.3185,5.3185,5.3185,5.3185,5.3185,5.3185,5.3185,5.3185,5.3185,5.3185,5.3185,5.3185,5.3185,5.3057,5.3112,4.7309,4.7309,4.7309,4.7309,4.7309,4.7309,4.7309,4.7309,4.7309,4.7309,4.7309,4.7309,4.7309,4.7309,4.7309,4.7309,4.7309,4.7309,4.7309,4.7309,4.7309,4.7309,4.7309,4.7309,4.7596,4.7964,4.8769,4.9661,5.0618,5.1317,5.198,5.2572,5.2834,5.3109,5.3433,5.3518,5.3518,5.3518,5.3518,5.3518,5.3518,5.3518,5.3518,5.3518,5.3518,5.3518,5.3518,5.3518,5.3518,5.3518,5.3518,5.3518,5.3518,5.3518,5.3518,5.3518,5.3518,5.3518,5.3518,5.3518,5.3518,5.3518,5.3518,5.3518,5.3518,5.3518,5.3518,5.3518,5.3518,5.3518,5.3518,5.3518,5.3518,5.345,5.3416,5.3416,5.3415,5.3226,5.2743,5.2472,5.2386,5.236,5.2146,5.2137,5.2333,5.2582,5.2654,5.2592,5.2857,5.2922,5.2925,5.2908,5.3054,5.31,5.3164,5.3185,5.3185,5.3185,5.3185,5.3185,5.3185,5.3185,5.3185,5.3185,5.3185,5.3185,5.3185,5.3185,5.3185,5.3185,5.3185,5.3185,5.3185,5.3185,5.3185,4.7309,4.7309,4.7309,4.7309,4.7309,4.7309,4.7309,4.7309,4.7309,4.7309,4.7309,4.7309,4.7309,4.7309,4.7309,4.7309,4.7309,4.7309,4.7309,4.7309,4.7309,4.7309,4.7309,4.7337,4.7767,4.8412,4.9235,5.0018,5.0902,5.1466,5.2017,5.2537,5.2868,5.3109,5.3399,5.3518,5.3518,5.3518,5.3518,5.3518,5.3518,5.3518,5.3518,5.3518,5.3518,5.3518,5.3518,5.3518,5.3518,5.3518,5.3518,5.3518,5.3518,5.3518,5.3518,5.3518,5.3518,5.3518,5.3518,5.3518,5.3518,5.3518,5.3518,5.3518,5.3518,5.3518,5.3518,5.3518,5.3518,5.3518,5.3518,5.3518,5.3518,5.3518,5.3534,5.3551,5.3617,5.3716,5.3468,5.321,5.3273,5.3298,5.3234,5.3223,5.3397,5.3655,5.3721,5.3655,5.3592,5.3444,5.3375,5.3266,5.3246,5.3274,5.3203,5.3185,5.3185,5.3185,5.3185,5.3185,5.3185,5.3185,5.3185,5.3185,5.3185,5.3185,5.3185,5.3185,5.3185,5.3185,5.3185,5.3185,5.3185,5.3185,5.3185,4.7309,4.7309,4.7309,4.7309,4.7309,4.7309,4.7309,4.7309,4.7309,4.7309,4.7309,4.7309,4.7309,4.7309,4.7309,4.7309,4.7309,4.7309,4.7309,4.7309,4.7309,4.7309,4.7352,4.751,4.8064,4.8759,4.9517,5.0253,5.0962,5.154,5.2161,5.2799,5.2817,5.3093,5.3433,5.3518,5.3518,5.3518,5.3518,5.3518,5.3518,5.3518,5.3518,5.3518,5.3518,5.3518,5.3518,5.3518,5.3518,5.3518,5.3518,5.3518,5.3518,5.3518,5.3518,5.3518,5.3518,5.3518,5.3518,5.3518,5.3518,5.3518,5.3518,5.3518,5.3518,5.3518,5.3518,5.3518,5.3518,5.3518,5.3518,5.3518,5.3518,5.3501,5.3534,5.3618,5.3684,5.3865,5.3937,5.4038,5.4254,5.4183,5.4057,5.4141,5.4254,5.4394,5.4369,5.4379,5.4651,5.4305,5.3876,5.3771,5.368,5.3314,5.3185,5.3185,5.3185,5.3185,5.3185,5.3185,5.3185,5.3185,5.3185,5.3185,5.3185,5.3185,5.3185,5.3185,5.3185,5.3185,5.3185,5.3185,5.3185,5.3185,5.3185]}]]